[[{"header":{"parameterUnit":"m.s-1","parameterCategory":1,"la1":31.0,"la2":29.5877,"lo1":-88.7671,"lo2":-86.6584,"dy":0.0162,"dx":0.0185,"nx":115,"ny":88,"refTime":"2023-04-04T12:00:00:Z","depth":0,"parameterNumber":2,"parameterNumberName":"U-component_of_WINDS"},"data":[0.0,0.0,0.0,0.0,0.0,0.0,0.0,0.0,0.0,0.0,0.0,0.0,0.0,0.0,0.0,0.0,0.0,0.0,0.0,0.0,0.0,0.0,0.0,0.0,0.0,0.0,0.0,0.0,0.0,0.0,0.0,0.0,0.0,0.0,0.0,0.0,0.0,0.0,0.0,0.0,0.0,0.0,0.0,0.0,0.0,0.0,0.0,0.0,0.0,0.0,0.0,0.0,0.0,0.0,0.0,0.0,0.0,0.0,0.0,0.0,0.0,0.0,0.0,0.0,0.0,0.0,0.0,0.0,0.0,0.0,0.0,0.0,0.0,0.0,0.0,0.0,0.0,0.0,0.0,0.0,0.0,0.0,0.0,0.0,0.0,0.0,0.0,0.0,0.0,0.0,0.0,0.0,0.0,0.0,0.0,0.0,0.0,0.0,0.0,0.0,0.0,0.0,0.0,0.0,0.0,0.0,0.0,0.0,0.0,0.0,0.0,0.0,0.0,0.0,0.0,0.0,0.0,0.0,0.0,0.0,0.0,0.0,0.0,0.0,0.0,0.0,0.0,0.0,0.0,0.0,0.0,0.0,0.0,0.0,0.0,0.0,0.0,0.0,0.0,0.0,0.0,0.0,0.0,0.0,0.0,0.0,0.0,0.0,0.0,0.0,0.0,0.0,0.0,0.0,0.0,0.0,0.0,0.0,0.0,0.0,0.0,0.0,0.0,0.0,0.0,0.0,0.0,0.0,0.0,0.0,0.0,0.0,0.0,0.0,0.0,0.0,0.0,0.0,0.0,0.0,0.0,0.0,0.0,0.0,0.0,0.0,0.0,0.0,0.0,0.0,0.0,0.0,0.0,0.0,0.0,0.0,0.0,0.0,0.0,0.0,0.0,0.0,0.0,0.0,0.0,0.0,0.0,0.0,0.0,0.0,0.0,0.0,0.0,0.0,0.0,0.0,0.0,0.0,0.0,0.0,0.0,0.0,0.0,0.0,0.0,0.0,0.0,0.0,0.0,0.0,0.0,0.0,0.0,0.0,0.0,0.0,0.0,0.0,0.0,0.0,0.0,0.0,0.0,0.0,0.0,0.0,0.0,0.0,0.0,0.0,0.0,0.0,0.0,0.0,0.0,0.0,0.0,0.0,0.0,0.0,0.0,0.0,0.0,0.0,0.0,0.0,0.0,0.0,0.0,0.0,0.0,0.0,0.0,0.0,0.0,0.0,0.0,0.0,0.0,0.0,0.0,0.0,0.0,0.0,0.0,0.0,0.0,0.0,0.0,0.0,0.0,0.0,0.0,0.0,0.0,0.0,0.0,0.0,0.0,0.0,0.0,0.0,0.0,0.0,0.0,0.0,0.0,0.0,0.0,0.0,0.0,0.0,0.0,0.0,0.0,0.0,0.0,0.0,0.0,0.0,0.0,0.0,0.0,0.0,0.0,0.0,0.0,0.0,0.0,0.0,0.0,0.0,0.0,0.0,0.0,0.0,0.0,0.0,0.0,0.0,0.0,0.0,0.0,0.0,0.0,0.0,0.0,0.0,0.0,0.0,0.0,0.0,0.0,0.0,0.0,0.0,0.0,0.0,0.0,0.0,0.0,0.0,0.0,0.0,0.0,0.0,0.0,0.0,0.0,0.0,0.0,0.0,0.0,0.0,0.0,0.0,0.0,0.0,0.0,0.0,0.0,0.0,0.0,0.0,0.0,0.0,0.0,0.0,0.0,0.0,0.0,0.0,0.0,0.0,0.0,0.0,0.0,0.0,0.0,0.0,0.0,0.0,0.0,0.0,0.0,0.0,0.0,0.0,0.0,0.0,0.0,0.0,0.0,0.0,0.0,0.0,0.0,0.0,0.0,0.0,0.0,0.0,0.0,0.0,0.0,0.0,0.0,0.0,0.0,0.0,0.0,0.0,0.0,0.0,0.0,0.0,0.0,0.0,0.0,0.0,0.0,0.0,0.0,0.0,0.0,0.0,0.0,0.0,0.0,0.0,0.0,0.0,0.0,0.0,0.0,0.0,0.0,0.0,0.0,0.0,0.0,0.0,0.0,0.0,0.0,0.0,0.0,0.0,0.0,0.0,0.0,0.0,0.0,0.0,0.0,0.0,0.0,0.0,0.0,0.0,0.0,0.0,0.0,0.0,0.0,0.0,0.0,0.0,0.0,0.0,0.0,0.0,0.0,0.0,0.0,0.0,0.0,0.0,0.0,0.0,0.0,0.0,0.0,0.0,0.0,0.0,0.0,0.0,0.0,0.0,0.0,0.0,0.0,0.0,0.0,0.0,0.0,0.0,0.0,0.0,0.0,0.0,0.0,0.0,0.0,0.0,0.0,0.0,0.0,0.0,0.0,0.0,0.0,0.0,0.0,0.0,0.0,0.0,0.0,0.0,0.0,0.0,0.0,0.0,0.0,0.0,0.0,0.0,0.0,0.0,0.0,0.0,0.0,0.0,0.0,0.0,0.0,0.0,0.0,0.0,0.0,0.0,0.0,0.0,0.0,0.0,0.0,0.0,0.0,0.0,0.0,0.0,0.0,0.0,0.0,0.0,0.0,0.0,0.0,0.0,0.0,0.0,0.0,0.0,0.0,0.0,0.0,0.0,0.0,0.0,0.0,0.0,0.0,0.0,0.0,0.0,0.0,0.0,0.0,0.0,0.0,0.0,0.0,0.0,0.0,0.0,0.0,0.0,0.0,0.0,0.0,0.0,0.0,0.0,0.0,0.0,0.0,0.0,0.0,0.0,0.0,0.0,0.0,0.0,0.0,0.0,0.0,0.0,0.0,0.0,0.0,0.0,0.0,0.0,0.0,0.0,0.0,0.0,0.0,0.0,0.0,0.0,0.0,0.0,0.0,0.0,0.0,0.0,0.0,0.0,0.0,0.0,0.0,0.0,0.0,0.0,0.0,0.0,0.0,0.0,0.0,0.0,0.0,0.0,0.0,0.0,0.0,0.0,0.0,0.0,0.0,0.0,0.0,0.0,0.0,0.0,0.0,0.0,0.0,0.0,0.0,0.0,0.0,0.0,0.0,0.0,0.0,0.0,0.0,0.0,0.0,0.0,0.0,0.0,0.0,0.0,0.0,0.0,0.0,0.0,0.0,0.0,0.0,0.0,0.0,0.0,0.0,0.0,0.0,0.0,0.0,0.0,0.0,0.0,0.0,0.0,0.0,0.0,0.0,0.0,0.0,0.0,0.0,0.0,0.0,0.0,0.0,0.0,0.0,0.0,0.0,0.0,0.0,0.0,0.0,0.0,0.0,0.0,0.0,0.0,0.0,0.0,0.0,0.0,0.0,0.0,0.0,0.0,0.0,0.0,0.0,0.0,0.0,0.0,0.0,0.0,0.0,0.0,0.0,0.0,0.0,0.0,0.0,0.0,0.0,0.0,0.0,0.0,0.0,0.0,0.0,0.0,0.0,0.0,0.0,0.0,0.0,0.0,0.0,0.0,0.0,0.0,0.0,0.0,0.0,0.0,0.0,0.0,0.0,0.0,0.0,0.0,0.0,0.0,0.0,0.0,0.0,0.0,0.0,0.0,0.0,0.0,0.0,0.0,0.0,0.0,0.0,0.0,0.0,0.0,0.0,0.0,0.0,0.0,0.0,0.0,0.0,0.0,0.0,0.0,0.0,0.0,0.0,0.0,0.0,0.0,0.0,0.0,0.0,0.0,0.0,0.0,0.0,0.0,0.0,0.0,0.0,0.0,0.0,0.0,0.0,0.0,0.0,0.0,0.0,0.0,0.0,0.0,0.0,0.0,0.0,0.0,0.0,0.0,0.0,0.0,0.0,0.0,0.0,0.0,0.0,0.0,0.0,0.0,0.0,0.0,0.0,0.0,0.0,0.0,0.0,0.0,0.0,0.0,0.0,0.0,0.0,0.0,0.0,0.0,0.0,0.0,0.0,0.0,0.0,0.0,0.0,0.0,0.0,0.0,0.0,0.0,0.0,0.0,0.0,0.0,0.0,0.0,0.0,0.0,0.0,0.0,0.0,0.0,0.0,0.0,0.0,0.0,0.0,0.0,0.0,0.0,0.0,0.0,0.0,0.0,0.0,0.0,0.0,0.0,0.0,0.0,0.0,0.0,0.0,0.0,0.0,0.0,0.0,0.0,0.0,0.0,0.0,0.0,0.0,0.0,0.0,0.0,0.0,0.0,0.0,0.0,0.0,0.0,0.0,0.0,0.0,0.0,0.0,0.0,0.0,0.0,0.0,0.0,0.0,0.0,0.0,0.0,0.0,0.0,0.0,0.0,0.0,0.0,0.0,0.0,2.8523,0.0,0.0,0.0,0.0,0.0,0.0,0.0,0.0,0.0,0.0,0.0,0.0,0.0,0.0,0.0,0.0,0.0,0.0,0.0,0.0,0.0,0.0,0.0,0.0,0.0,0.0,0.0,0.0,0.0,0.0,0.0,0.0,0.0,0.0,0.0,0.0,0.0,0.0,0.0,0.0,0.0,0.0,0.0,0.0,0.0,0.0,0.0,0.0,0.0,0.0,0.0,0.0,0.0,0.0,0.0,0.0,0.0,0.0,0.0,0.0,0.0,0.0,0.0,0.0,0.0,0.0,0.0,0.0,0.0,0.0,0.0,0.0,0.0,0.0,0.0,0.0,0.0,0.0,0.0,0.0,0.0,0.0,0.0,0.0,0.0,0.0,0.0,0.0,0.0,0.0,0.0,0.0,0.0,0.0,0.0,0.0,0.0,0.0,0.0,0.0,0.0,0.0,0.0,0.0,0.0,0.0,0.0,0.0,0.0,0.0,2.7876,2.766,2.7606,2.7897,2.8564,0.0,0.0,0.0,0.0,0.0,0.0,0.0,0.0,0.0,0.0,0.0,0.0,0.0,0.0,0.0,0.0,0.0,0.0,0.0,0.0,0.0,0.0,0.0,0.0,0.0,0.0,0.0,0.0,0.0,0.0,0.0,0.0,0.0,0.0,0.0,0.0,0.0,0.0,0.0,0.0,0.0,0.0,0.0,0.0,0.0,0.0,0.0,0.0,0.0,0.0,0.0,0.0,0.0,0.0,0.0,0.0,0.0,0.0,0.0,0.0,0.0,0.0,0.0,0.0,0.0,0.0,0.0,0.0,0.0,0.0,0.0,0.0,0.0,0.0,0.0,0.0,0.0,0.0,0.0,0.0,0.0,0.0,0.0,0.0,0.0,0.0,0.0,0.0,0.0,0.0,0.0,0.0,0.0,0.0,0.0,0.0,0.0,0.0,0.0,0.0,0.0,0.0,0.0,0.0,0.0,0.0,0.0,0.0,0.0,0.0,0.0,0.0,2.7847,2.8046,2.8564,0.0,0.0,0.0,0.0,0.0,0.0,0.0,0.0,0.0,0.0,0.0,0.0,0.0,0.0,0.0,0.0,0.0,0.0,0.0,0.0,0.0,0.0,0.0,0.0,0.0,0.0,0.0,0.0,0.0,0.0,0.0,0.0,0.0,0.0,0.0,0.0,0.0,0.0,0.0,0.0,0.0,0.0,0.0,0.0,0.0,0.0,0.0,0.0,0.0,0.0,0.0,0.0,0.0,0.0,0.0,0.0,0.0,0.0,0.0,0.0,0.0,0.0,0.0,0.0,0.0,0.0,0.0,0.0,0.0,0.0,0.0,0.0,0.0,0.0,0.0,0.0,0.0,0.0,0.0,0.0,0.0,0.0,0.0,0.0,0.0,0.0,0.0,0.0,0.0,0.0,0.0,0.0,0.0,0.0,0.0,0.0,0.0,0.0,0.0,0.0,0.0,0.0,0.0,0.0,0.0,0.0,0.0,0.0,0.0,0.0,2.8452,2.8263,2.797,0.0,2.8595,0.0,0.0,0.0,0.0,0.0,0.0,0.0,0.0,0.0,0.0,0.0,0.0,0.0,0.0,0.0,0.0,0.0,0.0,0.0,0.0,0.0,0.0,0.0,0.0,0.0,0.0,0.0,0.0,0.0,0.0,0.0,0.0,0.0,0.0,0.0,0.0,0.0,0.0,0.0,0.0,0.0,0.0,0.0,0.0,0.0,0.0,0.0,0.0,0.0,0.0,0.0,0.0,0.0,0.0,0.0,0.0,0.0,0.0,0.0,0.0,0.0,0.0,0.0,0.0,0.0,0.0,0.0,0.0,0.0,0.0,0.0,0.0,0.0,0.0,0.0,0.0,0.0,0.0,0.0,0.0,0.0,0.0,0.0,0.0,0.0,0.0,0.0,0.0,0.0,0.0,0.0,0.0,0.0,0.0,0.0,0.0,0.0,0.0,0.0,0.0,0.0,0.0,0.0,0.0,0.0,0.0,0.0,0.0,0.0,0.0,2.8643,2.8476,2.8584,2.8686,0.0,0.0,0.0,0.0,0.0,0.0,0.0,0.0,0.0,0.0,0.0,0.0,0.0,0.0,0.0,0.0,0.0,0.0,0.0,0.0,0.0,0.0,0.0,0.0,0.0,0.0,0.0,0.0,0.0,0.0,0.0,0.0,0.0,0.0,0.0,0.0,0.0,0.0,0.0,0.0,0.0,0.0,0.0,0.0,0.0,0.0,0.0,0.0,0.0,0.0,0.0,0.0,0.0,0.0,0.0,0.0,0.0,0.0,0.0,0.0,0.0,0.0,0.0,0.0,0.0,0.0,0.0,0.0,0.0,0.0,0.0,0.0,0.0,0.0,0.0,0.0,0.0,0.0,0.0,0.0,0.0,0.0,0.0,0.0,0.0,0.0,0.0,0.0,0.0,0.0,0.0,0.0,0.0,0.0,0.0,0.0,0.0,0.0,0.0,0.0,0.0,0.0,0.0,0.0,0.0,0.0,0.0,0.0,0.0,0.0,2.9155,2.8806,2.8547,2.9065,2.9239,2.9006,0.0,0.0,0.0,0.0,0.0,0.0,0.0,0.0,0.0,0.0,0.0,0.0,0.0,0.0,0.0,0.0,0.0,0.0,0.0,0.0,0.0,0.0,0.0,0.0,0.0,0.0,0.0,0.0,0.0,0.0,0.0,0.0,0.0,0.0,0.0,0.0,0.0,0.0,0.0,0.0,0.0,0.0,0.0,0.0,0.0,0.0,0.0,0.0,0.0,0.0,0.0,0.0,0.0,0.0,0.0,0.0,0.0,0.0,0.0,0.0,0.0,0.0,0.0,0.0,0.0,0.0,0.0,0.0,0.0,0.0,0.0,0.0,0.0,0.0,0.0,0.0,0.0,0.0,0.0,0.0,0.0,0.0,0.0,0.0,0.0,0.0,0.0,0.0,0.0,0.0,0.0,0.0,0.0,0.0,0.0,0.0,0.0,0.0,0.0,0.0,0.0,0.0,0.0,0.0,0.0,0.0,0.0,0.0,2.9762,2.9517,2.9022,2.8376,2.9253,2.9531,0.0,0.0,0.0,0.0,0.0,0.0,0.0,0.0,0.0,0.0,0.0,0.0,0.0,0.0,0.0,0.0,0.0,0.0,0.0,0.0,0.0,0.0,0.0,0.0,0.0,0.0,0.0,0.0,0.0,0.0,0.0,0.0,0.0,0.0,0.0,0.0,0.0,0.0,0.0,0.0,0.0,0.0,0.0,0.0,0.0,0.0,0.0,0.0,0.0,0.0,0.0,0.0,0.0,0.0,0.0,0.0,0.0,0.0,0.0,0.0,0.0,0.0,0.0,0.0,0.0,0.0,0.0,0.0,0.0,0.0,0.0,0.0,0.0,0.0,0.0,0.0,0.0,0.0,0.0,0.0,0.0,0.0,0.0,0.0,0.0,0.0,0.0,0.0,0.0,0.0,0.0,0.0,0.0,0.0,0.0,0.0,0.0,0.0,0.0,0.0,0.0,0.0,0.0,0.0,0.0,0.0,0.0,0.0,0.0,2.9785,2.9409,2.9038,2.8726,2.942,2.9768,0.0,0.0,0.0,0.0,0.0,0.0,0.0,0.0,0.0,0.0,0.0,0.0,0.0,0.0,0.0,0.0,0.0,0.0,0.0,0.0,0.0,0.0,0.0,0.0,0.0,0.0,0.0,0.0,0.0,0.0,0.0,0.0,0.0,0.0,0.0,0.0,0.0,0.0,0.0,0.0,0.0,0.0,0.0,0.0,0.0,0.0,0.0,0.0,0.0,0.0,0.0,0.0,0.0,0.0,0.0,0.0,0.0,0.0,0.0,0.0,0.0,0.0,0.0,0.0,0.0,0.0,0.0,0.0,0.0,0.0,0.0,0.0,0.0,0.0,0.0,0.0,0.0,0.0,0.0,0.0,0.0,0.0,0.0,0.0,0.0,0.0,0.0,0.0,0.0,0.0,0.0,0.0,0.0,0.0,0.0,0.0,0.0,0.0,0.0,0.0,0.0,0.0,0.0,0.0,0.0,0.0,0.0,0.0,0.0,2.991,0.0,2.9222,2.9301,2.9754,3.0037,0.0,0.0,0.0,0.0,0.0,0.0,0.0,0.0,0.0,0.0,0.0,0.0,0.0,0.0,0.0,0.0,0.0,0.0,0.0,0.0,0.0,0.0,0.0,0.0,0.0,0.0,0.0,0.0,0.0,0.0,0.0,0.0,0.0,0.0,0.0,0.0,0.0,0.0,0.0,0.0,0.0,0.0,0.0,0.0,0.0,0.0,0.0,0.0,0.0,0.0,0.0,0.0,0.0,0.0,0.0,0.0,0.0,0.0,0.0,0.0,0.0,0.0,0.0,0.0,0.0,0.0,0.0,0.0,0.0,0.0,0.0,0.0,0.0,0.0,0.0,0.0,0.0,0.0,0.0,0.0,0.0,0.0,0.0,0.0,0.0,0.0,0.0,0.0,0.0,0.0,0.0,0.0,0.0,0.0,0.0,0.0,0.0,0.0,0.0,0.0,0.0,0.0,0.0,0.0,0.0,0.0,0.0,0.0,3.0152,3.0179,2.9673,2.9624,3.0075,3.0286,3.0306,0.0,0.0,0.0,0.0,0.0,0.0,0.0,0.0,0.0,0.0,0.0,0.0,0.0,0.0,0.0,0.0,0.0,0.0,0.0,0.0,0.0,0.0,0.0,0.0,0.0,0.0,0.0,0.0,0.0,0.0,0.0,0.0,0.0,0.0,0.0,0.0,0.0,0.0,0.0,0.0,0.0,0.0,0.0,0.0,0.0,0.0,0.0,0.0,0.0,0.0,0.0,0.0,0.0,0.0,0.0,0.0,0.0,0.0,0.0,0.0,0.0,0.0,0.0,0.0,0.0,0.0,0.0,0.0,0.0,0.0,0.0,0.0,0.0,0.0,0.0,0.0,0.0,0.0,0.0,0.0,0.0,0.0,0.0,0.0,0.0,0.0,0.0,0.0,0.0,0.0,0.0,0.0,0.0,0.0,0.0,0.0,0.0,0.0,0.0,0.0,0.0,0.0,0.0,0.0,0.0,0.0,0.0,0.0,0.0,3.0266,2.9974,2.9972,3.029,3.0367,3.0508,0.0,0.0,0.0,0.0,0.0,0.0,0.0,0.0,0.0,0.0,0.0,0.0,0.0,0.0,0.0,0.0,0.0,0.0,0.0,0.0,0.0,0.0,0.0,0.0,0.0,0.0,0.0,0.0,0.0,0.0,0.0,0.0,0.0,0.0,0.0,0.0,0.0,0.0,0.0,0.0,0.0,0.0,0.0,0.0,0.0,0.0,0.0,0.0,0.0,0.0,0.0,0.0,0.0,0.0,0.0,0.0,0.0,0.0,0.0,0.0,0.0,0.0,0.0,0.0,0.0,0.0,0.0,0.0,0.0,0.0,0.0,0.0,0.0,0.0,0.0,0.0,0.0,0.0,0.0,0.0,0.0,0.0,0.0,0.0,0.0,0.0,0.0,0.0,0.0,0.0,0.0,0.0,0.0,0.0,0.0,0.0,0.0,0.0,0.0,0.0,0.0,0.0,0.0,0.0,0.0,0.0,0.0,0.0,0.0,3.0672,3.0334,3.0299,3.0599,3.0561,3.0602,3.0753,0.0,0.0,0.0,0.0,0.0,0.0,0.0,0.0,0.0,0.0,0.0,0.0,0.0,0.0,0.0,0.0,0.0,0.0,0.0,0.0,0.0,0.0,0.0,0.0,0.0,0.0,0.0,0.0,0.0,0.0,0.0,0.0,0.0,0.0,0.0,0.0,0.0,0.0,0.0,0.0,0.0,0.0,0.0,0.0,0.0,0.0,0.0,0.0,0.0,0.0,0.0,0.0,0.0,0.0,0.0,0.0,0.0,0.0,0.0,0.0,0.0,0.0,0.0,0.0,0.0,0.0,0.0,0.0,0.0,0.0,0.0,0.0,0.0,0.0,0.0,0.0,0.0,0.0,0.0,0.0,0.0,0.0,0.0,0.0,0.0,0.0,0.0,0.0,0.0,0.0,0.0,0.0,0.0,0.0,0.0,0.0,0.0,0.0,0.0,0.0,0.0,0.0,0.0,0.0,0.0,0.0,0.0,0.0,3.134,3.0796,3.0687,3.096,3.0824,3.0629,0.0,0.0,0.0,0.0,0.0,0.0,0.0,0.0,0.0,0.0,0.0,0.0,0.0,0.0,0.0,0.0,0.0,0.0,0.0,0.0,0.0,0.0,0.0,0.0,0.0,0.0,0.0,0.0,0.0,0.0,0.0,0.0,0.0,0.0,0.0,0.0,0.0,0.0,0.0,0.0,0.0,0.0,0.0,0.0,0.0,0.0,0.0,0.0,0.0,0.0,0.0,0.0,0.0,0.0,0.0,0.0,0.0,0.0,0.0,0.0,0.0,0.0,0.0,0.0,0.0,0.0,0.0,0.0,0.0,0.0,0.0,0.0,0.0,0.0,0.0,0.0,0.0,0.0,0.0,0.0,0.0,0.0,0.0,0.0,0.0,0.0,0.0,0.0,0.0,0.0,0.0,0.0,0.0,0.0,0.0,0.0,0.0,0.0,0.0,0.0,0.0,0.0,0.0,0.0,0.0,0.0,0.0,0.0,0.0,3.1906,3.1875,3.1509,3.0812,3.1102,3.1,0.0,0.0,0.0,0.0,0.0,0.0,0.0,0.0,0.0,0.0,0.0,0.0,0.0,0.0,0.0,0.0,0.0,0.0,0.0,0.0,0.0,0.0,0.0,0.0,0.0,0.0,0.0,0.0,0.0,0.0,0.0,0.0,0.0,0.0,0.0,0.0,0.0,0.0,0.0,0.0,0.0,0.0,0.0,0.0,0.0,0.0,0.0,0.0,0.0,0.0,0.0,0.0,0.0,0.0,0.0,0.0,0.0,0.0,0.0,0.0,0.0,0.0,0.0,0.0,0.0,0.0,0.0,0.0,0.0,0.0,0.0,0.0,0.0,0.0,0.0,0.0,0.0,0.0,0.0,0.0,0.0,0.0,0.0,0.0,0.0,0.0,0.0,0.0,0.0,0.0,0.0,0.0,0.0,0.0,0.0,0.0,0.0,0.0,0.0,0.0,0.0,0.0,0.0,0.0,0.0,0.0,0.0,0.0,3.237,3.2241,3.2555,3.2216,3.1141,3.1202,3.1021,0.0,0.0,0.0,0.0,0.0,0.0,0.0,0.0,0.0,0.0,0.0,0.0,0.0,0.0,0.0,0.0,0.0,0.0,0.0,0.0,0.0,0.0,0.0,0.0,0.0,0.0,0.0,0.0,0.0,0.0,0.0,0.0,0.0,0.0,0.0,0.0,0.0,0.0,0.0,0.0,0.0,0.0,0.0,0.0,0.0,0.0,0.0,0.0,0.0,0.0,0.0,0.0,0.0,0.0,0.0,0.0,0.0,0.0,0.0,0.0,0.0,0.0,0.0,0.0,0.0,0.0,0.0,0.0,0.0,0.0,0.0,0.0,0.0,0.0,0.0,0.0,0.0,0.0,0.0,0.0,0.0,0.0,0.0,0.0,0.0,0.0,0.0,0.0,0.0,0.0,0.0,0.0,0.0,0.0,0.0,0.0,0.0,0.0,0.0,0.0,0.0,0.0,0.0,0.0,0.0,0.0,0.0,0.0,3.227,3.2481,3.2966,3.2793,3.1896,3.1349,3.0917,0.0,0.0,0.0,0.0,0.0,0.0,0.0,0.0,0.0,0.0,0.0,0.0,0.0,0.0,0.0,0.0,0.0,0.0,0.0,0.0,0.0,0.0,0.0,0.0,0.0,0.0,0.0,0.0,0.0,0.0,0.0,0.0,0.0,0.0,0.0,0.0,0.0,0.0,0.0,0.0,0.0,0.0,0.0,0.0,0.0,0.0,0.0,0.0,0.0,0.0,0.0,0.0,0.0,0.0,0.0,0.0,0.0,0.0,0.0,0.0,0.0,0.0,0.0,0.0,0.0,0.0,0.0,0.0,0.0,0.0,0.0,0.0,0.0,0.0,0.0,0.0,0.0,0.0,0.0,0.0,0.0,0.0,0.0,0.0,0.0,0.0,0.0,0.0,0.0,0.0,0.0,0.0,0.0,0.0,0.0,0.0,0.0,0.0,0.0,0.0,0.0,0.0,0.0,0.0,0.0,0.0,0.0,0.0,3.273,3.301,3.3246,3.3252,3.3033,3.2531,3.1721,0.0,0.0,0.0,0.0,0.0,0.0,0.0,0.0,0.0,0.0,0.0,0.0,0.0,0.0,0.0,0.0,0.0,0.0,0.0,0.0,0.0,0.0,0.0,0.0,0.0,0.0,0.0,0.0,0.0,0.0,0.0,0.0,0.0,0.0,0.0,0.0,0.0,0.0,0.0,0.0,0.0,0.0,0.0,0.0,0.0,0.0,0.0,0.0,2.6912,0.0,0.0,0.0,0.0,0.0,0.0,0.0,0.0,0.0,0.0,0.0,0.0,0.0,0.0,0.0,0.0,0.0,0.0,0.0,0.0,0.0,0.0,0.0,0.0,0.0,0.0,0.0,0.0,0.0,0.0,0.0,0.0,0.0,0.0,0.0,0.0,0.0,0.0,0.0,0.0,0.0,0.0,0.0,0.0,0.0,0.0,0.0,0.0,0.0,0.0,0.0,0.0,0.0,0.0,0.0,0.0,0.0,0.0,0.0,3.2855,3.341,3.3416,3.3356,3.3247,3.2729,3.196,0.0,0.0,0.0,0.0,0.0,0.0,0.0,0.0,0.0,0.0,0.0,0.0,0.0,0.0,0.0,0.0,0.0,0.0,0.0,0.0,0.0,0.0,0.0,0.0,0.0,0.0,0.0,0.0,0.0,0.0,0.0,0.0,0.0,0.0,0.0,0.0,0.0,0.0,0.0,0.0,0.0,0.0,0.0,0.0,0.0,0.0,0.0,0.0,0.0,0.0,0.0,0.0,0.0,0.0,0.0,0.0,0.0,0.0,0.0,0.0,0.0,0.0,0.0,0.0,0.0,0.0,0.0,0.0,0.0,0.0,0.0,0.0,0.0,0.0,0.0,0.0,0.0,0.0,0.0,0.0,0.0,0.0,0.0,0.0,0.0,0.0,0.0,0.0,0.0,0.0,0.0,0.0,0.0,0.0,0.0,0.0,0.0,0.0,0.0,0.0,0.0,0.0,0.0,0.0,0.0,0.0,0.0,3.2591,3.281,3.3598,3.345,3.3259,3.309,3.2516,3.1951,3.1409,0.0,0.0,0.0,0.0,0.0,0.0,0.0,0.0,0.0,0.0,0.0,0.0,0.0,0.0,0.0,0.0,0.0,0.0,0.0,0.0,0.0,0.0,0.0,0.0,0.0,0.0,0.0,0.0,0.0,0.0,0.0,0.0,0.0,0.0,0.0,0.0,0.0,0.0,2.7528,2.7944,0.0,0.0,0.0,0.0,0.0,0.0,0.0,0.0,2.8826,0.0,0.0,0.0,0.0,0.0,0.0,0.0,0.0,0.0,0.0,0.0,0.0,0.0,0.0,0.0,0.0,0.0,0.0,0.0,0.0,0.0,0.0,0.0,0.0,0.0,0.0,0.0,0.0,0.0,0.0,0.0,0.0,0.0,0.0,0.0,0.0,0.0,0.0,0.0,0.0,0.0,0.0,0.0,0.0,0.0,0.0,0.0,0.0,0.0,0.0,0.0,0.0,0.0,0.0,0.0,0.0,3.249,3.2493,3.2791,3.3437,3.3238,3.3135,3.3101,3.2516,3.1941,3.1409,0.0,0.0,0.0,0.0,0.0,0.0,0.0,0.0,0.0,0.0,0.0,0.0,0.0,0.0,0.0,0.0,0.0,0.0,0.0,0.0,0.0,0.0,0.0,0.0,0.0,0.0,0.0,0.0,0.0,0.0,0.0,0.0,0.0,0.0,0.0,0.0,0.0,0.0,0.0,2.9505,2.9786,0.0,0.0,0.0,0.0,0.0,0.0,0.0,0.0,2.9111,0.0,0.0,0.0,0.0,0.0,0.0,0.0,0.0,0.0,0.0,0.0,0.0,0.0,0.0,0.0,0.0,0.0,0.0,0.0,0.0,0.0,0.0,0.0,0.0,0.0,0.0,0.0,0.0,0.0,0.0,0.0,0.0,0.0,0.0,0.0,0.0,0.0,0.0,0.0,0.0,0.0,0.0,0.0,0.0,0.0,0.0,0.0,0.0,0.0,0.0,0.0,0.0,0.0,0.0,0.0,3.2195,3.2125,3.2517,3.335,3.3197,3.3113,3.3101,3.225,3.165,0.0,0.0,0.0,0.0,0.0,0.0,0.0,0.0,0.0,0.0,0.0,0.0,0.0,0.0,0.0,0.0,0.0,0.0,0.0,0.0,0.0,0.0,0.0,0.0,0.0,0.0,0.0,0.0,0.0,0.0,0.0,0.0,0.0,0.0,0.0,0.0,0.0,0.0,0.0,0.0,2.9656,2.997,2.9443,0.0,0.0,0.0,0.0,0.0,0.0,2.9885,2.964,0.0,0.0,0.0,0.0,0.0,0.0,0.0,0.0,0.0,0.0,0.0,0.0,0.0,0.0,0.0,0.0,0.0,0.0,0.0,0.0,0.0,0.0,0.0,0.0,0.0,0.0,0.0,0.0,0.0,0.0,0.0,0.0,0.0,0.0,0.0,0.0,0.0,0.0,0.0,0.0,0.0,0.0,0.0,0.0,0.0,0.0,0.0,0.0,0.0,0.0,0.0,0.0,0.0,0.0,0.0,3.1989,3.1998,3.2427,3.3296,3.3176,3.3113,3.3101,3.2112,3.1512,0.0,0.0,0.0,0.0,0.0,0.0,0.0,0.0,0.0,0.0,0.0,0.0,0.0,0.0,0.0,0.0,0.0,0.0,0.0,0.0,0.0,0.0,0.0,0.0,0.0,0.0,0.0,0.0,0.0,0.0,0.0,0.0,0.0,0.0,0.0,0.0,0.0,0.0,0.0,0.0,0.0,3.0071,2.9899,3.0254,0.0,0.0,0.0,0.0,3.1135,3.0565,0.0,0.0,0.0,0.0,0.0,0.0,0.0,0.0,0.0,0.0,0.0,0.0,0.0,0.0,0.0,0.0,0.0,0.0,0.0,0.0,0.0,0.0,0.0,0.0,0.0,0.0,0.0,0.0,0.0,0.0,0.0,0.0,0.0,0.0,0.0,0.0,0.0,0.0,0.0,0.0,0.0,0.0,0.0,0.0,0.0,0.0,0.0,0.0,0.0,0.0,0.0,0.0,0.0,0.0,0.0,0.0,3.1775,3.2538,3.2986,3.3133,3.3113,3.3113,3.3113,3.2464,3.1878,0.0,0.0,0.0,0.0,0.0,0.0,0.0,0.0,0.0,0.0,0.0,0.0,0.0,0.0,0.0,0.0,0.0,0.0,0.0,0.0,0.0,0.0,0.0,0.0,0.0,0.0,0.0,0.0,0.0,0.0,0.0,0.0,0.0,0.0,0.0,0.0,0.0,0.0,0.0,0.0,0.0,3.0951,3.0254,3.1046,3.1553,0.0,0.0,0.0,3.1337,3.0899,0.0,0.0,0.0,0.0,0.0,0.0,0.0,0.0,0.0,0.0,0.0,0.0,0.0,0.0,0.0,0.0,0.0,0.0,0.0,0.0,0.0,0.0,0.0,0.0,0.0,0.0,0.0,0.0,0.0,0.0,0.0,0.0,0.0,0.0,0.0,0.0,0.0,0.0,0.0,0.0,0.0,0.0,0.0,0.0,0.0,0.0,0.0,0.0,0.0,0.0,0.0,0.0,0.0,0.0,0.0,3.1329,3.1544,3.2242,3.2753,3.309,3.3113,3.3113,3.3113,3.2225,3.1647,0.0,0.0,0.0,0.0,0.0,0.0,0.0,0.0,0.0,0.0,0.0,0.0,0.0,0.0,0.0,0.0,0.0,0.0,0.0,0.0,0.0,0.0,0.0,0.0,0.0,0.0,0.0,0.0,0.0,0.0,0.0,0.0,0.0,0.0,0.0,0.0,0.0,0.0,0.0,0.0,0.0,0.0,3.0233,3.0947,0.0,0.0,0.0,3.1953,3.2311,0.0,0.0,0.0,0.0,0.0,0.0,0.0,0.0,0.0,0.0,0.0,0.0,0.0,0.0,0.0,0.0,0.0,0.0,0.0,0.0,0.0,0.0,0.0,0.0,0.0,0.0,0.0,0.0,0.0,0.0,0.0,0.0,0.0,0.0,0.0,0.0,0.0,0.0,0.0,0.0,0.0,0.0,0.0,0.0,0.0,0.0,0.0,0.0,0.0,0.0,0.0,0.0,0.0,0.0,0.0,0.0,0.0,3.1256,3.1909,3.2503,3.297,3.3006,3.3015,3.3077,3.2135,0.0,0.0,0.0,0.0,0.0,0.0,0.0,0.0,0.0,0.0,0.0,0.0,0.0,0.0,0.0,0.0,0.0,0.0,0.0,0.0,0.0,0.0,0.0,0.0,0.0,0.0,0.0,2.9864,0.0,0.0,0.0,0.0,0.0,0.0,0.0,0.0,0.0,0.0,0.0,0.0,0.0,0.0,3.0368,3.0443,3.1001,3.1516,0.0,0.0,3.2464,3.2928,3.2506,3.2004,0.0,0.0,0.0,0.0,0.0,0.0,0.0,0.0,0.0,0.0,0.0,0.0,0.0,0.0,0.0,0.0,0.0,0.0,0.0,0.0,0.0,0.0,0.0,0.0,0.0,0.0,0.0,0.0,0.0,0.0,0.0,0.0,0.0,0.0,0.0,0.0,0.0,0.0,0.0,0.0,0.0,0.0,0.0,0.0,0.0,0.0,0.0,0.0,0.0,0.0,0.0,0.0,0.0,0.0,0.0,3.0877,3.1864,3.2491,3.2723,3.2734,3.283,3.3067,3.2491,3.1913,0.0,0.0,0.0,0.0,0.0,0.0,0.0,0.0,0.0,0.0,0.0,0.0,0.0,0.0,0.0,0.0,0.0,0.0,0.0,0.0,0.0,0.0,0.0,0.0,0.0,0.0,0.0,0.0,0.0,0.0,0.0,0.0,0.0,0.0,0.0,0.0,0.0,0.0,0.0,0.0,0.0,3.0838,3.1097,3.1613,3.1956,0.0,0.0,3.2179,3.2658,3.2285,3.1963,3.2123,0.0,0.0,0.0,0.0,0.0,0.0,0.0,0.0,0.0,0.0,0.0,0.0,0.0,0.0,0.0,0.0,0.0,0.0,0.0,0.0,0.0,0.0,0.0,0.0,0.0,0.0,0.0,0.0,0.0,0.0,0.0,0.0,0.0,0.0,0.0,0.0,0.0,0.0,0.0,0.0,0.0,0.0,0.0,0.0,0.0,0.0,0.0,0.0,0.0,0.0,0.0,0.0,0.0,3.0788,3.0811,3.1858,3.2444,3.2495,3.2635,3.2745,3.2853,3.2442,3.2104,0.0,0.0,0.0,0.0,0.0,0.0,0.0,0.0,0.0,0.0,0.0,0.0,0.0,0.0,0.0,0.0,0.0,0.0,0.0,0.0,0.0,0.0,0.0,0.0,0.0,0.0,0.0,0.0,2.957,2.9433,2.9665,0.0,0.0,0.0,0.0,0.0,0.0,0.0,0.0,0.0,0.0,3.1091,3.1189,3.1554,0.0,0.0,3.2223,3.2357,3.3351,3.2778,3.2219,3.2248,3.149,0.0,0.0,0.0,0.0,0.0,0.0,0.0,0.0,0.0,0.0,0.0,0.0,0.0,0.0,0.0,0.0,0.0,0.0,0.0,0.0,0.0,0.0,0.0,0.0,0.0,0.0,0.0,0.0,0.0,0.0,0.0,0.0,0.0,0.0,0.0,0.0,0.0,0.0,0.0,0.0,0.0,0.0,0.0,0.0,0.0,0.0,0.0,0.0,0.0,0.0,0.0,0.0,3.0591,3.0591,3.1641,3.2212,3.2291,3.2408,3.2548,3.2677,3.2475,3.2306,0.0,0.0,0.0,0.0,0.0,0.0,0.0,0.0,0.0,0.0,0.0,0.0,0.0,0.0,0.0,0.0,0.0,0.0,0.0,0.0,0.0,0.0,0.0,0.0,0.0,0.0,0.0,0.0,2.9768,2.9479,2.9128,0.0,0.0,0.0,0.0,0.0,0.0,0.0,0.0,0.0,0.0,3.1238,3.1531,3.1784,3.2184,3.2839,3.2632,3.2686,3.3519,3.3136,3.2706,3.2579,0.0,0.0,0.0,0.0,0.0,0.0,0.0,0.0,0.0,0.0,0.0,0.0,0.0,0.0,0.0,0.0,0.0,0.0,0.0,0.0,0.0,0.0,0.0,0.0,0.0,0.0,0.0,0.0,0.0,0.0,0.0,0.0,0.0,0.0,0.0,0.0,0.0,0.0,0.0,0.0,0.0,0.0,0.0,0.0,0.0,0.0,0.0,0.0,0.0,0.0,0.0,0.0,0.0,0.0,3.0153,3.1197,3.1816,3.2006,3.2027,3.227,3.2694,3.27,3.2557,3.2219,0.0,0.0,0.0,0.0,0.0,0.0,0.0,0.0,0.0,0.0,0.0,0.0,0.0,0.0,0.0,0.0,0.0,0.0,0.0,0.0,0.0,0.0,0.0,0.0,0.0,0.0,3.1241,3.1013,3.0276,0.0,0.0,0.0,0.0,0.0,0.0,0.0,0.0,0.0,0.0,3.0887,3.1309,3.2321,3.2478,3.2682,3.3223,3.3271,3.316,3.2941,3.3255,3.3492,0.0,0.0,0.0,0.0,0.0,0.0,0.0,0.0,0.0,0.0,0.0,0.0,0.0,0.0,0.0,0.0,0.0,0.0,0.0,0.0,0.0,0.0,0.0,0.0,0.0,0.0,0.0,0.0,0.0,0.0,0.0,0.0,0.0,0.0,0.0,0.0,0.0,0.0,0.0,0.0,2.9923,2.9863,0.0,0.0,0.0,0.0,0.0,0.0,0.0,0.0,0.0,0.0,0.0,0.0,3.0275,3.0648,3.1333,3.1897,3.2314,3.2472,3.2787,3.3286,3.359,3.3457,3.2828,0.0,0.0,0.0,0.0,0.0,0.0,0.0,0.0,0.0,0.0,0.0,0.0,0.0,0.0,0.0,0.0,0.0,0.0,0.0,0.0,0.0,0.0,0.0,0.0,0.0,3.0174,0.0,0.0,0.0,0.0,0.0,0.0,0.0,0.0,0.0,0.0,0.0,3.0904,3.138,3.2044,3.2634,3.2983,3.3043,3.32,0.0,0.0,0.0,0.0,0.0,0.0,0.0,0.0,0.0,0.0,0.0,0.0,0.0,0.0,3.1035,3.0852,3.0826,3.0826,3.0826,0.0,0.0,0.0,0.0,0.0,0.0,0.0,0.0,0.0,0.0,0.0,0.0,0.0,0.0,0.0,0.0,2.9855,0.0,0.0,0.0,0.0,0.0,0.0,0.0,0.0,3.0204,3.0383,3.0395,3.0383,3.0287,0.0,3.0086,2.9555,0.0,0.0,0.0,0.0,0.0,0.0,0.0,0.0,3.0636,3.1178,3.1718,3.2237,3.2743,3.2916,3.3163,3.3595,3.4066,3.4083,3.3671,3.3093,3.2541,0.0,0.0,0.0,0.0,0.0,0.0,0.0,0.0,0.0,0.0,0.0,0.0,0.0,0.0,0.0,0.0,0.0,0.0,0.0,0.0,0.0,0.0,0.0,3.051,0.0,0.0,0.0,0.0,0.0,0.0,0.0,0.0,0.0,2.9651,3.0829,3.1838,3.2212,3.2874,3.3356,3.3525,0.0,0.0,0.0,0.0,0.0,0.0,0.0,3.3862,3.397,3.4054,3.4102,3.4114,3.3825,3.3585,3.3573,0.0,0.0,3.2453,3.2248,3.2297,3.2466,3.2635,3.2839,3.3019,3.3211,3.344,0.0,0.0,0.0,0.0,0.0,0.0,0.0,0.0,3.1381,3.1348,0.0,3.1136,0.0,0.0,0.0,0.0,0.0,0.0,0.0,0.0,3.0901,3.0913,3.0925,3.0925,3.0672,3.0192,3.0216,3.0204,3.0194,3.0192,0.0,0.0,0.0,0.0,0.0,0.0,3.1188,3.1706,3.2249,3.2791,3.3296,3.332,3.3436,3.3656,3.408,3.4445,3.4669,3.4187,3.3682,3.3178,3.2554,0.0,0.0,0.0,0.0,0.0,0.0,0.0,0.0,0.0,0.0,0.0,0.0,0.0,0.0,0.0,0.0,0.0,0.0,0.0,0.0,3.1539,0.0,0.0,0.0,0.0,0.0,0.0,0.0,0.0,0.0,0.0,3.1754,3.179,3.2152,3.3175,0.0,0.0,0.0,0.0,3.421,3.4715,3.4811,3.4631,3.415,3.4523,3.4679,3.4186,0.0,0.0,3.5616,3.5616,3.558,3.5616,3.5942,3.5773,3.3777,3.3464,3.3584,3.3982,3.445,3.4991,3.5484,3.5749,3.6183,3.1833,0.0,0.0,0.0,0.0,3.1406,3.1406,3.1406,3.1406,3.1327,3.1186,3.1124,0.0,0.0,0.0,0.0,0.0,0.0,3.0787,3.0925,3.1286,3.1466,3.1488,3.1477,3.1575,3.1816,3.1828,3.2009,3.237,3.2394,3.16,3.011,0.0,0.0,0.0,0.0,3.1731,3.2261,3.2803,3.3308,3.379,3.3802,3.41,3.4701,3.4679,3.4797,3.5052,3.4675,3.4402,3.4237,3.3345,0.0,0.0,0.0,0.0,0.0,0.0,0.0,0.0,0.0,0.0,0.0,0.0,0.0,0.0,0.0,0.0,0.0,0.0,0.0,3.205,3.2212,3.1985,0.0,0.0,0.0,0.0,0.0,0.0,0.0,0.0,0.0,3.32,3.3333,3.3453,0.0,0.0,3.4414,3.4547,3.4559,3.4619,3.4787,0.0,0.0,0.0,3.558,3.5905,3.5737,3.5965,3.6182,3.6182,3.6182,3.6182,3.6169,3.6302,3.6194,3.5689,3.5509,3.5557,3.5701,3.5845,3.5977,3.6133,3.6314,3.6423,3.2059,3.1813,3.1782,3.1803,3.179,3.1803,3.179,3.178,3.179,3.1742,3.1605,3.1487,3.1373,3.1202,3.1012,0.0,0.0,0.0,3.1334,3.1551,3.1875,3.2128,3.2321,3.2321,3.249,3.2815,3.2815,3.2995,3.3296,3.3296,3.2658,3.1407,0.0,0.0,3.1863,3.2176,3.2586,3.3081,3.3417,3.3814,3.4306,3.433,3.4607,3.515,3.5038,3.5141,3.5495,3.5111,3.4926,3.5005,3.4211,3.3544,0.0,0.0,0.0,0.0,0.0,0.0,0.0,0.0,0.0,0.0,0.0,2.9801,3.0526,0.0,0.0,0.0,3.1605,3.2251,3.2778,3.2815,0.0,0.0,0.0,0.0,0.0,0.0,0.0,3.1948,3.237,3.2948,3.3886,3.4366,3.4547,3.4354,3.4775,3.5111,3.5124,0.0,3.5436,3.5436,3.5713,3.5917,3.5917,3.6181,3.6459,3.6699,3.6723,3.6819,3.7,3.7024,3.7037,3.7024,3.7024,3.7024,3.7049,3.7024,3.6965,3.6746,3.6711,3.6783,3.7001,3.7049,3.7037,3.2125,3.2356,3.2382,3.2404,3.2411,3.2411,3.2411,3.2411,3.2411,3.2377,3.2356,3.2114,3.2018,3.2032,3.1903,0.0,0.0,3.1587,3.2092,3.2563,3.2563,3.2827,3.3307,3.3284,3.3308,3.3344,3.3344,3.338,3.3428,3.3416,3.3416,3.3416,3.3416,3.3368,3.3308,3.3344,3.3573,3.3994,3.4042,3.4306,3.4787,3.4799,3.4908,3.5163,3.5187,3.5428,3.5896,3.5472,3.5303,3.5476,3.501,3.4257,3.3312,0.0,0.0,0.0,0.0,0.0,0.0,0.0,0.0,0.0,0.0,0.0,0.0,0.0,0.0,0.0,3.2766,0.0,3.3344,3.3344,0.0,0.0,0.0,3.237,3.1887,3.2285,3.2599,3.2683,0.0,0.0,0.0,0.0,3.5484,3.4991,3.5364,3.5665,3.5677,3.6049,3.6411,3.635,3.641,3.6446,3.6471,3.6555,3.6771,3.7193,3.7265,3.7434,3.7831,3.7939,3.7988,3.794,3.7988,3.7999,3.8047,3.8023,3.7927,3.753,3.7337,3.7409,3.7903,3.8023,3.8035,3.1793,3.1897,3.2309,3.2438,3.2411,3.2411,3.2411,3.2411,3.2411,3.2279,3.2092,3.2027,3.2136,3.2401,3.2765,3.2839,3.2742,3.2874,3.2983,3.3115,3.3104,3.3175,3.3296,3.3296,3.3489,3.3814,3.3838,3.403,3.4438,3.4438,3.4438,3.4426,3.4438,3.4066,3.3356,3.3657,3.3886,3.3994,3.4402,3.4679,3.4787,3.4799,3.4823,3.4896,3.5102,3.5259,3.538,3.5474,3.5531,3.5566,3.506,3.4652,3.4404,3.3602,0.0,0.0,0.0,0.0,0.0,0.0,0.0,0.0,0.0,3.1587,3.1955,0.0,3.2911,0.0,3.3477,3.3838,3.3838,3.3826,0.0,0.0,3.3321,3.3056,3.2934,3.3043,3.3393,3.4162,3.4475,3.4943,3.5737,3.6049,3.6169,3.6037,3.6109,3.6218,3.623,3.629,3.6411,3.6459,3.6759,3.7,3.7024,3.7374,3.7626,3.7782,3.7808,3.7855,3.7963,3.8,3.8,3.8,3.8,3.8155,3.8539,3.861,3.8743,3.89,3.8383,3.7975,3.8491,3.861,3.8718,3.2417,3.2452,3.2742,3.2831,3.2801,3.2789,3.2789,3.28,3.2812,3.2721,3.2586,3.2587,3.2688,3.2875,3.3152,3.3296,3.3296,3.3296,3.3405,3.3609,3.3609,3.3729,3.3958,3.397,3.409,3.4354,3.4354,3.4499,3.4799,3.4799,3.4799,3.4799,3.4799,3.4511,3.3994,3.4234,3.4366,3.4366,3.4643,3.4799,3.4799,3.4799,3.4799,3.4799,3.4945,3.5078,3.5187,3.5332,3.5488,3.5584,3.5302,3.5031,3.481,3.4245,3.3655,0.0,0.0,0.0,0.0,0.0,0.0,0.0,0.0,0.0,0.0,0.0,3.3705,0.0,3.421,0.0,3.4366,3.4583,3.4703,3.4703,3.4703,3.4679,3.4691,3.4679,3.4895,3.5448,3.5508,3.5737,3.6338,3.6615,3.6772,3.6759,3.6952,3.7024,3.6819,3.6952,3.7108,3.7145,3.7361,3.7566,3.7554,3.7807,3.8,3.8,3.8,3.8,3.8012,3.819,3.8359,3.8371,3.8552,3.8805,3.909,3.9164,3.9271,3.9415,3.914,3.8876,3.909,3.9163,3.9259,3.3296,3.3308,3.3368,3.3404,3.3392,3.3464,3.3428,3.3296,3.3296,3.3296,3.3296,3.3368,3.3392,3.3392,3.3464,3.3488,3.35,3.35,3.3717,3.409,3.4102,3.4342,3.4787,3.4799,3.4799,3.4799,3.4799,3.4799,3.4799,3.4799,3.4799,3.4799,3.4799,3.4835,3.4907,3.4883,3.4871,3.4799,3.4799,3.4799,3.4799,3.4799,3.4799,3.4799,3.4799,3.4908,3.5138,3.5163,3.5247,3.5488,3.5549,3.5365,3.4827,3.479,3.4569,0.0,3.3444,0.0,0.0,0.0,0.0,0.0,0.0,0.0,0.0,3.3874,3.4438,3.4967,3.5003,3.5003,3.4991,3.5424,3.5713,3.5725,3.6109,3.6411,3.6398,3.6411,3.6423,3.6507,3.6506,3.6519,3.6638,3.7037,3.7288,3.7337,3.7638,3.7746,3.7446,3.7662,3.7903,3.8,3.8,3.7927,3.7952,3.7963,3.8023,3.8083,3.8143,3.8118,3.8252,3.8611,3.891,3.8933,3.9235,3.9573,3.9681,3.9705,3.9741,3.9862,3.9838,3.9789,3.9729,3.9705,3.9715,3.3296,3.332,3.3705,3.385,3.3898,3.4342,3.4042,3.3296,3.3296,3.3296,3.332,3.3681,3.3874,3.3898,3.433,3.4511,3.4511,3.4523,3.4559,3.4667,3.4655,3.4703,3.4799,3.4799,3.4799,3.4799,3.4799,3.4799,3.4799,3.4799,3.4799,3.4799,3.4799,3.5027,0.0,0.0,0.0,0.0,3.4799,3.4799,3.4799,3.4799,3.4799,3.4799,3.4799,0.0,3.4872,3.4884,3.4896,3.4969,3.5367,0.0,0.0,0.0,0.0,0.0,0.0,0.0,0.0,0.0,0.0,0.0,3.427,3.4114,3.3922,3.4739,3.5532,3.6037,3.611,3.6097,3.611,3.6169,3.6254,3.6266,3.635,3.6411,3.6411,3.6423,3.6555,3.7,3.7048,3.7229,3.759,3.7795,3.7844,3.7819,3.794,3.7963,3.7868,3.7915,3.8,3.8,3.7999,3.8012,3.8,3.8036,3.8238,3.8503,3.8646,3.8802,3.9164,3.9345,3.9439,3.9439,3.9549,3.9777,4.0162,4.0234,4.0381,4.0802,4.0874,4.0766,4.0343,4.0246,4.0381,3.4054,0.0,3.4294,3.4402,0.0,3.4679,3.4511,3.4042,3.403,3.4054,3.4054,3.4306,3.439,3.4414,3.4679,3.4799,3.4799,3.4799,3.4799,3.4799,3.4799,3.4799,3.4799,3.4799,3.4931,3.5196,3.5208,3.5328,3.558,3.5592,3.5604,3.5592,3.5592,3.5725,3.599,3.6002,3.5857,3.558,3.5592,3.5592,3.558,3.5592,3.5592,3.5592,0.0,0.0,0.0,0.0,0.0,0.0,0.0,0.0,0.0,0.0,0.0,3.5208,3.4968,3.4823,3.4823,3.4847,3.504,3.5544,3.558,3.5472,3.5208,3.5689,3.611,3.6362,3.6411,3.6411,3.6411,3.6639,3.6808,3.6807,3.7024,3.718,3.718,3.7192,3.7301,3.7518,3.759,3.771,3.7951,3.8,3.8,3.8,3.8,3.8012,3.8,3.8,3.8,3.8012,3.8238,3.8407,3.8431,3.8635,3.8853,3.9152,3.9199,3.932,3.9547,3.9826,3.9994,4.0018,4.0198,4.0487,4.0691,4.0802,4.0886,4.1114,4.1199,4.1126,4.0836,4.0787,4.0862,3.5087,3.5087,3.5063,3.5087,3.5087,3.5087,3.5087,3.5075,0.0,0.0,0.0,3.4799,3.4799,3.4799,3.4799,3.4847,3.4931,3.4943,3.4991,3.5087,3.5087,3.5075,3.5075,3.5087,3.5304,3.5724,3.5737,3.5978,3.6398,3.6411,3.6411,3.6411,3.6411,3.6434,3.6543,3.6639,3.6674,3.6675,3.6494,3.6411,3.6411,3.6411,3.6411,3.6411,3.6411,3.6411,3.6411,3.6411,3.6411,3.6411,3.6482,3.6495,3.6398,3.6483,3.6507,3.6411,3.6411,3.6411,3.6411,3.6411,3.6447,3.6543,3.6627,3.6639,3.6555,3.6543,3.6591,3.6687,3.6675,3.67,3.6687,3.7073,3.7337,3.7349,3.7734,3.7988,3.7988,3.8,3.7952,3.8,3.7963,3.8,3.7987,3.8,3.806,3.8119,3.8191,3.8217,3.8252,3.8252,3.824,3.8396,3.8719,3.896,3.9006,3.926,3.9621,3.9703,3.9727,3.9777,3.9922,4.0234,4.0499,4.0549,4.0934,4.1126,4.1187,4.1163,4.1235,4.1319,4.1343,4.1379,4.1466,4.1487,4.1475,3.6169,3.6169,3.6169,3.6182,3.6169,3.6169,3.6182,3.6097,3.5195,3.4799,3.4799,3.4799,3.4799,3.4799,3.4799,3.5039,3.5484,3.5484,3.5737,0.0,3.6194,3.6169,3.6169,3.6169,3.6218,3.629,3.6266,3.6326,3.6398,3.6423,3.6411,3.6423,3.6411,3.6639,3.7084,3.7542,3.777,3.7758,3.6855,3.6411,3.6411,3.6411,3.6411,3.6411,3.6423,3.6411,3.6411,3.6423,3.6411,3.6423,3.6843,3.6879,3.6446,3.6856,3.6879,3.6447,3.6411,3.6411,3.6411,3.6411,3.659,3.7073,3.7518,3.7578,3.7145,3.7085,3.7276,3.771,3.7722,3.777,3.7782,3.782,3.7843,3.7867,3.7951,3.8,3.8,3.8,3.8012,3.8048,3.8,3.8023,3.8096,3.8072,3.8264,3.8587,3.8682,3.8852,3.9152,3.897,3.891,3.926,3.9427,3.9501,3.9499,3.9523,3.985,4.0222,4.0297,4.0403,4.0778,4.0934,4.103,4.1066,4.1163,4.1235,4.1235,4.1199,4.1439,4.1791,4.1899,4.2007,4.2371,4.2477,4.238,3.6411,3.6411,3.6411,3.6411,3.6411,3.6411,3.6411,3.6374,3.5893,3.5664,3.5677,3.5665,3.5665,3.5652,3.5677,3.5797,3.6025,3.6037,3.6157,3.6398,3.6411,3.6411,3.6411,3.6411,3.6542,3.6832,3.6843,3.6988,3.7253,3.7277,3.7264,3.7264,3.7277,3.7386,3.7626,3.7879,3.8,3.8,3.7518,3.7265,3.7277,3.7277,3.7265,3.7277,3.7277,3.7264,3.7277,3.7277,3.7277,3.7277,3.7506,3.7517,3.7288,3.7506,3.753,3.7289,3.7265,3.7277,3.7277,3.7277,3.7386,3.7614,3.7855,3.7916,3.7662,3.7626,3.7721,3.7963,3.8,3.8,3.8,3.8,3.8,3.8,3.8,3.8,3.8,3.8,3.8121,3.8371,3.8431,3.8539,3.8841,3.8877,3.8924,3.9187,3.9235,3.9451,3.9946,3.9824,3.9631,3.9631,3.9851,4.0032,4.0042,4.0282,4.0547,4.0814,4.0838,4.0922,4.1175,4.1211,4.1211,4.1223,4.143,4.1608,4.1632,4.1887,4.2152,4.2323,4.2443,4.2576,4.2768,4.2994,4.2991,3.6746,3.6759,3.6771,3.6759,3.6746,3.6759,3.6759,3.6759,3.6771,3.6772,3.6735,3.6518,3.6411,3.6411,3.6411,3.6446,3.6567,3.6579,3.6638,3.6747,3.6759,3.6759,3.6746,3.6759,3.6976,3.7349,3.7372,3.759,3.7951,3.8,3.8,3.8,3.8,3.8,3.8,3.8,3.8,3.8,3.8,3.8,3.8,3.8,3.8,3.8,3.8,3.8,3.8,3.8,3.8,3.8,3.8,3.8,3.8,3.8,3.8,3.8,3.8,3.8,3.8,3.8,3.8,3.8,3.8,3.8,3.8012,3.8119,3.8119,3.8023,3.8,3.8,3.8,3.8,3.8035,3.8143,3.8179,3.8276,3.8334,3.836,3.8503,3.891,3.8982,3.915,3.9489,3.9609,3.9633,3.9741,3.9872,4.015,4.0487,4.0571,4.0379,4.0172,4.0319,4.0561,4.0595,4.0872,4.1126,4.1199,4.1187,4.1235,4.1331,4.1391,4.1475,4.161,4.1923,4.2152,4.2224,4.2464,4.2753,4.2886,4.2931,4.3018,4.3207,4.3469,4.3574,3.7831,3.7843,3.7808,3.7868,3.7807,3.7819,3.7795,3.782,3.7831,3.7855,3.7698,3.6831,3.6447,3.6411,3.6447,3.6699,3.7108,3.712,3.736,3.7782,3.7843,3.7856,3.7795,3.7819,3.788,3.7916,3.7891,3.7916,3.8,3.8,3.8,3.8,3.8,3.8,3.8,3.8,3.8,3.8,3.8,3.8,3.8,3.8,3.8,3.8,3.8,3.8,3.8,3.8,3.8,3.8,3.8,3.8,3.7987,3.7987,3.7999,3.7974,3.7987,3.8,3.7987,3.8,3.7998,3.8,3.8047,3.8047,3.8071,3.8467,3.8527,3.8179,3.8036,3.8084,3.8,3.8047,3.8288,3.867,3.8718,3.8896,3.9284,3.9451,3.9477,3.9499,3.9537,3.9561,3.9705,3.9741,3.9862,4.0282,4.0645,4.0898,4.1006,4.1042,4.1042,4.1006,4.1102,4.1102,4.1102,4.1139,4.1235,4.1223,4.1211,4.1442,4.1755,4.1947,4.2031,4.2299,4.2609,4.2705,4.2717,4.2789,4.2991,4.3349,4.3466,4.3562,4.3991,4.4148,4.4112,3.8,3.8,3.8,3.8,3.8,3.8,3.8,3.8,3.8,3.8,3.7964,3.753,3.7336,3.7349,3.7349,3.7482,3.7662,3.7674,3.7796,3.7987,3.8,3.8,3.8,3.8,3.8,3.8,3.8,3.8,3.8,3.8,3.8,3.8,3.8,3.8,3.8,3.8,3.8,3.8,3.8,3.8,3.8,3.8,3.8,3.8,3.8,3.8,3.8,3.8,3.8,3.8,3.8,3.7919,3.7771,3.7771,3.7665,3.7493,3.748,3.7467,3.748,3.7739,3.8024,3.8211,3.8486,3.872,3.8934,3.9138,3.9176,3.8996,3.8936,3.8948,3.8924,3.8948,3.903,3.9223,3.9271,3.9367,3.9561,3.9621,3.9705,4.0006,4.0066,4.0198,4.0463,4.0549,4.0645,4.0862,4.1102,4.1211,4.1211,4.1199,4.1199,4.1235,4.1439,4.1499,4.1307,4.1199,4.1331,4.1572,4.1682,4.1863,4.2296,4.2464,4.2561,4.2804,4.3054,4.3207,4.322,4.3517,4.3778,4.3943,4.3967,4.4051,4.4264,4.43,4.4316,3.8,3.8,3.8,3.8,3.8,3.8,3.8,3.8,3.8,3.8,3.8,3.8,3.8,3.8,3.8,3.8,3.8,3.8,3.8,3.8,3.8,3.8,3.8,3.8,3.8,3.8,3.8,3.8,3.8,3.8,3.8,3.8,3.8,3.8,3.8,3.8,3.8,3.8,3.8,3.8,3.8,3.8,3.8,3.8,3.8,3.8,3.8,3.8,3.8,3.8,3.7933,3.7799,3.7597,3.7517,3.7375,3.7219,3.7239,3.7271,3.7269,3.7729,3.8077,3.8331,3.8757,3.9127,3.9401,3.9579,3.973,3.9813,3.9932,3.997,3.9621,3.9609,3.9657,3.9789,3.9826,3.9862,4.003,4.0042,4.021,4.0535,4.0621,4.0754,4.1102,4.1151,4.1139,4.1163,4.1333,4.1415,4.1451,4.156,4.1682,4.1644,4.1995,4.1959,4.1548,4.1658,4.1827,4.2046,4.2239,4.2392,4.2862,4.2955,4.3147,4.3424,4.3586,4.3694,4.3715,4.4075,4.4268,4.4304,4.4288,4.4264,4.43,4.4316,4.4316,3.8,3.8,3.8,3.8,3.8,3.8,3.8,3.8,3.8,3.8,3.8,3.8,3.8,3.8,3.8,3.8,3.8,3.8,3.8,3.8,3.8,3.8,3.8,3.8,3.8,3.8,3.8,3.8,3.8,3.8,3.8,3.8,3.8,3.8,3.8,3.8,3.8,3.8,3.8,3.8,3.8,3.8,3.8,3.8,3.8,3.8,3.8,3.8,3.8012,3.8012,3.7794,3.7658,3.7605,3.7298,3.7183,3.7326,3.7515,3.7627,3.7632,3.7915,3.8182,3.8264,3.8594,3.888,3.9308,3.9697,4.0063,4.0353,4.0754,4.0631,3.9872,3.9813,3.992,4.0306,4.0367,4.0585,4.1018,4.0958,4.1114,4.1126,4.1139,4.1235,4.1259,4.1199,4.1333,4.1418,4.1682,4.1971,4.2005,4.2383,4.2564,4.2597,4.2633,4.2573,4.214,4.2202,4.2539,4.2744,4.2789,4.2907,4.3216,4.3514,4.3778,4.3983,4.4063,4.416,4.4228,4.4276,4.4288,4.4316,4.4316,4.4316,4.4316,4.4316,4.4316,3.8,3.8,3.8,3.8,3.8,3.8,3.8,3.8,3.8,3.8,3.8,3.8,3.8,3.8,3.8,3.8,3.8,3.8,3.8,3.8,3.8,3.8,3.8,3.8,3.8,3.8,3.8,3.8,3.8,3.8,3.8,3.8,3.8,3.8,3.8,3.8,3.8,3.8,3.8,3.8,3.8,3.8,3.8,3.8,3.8,3.8,3.8,3.8,3.8155,3.8503,3.8218,3.8034,3.7902,3.7118,3.6678,3.6756,3.6836,3.6871,3.6945,3.7462,3.7993,3.839,3.8831,3.9385,3.999,4.0304,4.0567,4.0872,4.1066,4.097,4.0778,4.0633,4.0705,4.0848,4.0922,4.1006,4.1139,4.1199,4.1199,4.1247,4.1475,4.1812,4.2079,4.2212,4.2224,4.2251,4.2407,4.2503,4.2539,4.2708,4.285,4.2862,4.3039,4.3195,4.3024,4.2801,4.2876,4.3138,4.3316,4.3529,4.3787,4.3919,4.4136,4.4136,4.4292,4.43,4.4288,4.4288,4.4316,4.4316,4.4316,4.4316,4.4316,4.4316,4.4316,3.8,3.8,3.8,3.8,3.8,3.8,3.8,3.8,3.8,3.8,3.8,3.8,3.8,3.8,3.8,3.8,3.8,3.8,3.8,3.8,3.8,3.8,3.8,3.8,3.8,3.8,3.8,3.8,3.8,3.8,3.8,3.8,3.8,3.8,3.8,3.8,3.8,3.8,3.8,3.8,3.8011,3.8179,3.825,3.8274,3.8419,3.8432,3.8288,3.842,3.8605,3.8819,3.8594,3.8235,3.7718,3.6927,3.6417,3.633,3.6392,3.6442,3.6608,3.7178,3.7813,3.8415,3.8891,3.9532,4.0404,4.0676,4.0992,4.1347,4.1644,4.1716,4.1718,4.1718,4.1658,4.1535,4.161,4.1692,4.1704,4.1728,4.174,4.1815,4.2055,4.2404,4.272,4.2753,4.2756,4.2777,4.291,4.303,4.3015,4.3195,4.3292,4.3316,4.3574,4.3727,4.3679,4.3553,4.3469,4.3685,4.3721,4.3967,4.4112,4.4256,4.4316,4.4316,4.4316,4.4316,4.4316,4.4316,4.4316,4.4316,4.4316,4.4316,4.4316,4.4316,4.4316,3.8,3.8,3.8,3.8,3.8,3.8,3.8,3.8,3.8,3.8,3.8,3.8,3.8,3.8,3.8,3.8,3.8,3.8,3.8,3.8,3.8,3.8,3.8,3.8,3.8,3.8,3.8,3.8,3.8,3.8,3.8,3.8,3.8,3.8,3.8,3.8,3.7999,3.8059,3.8083,3.8084,3.8083,3.8563,3.8815,3.8862,3.9271,3.9319,3.8886,3.9271,3.9363,3.912,3.8839,3.8109,3.714,3.6655,3.6438,3.6183,3.6292,3.6516,3.6842,3.7205,3.7743,3.8406,3.872,3.9383,4.0343,4.0819,4.1307,4.1935,4.238,4.2681,4.2669,4.2693,4.2525,4.2152,4.2356,4.2597,4.2684,4.2744,4.278,4.2744,4.2777,4.2801,4.284,4.297,4.303,4.3075,4.328,4.3529,4.355,4.3823,4.4168,4.422,4.4136,4.41,4.4208,4.4292,4.4268,4.4268,4.4196,4.4256,4.4244,4.4316,4.4316,4.4316,4.4316,4.4316,4.4316,4.4316,4.4316,4.4316,4.4316,4.4316,4.4316,4.4316,4.4316,3.8,3.8,3.8,3.8,3.8,3.8,3.8,3.8,3.8,3.8,3.8,3.8,3.8,3.8,3.8,3.8,3.8,3.8,3.8,3.8,3.8,3.8,3.8,3.8,3.8,3.8,3.8,3.8,3.8,3.8,3.8,3.8,3.8,3.8,3.8024,3.8012,3.8155,3.8501,3.8551,3.8719,3.9056,3.9247,3.9329,3.9403,3.9862,4.0054,3.9908,3.9703,3.9613,3.9627,3.9169,3.8389,3.7344,3.6527,3.6093,3.5971,3.6026,3.6198,3.6598,3.7197,3.7942,3.8736,3.9249,4.0076,4.1091,4.1445,4.1851,4.243,4.272,4.2777,4.2837,4.3111,4.3063,4.2612,4.2693,4.285,4.2874,4.2837,4.2958,4.3232,4.3292,4.3433,4.3734,4.3802,4.3742,4.3754,4.3907,4.4015,4.4075,4.4144,4.4288,4.4316,4.4316,4.4316,4.4316,4.4316,4.4316,4.4316,4.4316,4.4316,4.4316,4.4316,4.4316,4.4316,4.4316,4.4316,4.4316,4.4316,4.4316,4.4316,4.4316,4.4316,4.4316,4.4316,4.4316,3.8293,3.8139,3.8246,3.8179,3.8012,3.8,3.8,3.8,3.8,3.8,3.8,3.8,3.8,3.8,3.8,3.8,3.8,3.8,3.8,3.8,3.8,3.8,3.8,3.8,3.8,3.8,3.8,3.8,3.8,3.8,3.8,3.8012,3.8203,3.8298,3.8336,3.8503,3.8778,3.9054,3.9102,3.9259,3.9559,3.9801,3.9898,3.9968,4.0415,4.0681,4.0681,4.0242,4.0006,3.9854,3.9134,3.8151,3.7236,3.6391,3.5933,3.5966,3.6024,3.6247,3.6861,3.7548,3.8279,3.9207,3.9877,4.062,4.1606,4.2,4.2547,4.2943,4.328,4.3352,4.3421,4.3598,4.3634,4.3409,4.3388,4.3364,4.3349,4.3349,4.3469,4.3754,4.3799,4.3979,4.4208,4.4316,4.4316,4.4316,4.4316,4.4316,4.4316,4.4304,4.4316,4.4316,4.4316,4.4316,4.4316,4.4316,4.4316,4.4316,4.4316,4.4316,4.4316,4.4316,4.4316,4.4316,4.4316,4.4316,4.4316,4.4316,4.4316,4.4316,4.4316,4.4316,4.4316,4.4316,4.4316,3.8779,3.8377,3.8663,3.8484,3.8067,3.807,3.8072,3.8,3.8,3.8,3.8,3.8,3.8,3.8,3.8,3.8,3.8,3.8,3.8,3.8,3.8,3.8,3.8,3.8,3.8,3.8,3.8,3.8035,3.8131,3.8131,3.8072,3.8264,3.8659,3.8836,3.891,3.9357,3.9525,3.9607,3.9657,3.9681,3.9813,4.0198,4.0427,4.0465,4.0874,4.1126,4.1059,4.0681,4.0355,3.9963,3.8625,3.7578,3.6937,3.6275,3.5993,3.6148,3.6168,3.674,3.7572,3.8175,3.8875,3.9839,4.0553,4.1176,4.2007,4.2715,4.3196,4.3528,4.3907,4.4192,4.4208,4.4216,4.4204,4.4264,4.4124,4.4148,4.428,4.4216,4.4184,4.422,4.4304,4.43,4.43,4.43,4.4316,4.4316,4.4316,4.4316,4.4316,4.4316,4.4316,4.4316,4.4316,4.4316,4.4316,4.4316,4.4316,4.4316,4.4316,4.4316,4.4316,4.4316,4.4316,4.4316,4.4316,4.4316,4.4316,4.4316,4.4316,4.4316,4.4316,4.4316,4.4316,4.4316,4.4316,3.8722,3.862,3.89,3.8714,3.83,3.8466,3.8359,3.8023,3.8011,3.8046,3.8012,3.8,3.8011,3.8,3.8,3.8,3.8023,3.8011,3.8,3.8,3.8,3.8,3.8,3.8012,3.8036,3.806,3.8107,3.8203,3.8561,3.8586,3.8766,3.9176,3.9272,3.9393,3.9439,3.9573,3.9826,4.0126,4.0186,4.0379,4.0718,4.0862,4.0982,4.1006,4.1126,4.1211,4.1127,4.0438,3.9755,3.9126,3.7894,3.7164,3.7015,3.6436,3.6237,3.6583,3.6852,3.7202,3.7875,3.8737,3.9694,4.0679,4.1439,4.231,4.3194,4.3455,4.3767,4.4034,4.424,4.4316,4.4316,4.4316,4.4316,4.4316,4.4316,4.4316,4.4316,4.4316,4.4316,4.4316,4.4316,4.4316,4.4316,4.4316,4.4316,4.4316,4.4316,4.4316,4.4316,4.4316,4.4316,4.4316,4.4316,4.4316,4.4316,4.4316,4.4316,4.4316,4.4316,4.4316,4.4316,4.4316,4.4316,4.4316,4.4316,4.4316,4.4316,4.4316,4.4316,4.4316,4.4316,4.4316,4.4316,4.4316,4.4316,3.8694,3.8641,3.8927,3.8818,3.8507,3.866,3.8621,3.8467,3.846,3.8421,3.8356,3.8322,3.8202,3.8024,3.8,3.813,3.831,3.8334,3.848,3.8671,3.8695,3.8575,3.8419,3.8334,3.8456,3.8673,3.8647,3.8852,3.909,3.9126,3.9319,3.9559,3.9838,3.9934,3.997,4.0198,4.0403,4.0667,4.0742,4.091,4.1175,4.1199,4.1199,4.1199,4.1196,4.1187,4.1013,4.0184,3.9383,3.8638,3.7752,3.7191,3.7128,3.6697,3.6618,3.7085,3.7407,3.7857,3.8632,3.9572,4.0542,4.1481,4.2309,4.3016,4.3638,4.3907,4.4121,4.4245,4.43,4.4316,4.4316,4.4316,4.4316,4.4316,4.4316,4.4316,4.4316,4.4316,4.4316,4.4316,4.4316,4.4316,4.4316,4.4316,4.4316,4.4316,4.4316,4.4316,4.4316,4.4316,4.4316,4.4316,4.4316,4.4316,4.4316,4.4316,4.4316,4.4316,4.4316,4.4316,4.4316,4.4316,4.4316,4.4316,4.4316,4.4316,4.4316,4.4316,4.4316,4.4316,4.4316,4.4316,4.4316,4.4316,4.4316,3.8566,3.8457,3.8781,3.882,3.8613,3.8704,3.879,3.8941,3.8939,3.8889,3.8755,3.8764,3.8522,3.8127,3.8253,3.8426,3.8872,3.8886,3.9152,3.9357,3.9441,3.9283,3.9078,3.8922,3.9092,3.9393,3.9573,3.9609,3.9657,3.9667,3.9739,3.9982,4.0333,4.0451,4.0535,4.091,4.1151,4.1126,4.1114,4.1114,4.1187,4.1199,4.1199,4.1196,4.1254,4.1175,4.0843,4.0141,3.9359,3.871,3.7992,3.7564,3.7354,3.707,3.7186,3.7636,3.8073,3.8709,3.9639,4.0445,4.1317,4.2227,4.2922,4.3486,4.3845,4.4118,4.4269,4.43,4.4316,4.4316,4.4316,4.4316,4.4316,4.4316,4.4316,4.4316,4.4316,4.4316,4.4316,4.4316,4.4316,4.4316,4.4316,4.4316,4.4316,4.4316,4.4316,4.4316,4.4316,4.4316,4.4316,4.4316,4.4316,4.4316,4.4316,4.4316,4.4316,4.4316,4.4316,4.4316,4.4316,4.4316,4.4316,4.4316,4.4316,4.4316,4.4316,4.4316,4.4316,4.4316,4.4316,4.4316,4.4316,4.4316,4.4316,3.7831,3.8041,3.8331,3.8332,3.8254,3.8683,3.8716,3.8451,3.8702,3.879,3.8733,3.8735,3.8767,3.8832,3.8786,3.9073,3.9387,3.9437,3.9511,3.9561,3.9609,3.9826,3.9848,3.9667,3.9537,3.9669,3.9633,3.9838,4.0114,4.0246,4.0453,4.0814,4.0826,4.1004,4.1042,4.109,4.1199,4.1199,4.1199,4.1199,4.1199,4.1199,4.1211,4.1242,4.1351,4.1279,4.0956,4.0437,3.9996,3.9475,3.8551,3.7891,3.7833,3.7565,3.7719,3.8356,3.8985,3.9573,4.0241,4.1238,4.215,4.268,4.3283,4.3845,4.4149,4.4238,4.4316,4.4316,4.4316,4.4316,4.4316,4.4316,4.4316,4.4316,4.4316,4.4316,4.4316,4.4316,4.4316,4.4316,4.4316,4.4316,4.4316,4.4316,4.4316,4.4316,4.4316,4.4316,4.4316,4.4316,4.4316,4.4316,4.4316,4.4316,4.4316,4.4316,4.4316,4.4316,4.4316,4.4316,4.4316,4.4316,4.4316,4.4316,4.4316,4.4316,4.4316,4.4316,4.4316,4.4316,4.4316,4.4316,4.4316,4.4316,4.4316,3.7128,3.7445,3.7594,3.7765,3.8007,3.8341,3.8486,3.8516,3.8666,3.8771,3.8839,3.8847,3.8873,3.8916,3.9058,3.9308,3.9784,4.019,4.0355,4.0393,4.0393,4.0511,4.0655,4.0523,4.0343,4.0343,4.0367,4.0535,4.0718,4.0778,4.0896,4.1175,4.1199,4.1163,4.1199,4.1199,4.1199,4.1199,4.1199,4.1199,4.1199,4.1199,4.1367,4.1477,4.155,4.1511,4.1667,4.1011,4.0597,4.0147,3.9303,3.8626,3.8523,3.8286,3.8477,3.9102,3.9642,4.0328,4.104,4.1783,4.2562,4.3204,4.3627,4.3935,4.4211,4.4316,4.4316,4.4316,4.4316,4.4316,4.4316,4.4316,4.4316,4.4316,4.4316,4.4316,4.4316,4.4316,4.4316,4.4316,4.4316,4.4316,4.4316,4.4316,4.4316,4.4316,4.4316,4.4316,4.4316,4.4316,4.4316,4.4316,4.4316,4.4316,4.4316,4.4316,4.4316,4.4316,4.4316,4.4316,4.4316,4.4316,4.4316,4.4316,4.4316,4.4316,4.4316,4.4316,4.4316,4.4316,4.4316,4.4316,4.4316,4.4316,4.4316,3.6386,3.6757,3.6757,3.7102,3.7637,3.7721,3.8003,3.841,3.8563,3.8553,3.8798,3.8828,3.8732,3.8875,3.9057,3.9439,4.0007,4.0619,4.0875,4.0889,4.099,4.104,4.1102,4.1066,4.1042,4.1199,4.109,4.1126,4.1139,4.1199,4.1126,4.1199,4.1199,4.1199,4.1199,4.1199,4.1199,4.1199,4.1199,4.1199,4.1199,4.1211,4.1451,4.179,4.1968,4.2005,4.2142,4.1675,4.1115,4.0873,4.0187,3.9729,3.944,3.91,3.9117,3.9773,4.0285,4.0955,4.1671,4.2325,4.2988,4.3755,4.3876,4.4013,4.4238,4.4316,4.4316,4.4316,4.4316,4.4316,4.4316,4.4316,4.4316,4.4316,4.4316,4.4316,4.4316,4.4316,4.4316,4.4316,4.4316,4.4316,4.4316,4.4316,4.4316,4.4316,4.4316,4.4316,4.4316,4.4316,4.4316,4.4316,4.4316,4.4316,4.4316,4.4316,4.4316,4.4316,4.4316,4.4316,4.4316,4.4316,4.4316,4.4316,4.4316,4.4316,4.4316,4.4316,4.4316,4.4316,4.4316,4.4316,4.4316,4.4316,4.4316,3.5484,3.6075,3.6075,3.6294,3.6667,3.6935,3.7162,3.7257,3.7544,3.7808,3.8063,3.8093,3.8489,3.898,3.9208,3.9573,4.0087,4.0574,4.0781,4.0838,4.1012,4.1156,4.1141,4.1184,4.1199,4.1199,4.1199,4.1199,4.1199,4.1199,4.1199,4.1199,4.1199,4.1199,4.1199,4.1199,4.1199,4.1199,4.1199,4.1199,4.1199,4.1295,4.1535,4.2059,4.2416,4.2604,4.2485,4.2247,4.1815,4.1217,4.0572,4.0382,4.0323,3.9877,3.9888,4.0323,4.1035,4.1699,4.2245,4.302,4.3506,4.383,4.404,4.4192,4.4285,4.4316,4.4316,4.4316,4.4316,4.4316,4.4316,4.4316,4.4316,4.4316,4.4316,4.4316,4.4316,4.4316,4.4316,4.4316,4.4316,4.4316,4.4316,4.4316,4.4316,4.4316,4.4316,4.4316,4.4316,4.4316,4.4316,4.4316,4.4316,4.4316,4.4316,4.4316,4.4316,4.4316,4.4316,4.4316,4.4316,4.4316,4.4316,4.4316,4.4316,4.4316,4.4316,4.4316,4.4316,4.4316,4.4316,4.4316,4.4316,4.4316,4.4316,3.4828,3.5123,3.5309,3.5582,3.5906,3.6244,3.6493,3.6672,3.6809,3.7067,3.7299,3.7419,3.7822,3.8451,3.8726,3.9215,3.9884,4.0293,4.0424,4.0508,4.0769,4.0939,4.0983,4.111,4.1184,4.1199,4.1199,4.1199,4.1199,4.1199,4.1199,4.1199,4.1199,4.1199,4.1199,4.1199,4.1199,4.1199,4.1199,4.1211,4.1259,4.1427,4.1899,4.2429,4.2903,4.3097,4.293,4.2656,4.2229,4.163,4.1079,4.0955,4.0938,4.0943,4.0852,4.1148,4.1715,4.2309,4.2752,4.3471,4.383,4.4056,4.4223,4.43,4.4316,4.4316,4.4316,4.4316,4.4316,4.4316,4.4316,4.4316,4.4316,4.4316,4.4316,4.4316,4.4316,4.4316,4.4316,4.4316,4.4316,4.4316,4.4316,4.4316,4.4316,4.4316,4.4316,4.4316,4.4316,4.4316,4.4316,4.4316,4.4316,4.4316,4.4316,4.4316,4.4316,4.4316,4.4316,4.4316,4.4316,4.4316,4.4316,4.4316,4.4316,4.4316,4.4316,4.4316,4.4316,4.4316,4.4316,4.4316,4.4316,4.4316,4.4316,3.4345,3.4413,3.4678,3.4953,3.5216,3.549,3.5726,3.5983,3.6055,3.6248,3.6574,3.6696,3.706,3.7646,3.813,3.8696,3.9459,3.9711,3.9902,4.006,4.0322,4.0508,4.0679,4.0908,4.1055,4.1055,4.1184,4.1199,4.1199,4.1199,4.1199,4.1199,4.1199,4.1199,4.1199,4.1199,4.1199,4.1199,4.1199,4.1223,4.1451,4.1887,4.2416,4.2934,4.3409,4.3595,4.3376,4.3071,4.2558,4.2002,4.1582,4.1385,4.1421,4.1635,4.1843,4.2018,4.232,4.2799,4.3283,4.3717,4.4056,4.4238,4.4285,4.4316,4.4316,4.4316,4.4316,4.4316,4.4316,4.4316,4.4316,4.4316,4.4316,4.4316,4.4316,4.4316,4.4316,4.4316,4.4316,4.4316,4.4316,4.4316,4.4316,4.4316,4.4316,4.4316,4.4316,4.4316,4.4316,4.4316,4.4316,4.4316,4.4316,4.4316,4.4316,4.4316,4.4316,4.4316,4.4316,4.4316,4.4316,4.4316,4.4316,4.4316,4.4316,4.4316,4.4316,4.4316,4.4316,4.4316,4.4316,4.4316,4.4316,4.4316,4.4316,3.4141,3.4382,3.4429,3.4485,3.4548,3.461,3.4626,3.4735,3.5015,3.5263,3.567,3.5911,3.6386,3.7015,3.7657,3.7987,3.8276,3.8752,3.9137,3.937,3.9752,4.0045,4.0264,4.0607,4.0737,4.0809,4.1055,4.1184,4.117,4.117,4.1199,4.1199,4.1199,4.1199,4.1199,4.1199,4.1199,4.1199,4.1199,4.1415,4.1875,4.2368,4.2886,4.3373,4.382,4.3986,4.3693,4.3377,4.2937,4.232,4.1938,4.1763,4.1747,4.1747,4.2145,4.2574,4.3,4.3345,4.3686,4.4009,4.4207,4.43,4.4316,4.4316,4.4316,4.4316,4.4316,4.4316,4.4316,4.4316,4.4316,4.4316,4.4316,4.4316,4.4316,4.4316,4.4316,4.4316,4.4316,4.4316,4.4316,4.4316,4.4316,4.4316,4.4316,4.4316,4.4316,4.4316,4.4316,4.4316,4.4316,4.4316,4.4316,4.4316,4.4316,4.4316,4.4316,4.4316,4.4316,4.4316,4.4316,4.4316,4.4316,4.4316,4.4316,4.4316,4.4316,4.4316,4.4316,4.4316,4.4316,4.4316,4.4316,4.4316,4.4316,3.3692,3.3843,3.4032,3.411,3.4141,3.4298,3.4392,3.4423,3.4548,3.4813,3.5092,3.5273,3.5695,3.6371,3.7026,3.7329,3.7465,3.7976,3.8347,3.8675,3.9119,3.9547,3.9782,4.0162,4.0421,4.0479,4.0723,4.0894,4.0966,4.1098,4.1199,4.1199,4.1199,4.1199,4.1199,4.1199,4.1199,4.1199,4.1235,4.149,4.1983,4.2525,4.3027,4.349,4.4027,4.4058,4.3873,4.3689,4.3251,4.2716,4.24,4.2268,4.2125,4.2136,4.2363,4.3,4.3204,4.3455,4.3767,4.4133,4.4269,4.4316,4.4316,4.4316,4.4316,4.4316,4.4316,4.4316,4.4316,4.4316,4.4316,4.4316,4.4316,4.4316,4.4316,4.4316,4.4316,4.4316,4.4316,4.4316,4.4316,4.4316,4.4316,4.4316,4.4316,4.4316,4.4316,4.4316,4.4316,4.4316,4.4316,4.4316,4.4316,4.4316,4.4316,4.4316,4.4316,4.4316,4.4316,4.4316,4.4316,4.4316,4.4316,4.4316,4.4316,4.4316,4.4316,4.4316,4.4316,4.4316,4.4316,4.4316,4.4316,4.4316,4.4316,3.3386,3.3434,3.3686,3.379,3.3796,3.4063,3.4126,3.4141,3.4235,3.4423,3.4657,3.4844,3.5216,3.5721,3.631,3.6646,3.6707,3.7264,3.7536,3.7897,3.8362,3.8767,3.9049,3.9477,3.9873,3.9987,4.0275,4.0491,4.065,4.0795,4.0956,4.1184,4.1199,4.1199,4.1199,4.1199,4.1199,4.1199,4.1367,4.173,4.2224,4.2753,4.3228,4.3682,4.4021,4.4164,4.3966,4.3814,4.3455,4.3059,4.2775,4.2565,4.2323,4.2264,4.257,4.3079,4.3298,4.3529,4.3857,4.4164,4.4285,4.4316,4.4316,4.4316,4.4316,4.4316,4.4316,4.4316,4.4316,4.4316,4.4316,4.4316,4.4316,4.4316,4.4316,4.4316,4.4316,4.4316,4.4316,4.4316,4.4316,4.4316,4.4316,4.4316,4.4316,4.4316,4.4316,4.4316,4.4316,4.4316,4.4316,4.4316,4.4316,4.4316,4.4316,4.4316,4.4316,4.4316,4.4316,4.4316,4.4316,4.4316,4.4316,4.4316,4.4316,4.4316,4.4316,4.4316,4.4316,4.4316,4.4316,4.4316,4.4316,4.4316,4.4316,3.3386,3.3386,3.3418,3.3459,3.3475,3.3449,3.3481,3.3591,3.3837,3.3969,3.4141,3.4595,3.4906,3.5154,3.5629,3.5967,3.5998,3.6346,3.6687,3.7026,3.7359,3.7781,3.8156,3.8592,3.9064,3.9341,3.962,3.9902,4.0179,4.0278,4.0682,4.1112,4.1069,4.1156,4.1199,4.1199,4.1271,4.1367,4.1646,4.2164,4.2666,4.3183,4.3646,4.4075,4.4268,4.4285,4.4254,4.3997,4.3689,4.3279,4.3075,4.2791,4.2565,4.2486,4.2807,4.322,4.3392,4.367,4.4071,4.4226,4.4285,4.4316,4.4316,4.4316,4.4316,4.4316,4.4316,4.4316,4.4316,4.4316,4.4316,4.4316,4.4316,4.4316,4.4316,4.4316,4.4316,4.4316,4.4316,4.4316,4.4316,4.4316,4.4316,4.4316,4.4316,4.4316,4.4316,4.4316,4.4316,4.4316,4.4316,4.4316,4.4316,4.4316,4.4316,4.4316,4.4316,4.4316,4.4316,4.4316,4.4316,4.4316,4.4316,4.4316,4.4316,4.4316,4.4316,4.4316,4.4316,4.4316,4.4316,4.4316,4.4316,4.4316,4.4316,3.3386,3.3386,3.3386,3.3386,3.3386,3.3386,3.3386,3.3402,3.3538,3.3733,3.3906,3.4376,3.4595,3.4735,3.5015,3.5289,3.5382,3.5875,3.6121,3.6432,3.6787,3.7121,3.7454,3.7721,3.8122,3.8451,3.8756,3.9052,3.9329,3.9653,4.0016,4.0365,4.0694,4.1012,4.1112,4.1208,4.1367,4.1682,4.1947,4.2365,4.312,4.3385,4.3751,4.424,4.4316,4.4316,4.4285,4.418,4.3931,4.367,4.3467,4.3185,4.2917,4.2881,4.3106,4.3502,4.3565,4.3842,4.4176,4.4316,4.4316,4.4316,4.4316,4.4316,4.4316,4.4316,4.4316,4.4316,4.4316,4.4316,4.4316,4.4316,4.4316,4.4316,4.4316,4.4316,4.4316,4.4316,4.4316,4.4316,4.4316,4.4316,4.4316,4.4316,4.4316,4.4316,4.4316,4.4316,4.4316,4.4316,4.4316,4.4316,4.4316,4.4316,4.4316,4.4316,4.4316,4.4316,4.4316,4.4316,4.4316,4.4316,4.4316,4.4316,4.4316,4.4316,4.4316,4.4316,4.4316,4.4316,4.4316,4.4316,4.4316,4.4316,4.4316,3.3386,3.3386,3.3386,3.3386,3.3386,3.3386,3.3386,3.3386,3.3402,3.3513,3.378,3.4084,3.4251,3.4345,3.4595,3.4756,3.4891,3.5211,3.5448,3.5772,3.611,3.6467,3.6691,3.695,3.7309,3.757,3.7785,3.8074,3.8585,3.9034,3.9374,3.9708,4.0057,4.0462,4.0983,4.118,4.1449,4.1887,4.2248,4.2606,4.3409,4.3706,4.3847,4.4276,4.43,4.4316,4.4316,4.4254,4.4087,4.3888,4.3705,4.358,4.3408,4.3345,4.3502,4.3662,4.383,4.3954,4.4195,4.4316,4.4316,4.4316,4.4316,4.4316,4.4316,4.4316,4.4316,4.4316,4.4316,4.4316,4.4316,4.4316,4.4316,4.4316,4.4316,4.4316,4.4316,4.4316,4.4316,4.4316,4.4316,4.4316,4.4316,4.4316,4.4316,4.4316,4.4316,4.4316,4.4316,4.4316,4.4316,4.4316,4.4316,4.4316,4.4316,4.4316,4.4316,4.4316,4.4316,4.4316,4.4316,4.4316,4.4316,4.4316,4.4316,4.4316,4.4316,4.4316,4.4316,4.4316,4.4316,4.4316,4.4316,4.4316,4.4316,3.3386,3.3386,3.3386,3.3386,3.3386,3.3386,3.3386,3.3386,3.3402,3.3418,3.3497,3.378,3.3922,3.3985,3.4251,3.4392,3.4439,3.4532,3.4719,3.5051,3.534,3.5634,3.5926,3.6244,3.6524,3.6848,3.703,3.7314,3.7863,3.8032,3.8481,3.9045,3.9411,3.9966,4.0679,4.1067,4.1473,4.2007,4.2513,4.3063,4.3562,4.3991,4.4192,4.4264,4.4316,4.4316,4.4316,4.4316,4.4149,4.3966,4.3892,4.3736,4.3502,4.3451,4.358,4.383,4.3845,4.3997,4.4269,4.43,4.4316,4.4316,4.4316,4.4316,4.4316,4.4316,4.4316,4.4316,4.4316,4.4316,4.4316,4.4316,4.4316,4.4316,4.4316,4.4316,4.4316,4.4316,4.4316,4.4316,4.4316,4.4316,4.4316,4.4316,4.4316,4.4316,4.4316,4.4316,4.4316,4.4316,4.4316,4.4316,4.4316,4.4316,4.4316,4.4316,4.4316,4.4316,4.4316,4.4316,4.4316,4.4316,4.4316,4.4316,4.4316,4.4316,4.4316,4.4316,4.4316,4.4316,4.4316,4.4316,4.4316,4.4316,4.4316,3.3386,3.3386,3.3386,3.3386,3.3386,3.3386,3.3386,3.3386,3.3386,3.3386,3.3402,3.3544,3.356,3.368,3.39,3.4063,3.4094,3.4345,3.4517,3.4553,3.4719,3.4937,3.5216,3.5448,3.5726,3.611,3.6279,3.6447,3.6895,3.7112,3.748,3.8021,3.9032,3.9808,4.0667,4.1323,4.1993,4.2525,4.3027,4.3502,4.3967,4.4208,4.4316,4.4316,4.4316,4.4316,4.4316,4.4316,4.4238,4.4118,4.4102,4.4025,4.3916,4.39,4.3978,4.4118,4.4133,4.4164,4.4285,4.4316,4.4316,4.4316,4.4316,4.4316,4.4316,4.4316,4.4316,4.4316,4.4316,4.4316,4.4316,4.4316,4.4316,4.4316,4.4316,4.4316,4.4316,4.4316,4.4316,4.4316,4.4316,4.4316,4.4316,4.4316,4.4316,4.4316,4.4316,4.4316,4.4316,4.4316,4.4316,4.4316,4.4316,4.4316,4.4316,4.4316,4.4316,4.4316,4.4316,4.4316,4.4316,4.4316,4.4316,4.4316,4.4316,4.4316,4.4316,4.4316,4.4316,4.4316,4.4316,4.4316,4.4316,4.4316,4.4316,3.3386,3.3386,3.3386,3.3386,3.3386,3.3386,3.3386,3.3386,3.3386,3.3386,3.3386,3.3386,3.3402,3.3465,3.3601,3.3743,3.3749,3.3922,3.4173,3.4188,3.422,3.447,3.4657,3.4735,3.5015,3.5356,3.5557,3.5742,3.609,3.6412,3.692,3.7709,3.8818,3.9888,4.0728,4.1389,4.2211,4.2799,4.337,4.3691,4.41,4.4316,4.4316,4.4316,4.4316,4.4316,4.4316,4.4316,4.4316,4.4316,4.4316,4.4316,4.4316,4.4316,4.4316,4.4316,4.43,4.43,4.43,4.4316,4.4316,4.4316,4.4316,4.4316,4.4316,4.4316,4.4316,4.4316,4.4316,4.4316,4.4316,4.4316,4.4316,4.4316,4.4316,4.4316,4.4316,4.4316,4.4316,4.4316,4.4316,4.4316,4.4316,4.4316,4.4316,4.4316,4.4316,4.4316,4.4316,4.4316,4.4316,4.4316,4.4316,4.4316,4.4316,4.4316,4.4316,4.4316,4.4316,4.4316,4.4316,4.4316,4.4316,4.4316,4.4316,4.4316,4.4316,4.4316,4.4316,4.4316,4.4316,4.4316,4.4316,4.4316,4.4316,3.3386,3.3386,3.3386,3.3386,3.3386,3.3386,3.3386,3.3386,3.3386,3.3386,3.3386,3.3386,3.3386,3.3386,3.3428,3.3443,3.3449,3.3481,3.3654,3.3812,3.3875,3.411,3.4288,3.4382,3.4532,3.4595,3.4797,3.517,3.5418,3.5895,3.6524,3.7553,3.8916,4.0023,4.0785,4.1554,4.238,4.3108,4.361,4.3907,4.4228,4.4316,4.4316,4.4316,4.4316,4.4316,4.4316,4.4316,4.4316,4.4316,4.4316,4.4316,4.4316,4.4316,4.4316,4.4316,4.4316,4.4316,4.4316,4.4316,4.4316,4.4316,4.4316,4.4316,4.4316,4.4316,4.4316,4.4316,4.4316,4.4316,4.4316,4.4316,4.4316,4.4316,4.4316,4.4316,4.4316,4.4316,4.4316,4.4316,4.4316,4.4316,4.4316,4.4316,4.4316,4.4316,4.4316,4.4316,4.4316,4.4316,4.4316,4.4316,4.4316,4.4316,4.4316,4.4316,4.4316,4.4316,4.4316,4.4316,4.4316,4.4316,4.4316,4.4316,4.4316,4.4316,4.4316,4.4316,4.4316,4.4316,4.4316,4.4316,4.4316,4.4316,4.4316,3.3386,3.3386,3.3386,3.3386,3.3386,3.3386,3.3386,3.3386,3.3386,3.3386,3.3386,3.3386,3.3386,3.3386,3.3386,3.3386,3.3386,3.3402,3.3449,3.3528,3.3591,3.378,3.3937,3.4063,3.4163,3.4319,3.4517,3.4735,3.5123,3.5567,3.6503,3.7622,3.8762,3.9973,4.1195,4.2081,4.2782,4.3374,4.3832,4.4072,4.424,4.4316,4.4316,4.4316,4.4316,4.4316,4.4316,4.4316,4.4316,4.4316,4.4316,4.4316,4.4316,4.4316,4.4316,4.4316,4.4316,4.4316,4.4316,4.4316,4.4316,4.4316,4.4316,4.4316,4.4316,4.4316,4.4316,4.4316,4.4316,4.4316,4.4316,4.4316,4.4316,4.4316,4.4316,4.4316,4.4316,4.4316,4.4316,4.4316,4.4316,4.4316,4.4316,4.4316,4.4316,4.4316,4.4316,4.4316,4.4316,4.4316,4.4316,4.4316,4.4316,4.4316,4.4316,4.4316,4.4316,4.4316,4.4316,4.4316,4.4316,4.4316,4.4316,4.4316,4.4316,4.4316,4.4316,4.4316,4.4316,4.4316,4.4316,4.4316,4.4316,4.4316,4.4316,3.3386,3.3386,3.3386,3.3386,3.3386,3.3386,3.3386,3.3386,3.3386,3.3386,3.3386,3.3386,3.3386,3.3386,3.3386,3.3386,3.3386,3.3386,3.3418,3.3418,3.3386,3.3528,3.3654,3.3717,3.3796,3.4,3.4188,3.4376,3.4895,3.5764,3.6715,3.7409,3.8439,4.0146,4.1533,4.2467,4.3203,4.3716,4.4084,4.428,4.4316,4.4316,4.4316,4.4316,4.4316,4.4316,4.4316,4.4316,4.4316,4.4316,4.4316,4.4316,4.4316,4.4316,4.4316,4.4316,4.4316,4.4316,4.4316,4.4316,4.4316,4.4316,4.4316,4.4316,4.4316,4.4316,4.4316,4.4316,4.4316,4.4316,4.4316,4.4316,4.4316,4.4316,4.4316,4.4316,4.4316,4.4316,4.4316,4.4316,4.4316,4.4316,4.4316,4.4316,4.4316,4.4316,4.4316,4.4316,4.4316,4.4316,4.4316,4.4316,4.4316,4.4316,4.4316,4.4316,4.4316,4.4316,4.4316,4.4316,4.4316,4.4316,4.4316,4.4316,4.4316,4.4316,4.4316,4.4316,4.4316,4.4316,4.4316,4.4316,4.4316,4.4316,4.4316,3.3386,3.3386,3.3386,3.3386,3.3386,3.3386,3.3386,3.3386,3.3386,3.3386,3.3386,3.3386,3.3386,3.3386,3.3386,3.3386,3.3386,3.3386,3.3386,3.3386,3.3386,3.3434,3.3434,3.3418,3.3544,3.3576,3.3816,3.4295,3.4881,3.5816,3.677,3.7283,3.9027,4.0621,4.1758,4.2747,4.3469,4.406,4.4216,4.4316,4.4316,4.4316,4.4316,4.4316,4.4316,4.4316,4.4316,4.4316,4.4316,4.4316,4.4316,4.4316,4.4316,4.4316,4.4316,4.4316,4.4316,4.4316,4.4316,4.4316,4.4316,4.4316,4.4316,4.4316,4.4316,4.4316,4.4316,4.4316,4.4316,4.4316,4.4316,4.4316,4.4316,4.4316,4.4316,4.4316,4.4316,4.4316,4.4316,4.4316,4.4316,4.4316,4.4316,4.4316,4.4316,4.4316,4.4316,4.4316,4.4316,4.4316,4.4316,4.4316,4.4316,4.4316,4.4316,4.4316,4.4316,4.4316,4.4316,4.4316,4.4316,4.4316,4.4316,4.4316,4.4316,4.4316,4.4316,4.4316,4.4316,4.4316,4.4316,4.4316,4.4316,4.4316,4.4316,3.3386,3.3386,3.3386,3.3386,3.3386,3.3386,3.3386,3.3386,3.3386,3.3386,3.3386,3.3386,3.3386,3.3386,3.3386,3.3386,3.3386,3.3386,3.3386,3.3386,3.3386,3.3386,3.3386,3.3386,3.3402,3.3497,3.382,3.4503,3.5347,3.6257,3.7229,3.8194,3.9617,4.078,4.2072,4.3004,4.3608,4.4254,4.4316,4.4316,4.4316,4.4316,4.4316,4.4316,4.4316,4.4316,4.4316,4.4316,4.4316,4.4316,4.4316,4.4316,4.4316,4.4316,4.4316,4.4316,4.4316,4.4316,4.4316,4.4316,4.4316,4.4316,4.4316,4.4316,4.4316,4.4316,4.4316,4.4316,4.4316,4.4316,4.4316,4.4316,4.4316,4.4316,4.4316,4.4316,4.4316,4.4316,4.4316,4.4316,4.4316,4.4316,4.4316,4.4316,4.4316,4.4316,4.4316,4.4316,4.4316,4.4316,4.4316,4.4316,4.4316,4.4316,4.4316,4.4316,4.4316,4.4316,4.4316,4.4316,4.4316,4.4316,4.4316,4.4316,4.4316,4.4316,4.4316,4.4316,4.4316,4.4316,4.4316,4.4316,4.4316,4.4316,4.4316,3.3386,3.3386,3.3386,3.3386,3.3386,3.3386,3.3386,3.3386,3.3386,3.3386,3.3386,3.3386,3.3386,3.3386,3.3386,3.3386,3.3386,3.3386,3.3386,3.3386,3.3386,3.3386,3.3386,3.3437,3.3544,3.3674,3.4427,3.5194,3.5994,3.6877,3.7863,3.8825,3.9898,4.1123,4.2415,4.3063,4.3639,4.4254,4.43,4.4316,4.4316,4.4316,4.4316,4.4316,4.4316,4.4316,4.4316,4.4316,4.4316,4.4316,4.4316,4.4316,4.4316,4.4316,4.4316,4.4316,4.4316,4.4316,4.4316,4.4316,4.4316,4.4316,4.4316,4.4316,4.4316,4.4316,4.4316,4.4316,4.4316,4.4316,4.4316,4.4316,4.4316,4.4316,4.4316,4.4316,4.4316,4.4316,4.4316,4.4316,4.4316,4.4316,4.4316,4.4316,4.4316,4.4316,4.4316,4.4316,4.4316,4.4316,4.4316,4.4316,4.4316,4.4316,4.4316,4.4316,4.4316,4.4316,4.4316,4.4316,4.4316,4.4316,4.4316,4.4316,4.4316,4.4316,4.4316,4.4316,4.4316,4.4316,4.4316,4.4316,4.4316,4.4316,4.4316,3.3386,3.3386,3.3386,3.3386,3.3386,3.3386,3.3386,3.3386,3.3386,3.3386,3.3386,3.3386,3.3386,3.3386,3.3386,3.3386,3.3386,3.3386,3.3386,3.3386,3.3386,3.3386,3.3457,3.3569,3.3972,3.4515,3.5216,3.5926,3.6657,3.7588,3.8519,3.9346,4.0435,4.1614,4.2542,4.3204,4.3717,4.4149,4.4316,4.4316,4.4316,4.4316,4.4316,4.4316,4.4316,4.4316,4.4316,4.4316,4.4316,4.4316,4.4316,4.4316,4.4316,4.4316,4.4316,4.4316,4.4316,4.4316,4.4316,4.4316,4.4316,4.4316,4.4316,4.4316,4.4316,4.4316,4.4316,4.4316,4.4316,4.4316,4.4316,4.4316,4.4316,4.4316,4.4316,4.4316,4.4316,4.4316,4.4316,4.4316,4.4316,4.4316,4.4316,4.4316,4.4316,4.4316,4.4316,4.4316,4.4316,4.4316,4.4316,4.4316,4.4316,4.4316,4.4316,4.4316,4.4316,4.4316,4.4316,4.4316,4.4316,4.4316,4.4316,4.4316,4.4316,4.4316,4.4316,4.4316,4.4316,4.4316,4.4316,4.4316,4.4316,4.4316,4.4316,3.3386,3.3386,3.3386,3.3386,3.3386,3.3386,3.3386,3.3386,3.3386,3.3386,3.3386,3.3386,3.3386,3.3386,3.3386,3.3386,3.3386,3.3386,3.3386,3.3386,3.347,3.3425,3.3665,3.4253,3.497,3.5575,3.6148,3.6731,3.7541,3.8448,3.932,4.0131,4.1349,4.2229,4.2728,4.3342,4.3857,4.4195,4.4316,4.4316,4.4316,4.4316,4.4316,4.4316,4.4316,4.4316,4.4316,4.4316,4.4316,4.4316,4.4316,4.4316,4.4316,4.4316,4.4316,4.4316,4.4316,4.4316,4.4316,4.4316,4.4316,4.4316,4.4316,4.4316,4.4316,4.4316,4.4316,4.4316,4.4316,4.4316,4.4316,4.4316,4.4316,4.4316,4.4316,4.4316,4.4316,4.4316,4.4316,4.4316,4.4316,4.4316,4.4316,4.4316,4.4316,4.4316,4.4316,4.4316,4.4316,4.4316,4.4316,4.4316,4.4316,4.4316,4.4316,4.4316,4.4316,4.4316,4.4316,4.4316,4.4316,4.4316,4.4316,4.4316,4.4316,4.4316,4.4316,4.4316,4.4316,4.4316,4.4316,4.4316,4.4316,4.4316,4.4316]},{"header":{"parameterUnit":"m.s-1","parameterCategory":1,"la1":31.0,"la2":29.5877,"lo1":-88.7671,"lo2":-86.6584,"dy":0.0162,"dx":0.0185,"nx":115,"ny":88,"refTime":"2023-04-04T12:00:00:Z","depth":0,"parameterNumber":3,"parameterNumberName":"V-component_of_WINDS"},"data":[0.0,0.0,0.0,0.0,0.0,0.0,0.0,0.0,0.0,0.0,0.0,0.0,0.0,0.0,0.0,0.0,0.0,0.0,0.0,0.0,0.0,0.0,0.0,0.0,0.0,0.0,0.0,0.0,0.0,0.0,0.0,0.0,0.0,0.0,0.0,0.0,0.0,0.0,0.0,0.0,0.0,0.0,0.0,0.0,0.0,0.0,0.0,0.0,0.0,0.0,0.0,0.0,0.0,0.0,0.0,0.0,0.0,0.0,0.0,0.0,0.0,0.0,0.0,0.0,0.0,0.0,0.0,0.0,0.0,0.0,0.0,0.0,0.0,0.0,0.0,0.0,0.0,0.0,0.0,0.0,0.0,0.0,0.0,0.0,0.0,0.0,0.0,0.0,0.0,0.0,0.0,0.0,0.0,0.0,0.0,0.0,0.0,0.0,0.0,0.0,0.0,0.0,0.0,0.0,0.0,0.0,0.0,0.0,0.0,0.0,0.0,0.0,0.0,0.0,0.0,0.0,0.0,0.0,0.0,0.0,0.0,0.0,0.0,0.0,0.0,0.0,0.0,0.0,0.0,0.0,0.0,0.0,0.0,0.0,0.0,0.0,0.0,0.0,0.0,0.0,0.0,0.0,0.0,0.0,0.0,0.0,0.0,0.0,0.0,0.0,0.0,0.0,0.0,0.0,0.0,0.0,0.0,0.0,0.0,0.0,0.0,0.0,0.0,0.0,0.0,0.0,0.0,0.0,0.0,0.0,0.0,0.0,0.0,0.0,0.0,0.0,0.0,0.0,0.0,0.0,0.0,0.0,0.0,0.0,0.0,0.0,0.0,0.0,0.0,0.0,0.0,0.0,0.0,0.0,0.0,0.0,0.0,0.0,0.0,0.0,0.0,0.0,0.0,0.0,0.0,0.0,0.0,0.0,0.0,0.0,0.0,0.0,0.0,0.0,0.0,0.0,0.0,0.0,0.0,0.0,0.0,0.0,0.0,0.0,0.0,0.0,0.0,0.0,0.0,0.0,0.0,0.0,0.0,0.0,0.0,0.0,0.0,0.0,0.0,0.0,0.0,0.0,0.0,0.0,0.0,0.0,0.0,0.0,0.0,0.0,0.0,0.0,0.0,0.0,0.0,0.0,0.0,0.0,0.0,0.0,0.0,0.0,0.0,0.0,0.0,0.0,0.0,0.0,0.0,0.0,0.0,0.0,0.0,0.0,0.0,0.0,0.0,0.0,0.0,0.0,0.0,0.0,0.0,0.0,0.0,0.0,0.0,0.0,0.0,0.0,0.0,0.0,0.0,0.0,0.0,0.0,0.0,0.0,0.0,0.0,0.0,0.0,0.0,0.0,0.0,0.0,0.0,0.0,0.0,0.0,0.0,0.0,0.0,0.0,0.0,0.0,0.0,0.0,0.0,0.0,0.0,0.0,0.0,0.0,0.0,0.0,0.0,0.0,0.0,0.0,0.0,0.0,0.0,0.0,0.0,0.0,0.0,0.0,0.0,0.0,0.0,0.0,0.0,0.0,0.0,0.0,0.0,0.0,0.0,0.0,0.0,0.0,0.0,0.0,0.0,0.0,0.0,0.0,0.0,0.0,0.0,0.0,0.0,0.0,0.0,0.0,0.0,0.0,0.0,0.0,0.0,0.0,0.0,0.0,0.0,0.0,0.0,0.0,0.0,0.0,0.0,0.0,0.0,0.0,0.0,0.0,0.0,0.0,0.0,0.0,0.0,0.0,0.0,0.0,0.0,0.0,0.0,0.0,0.0,0.0,0.0,0.0,0.0,0.0,0.0,0.0,0.0,0.0,0.0,0.0,0.0,0.0,0.0,0.0,0.0,0.0,0.0,0.0,0.0,0.0,0.0,0.0,0.0,0.0,0.0,0.0,0.0,0.0,0.0,0.0,0.0,0.0,0.0,0.0,0.0,0.0,0.0,0.0,0.0,0.0,0.0,0.0,0.0,0.0,0.0,0.0,0.0,0.0,0.0,0.0,0.0,0.0,0.0,0.0,0.0,0.0,0.0,0.0,0.0,0.0,0.0,0.0,0.0,0.0,0.0,0.0,0.0,0.0,0.0,0.0,0.0,0.0,0.0,0.0,0.0,0.0,0.0,0.0,0.0,0.0,0.0,0.0,0.0,0.0,0.0,0.0,0.0,0.0,0.0,0.0,0.0,0.0,0.0,0.0,0.0,0.0,0.0,0.0,0.0,0.0,0.0,0.0,0.0,0.0,0.0,0.0,0.0,0.0,0.0,0.0,0.0,0.0,0.0,0.0,0.0,0.0,0.0,0.0,0.0,0.0,0.0,0.0,0.0,0.0,0.0,0.0,0.0,0.0,0.0,0.0,0.0,0.0,0.0,0.0,0.0,0.0,0.0,0.0,0.0,0.0,0.0,0.0,0.0,0.0,0.0,0.0,0.0,0.0,0.0,0.0,0.0,0.0,0.0,0.0,0.0,0.0,0.0,0.0,0.0,0.0,0.0,0.0,0.0,0.0,0.0,0.0,0.0,0.0,0.0,0.0,0.0,0.0,0.0,0.0,0.0,0.0,0.0,0.0,0.0,0.0,0.0,0.0,0.0,0.0,0.0,0.0,0.0,0.0,0.0,0.0,0.0,0.0,0.0,0.0,0.0,0.0,0.0,0.0,0.0,0.0,0.0,0.0,0.0,0.0,0.0,0.0,0.0,0.0,0.0,0.0,0.0,0.0,0.0,0.0,0.0,0.0,0.0,0.0,0.0,0.0,0.0,0.0,0.0,0.0,0.0,0.0,0.0,0.0,0.0,0.0,0.0,0.0,0.0,0.0,0.0,0.0,0.0,0.0,0.0,0.0,0.0,0.0,0.0,0.0,0.0,0.0,0.0,0.0,0.0,0.0,0.0,0.0,0.0,0.0,0.0,0.0,0.0,0.0,0.0,0.0,0.0,0.0,0.0,0.0,0.0,0.0,0.0,0.0,0.0,0.0,0.0,0.0,0.0,0.0,0.0,0.0,0.0,0.0,0.0,0.0,0.0,0.0,0.0,0.0,0.0,0.0,0.0,0.0,0.0,0.0,0.0,0.0,0.0,0.0,0.0,0.0,0.0,0.0,0.0,0.0,0.0,0.0,0.0,0.0,0.0,0.0,0.0,0.0,0.0,0.0,0.0,0.0,0.0,0.0,0.0,0.0,0.0,0.0,0.0,0.0,0.0,0.0,0.0,0.0,0.0,0.0,0.0,0.0,0.0,0.0,0.0,0.0,0.0,0.0,0.0,0.0,0.0,0.0,0.0,0.0,0.0,0.0,0.0,0.0,0.0,0.0,0.0,0.0,0.0,0.0,0.0,0.0,0.0,0.0,0.0,0.0,0.0,0.0,0.0,0.0,0.0,0.0,0.0,0.0,0.0,0.0,0.0,0.0,0.0,0.0,0.0,0.0,0.0,0.0,0.0,0.0,0.0,0.0,0.0,0.0,0.0,0.0,0.0,0.0,0.0,0.0,0.0,0.0,0.0,0.0,0.0,0.0,0.0,0.0,0.0,0.0,0.0,0.0,0.0,0.0,0.0,0.0,0.0,0.0,0.0,0.0,0.0,0.0,0.0,0.0,0.0,0.0,0.0,0.0,0.0,0.0,0.0,0.0,0.0,0.0,0.0,0.0,0.0,0.0,0.0,0.0,0.0,0.0,0.0,0.0,0.0,0.0,0.0,0.0,0.0,0.0,0.0,0.0,0.0,0.0,0.0,0.0,0.0,0.0,0.0,0.0,0.0,0.0,0.0,0.0,0.0,0.0,0.0,0.0,0.0,0.0,0.0,0.0,0.0,0.0,0.0,0.0,0.0,0.0,0.0,0.0,0.0,0.0,0.0,0.0,0.0,0.0,0.0,0.0,0.0,0.0,0.0,0.0,0.0,0.0,0.0,0.0,0.0,0.0,0.0,0.0,0.0,0.0,0.0,0.0,0.0,0.0,0.0,0.0,0.0,0.0,0.0,0.0,0.0,0.0,0.0,0.0,0.0,0.0,0.0,0.0,0.0,0.0,0.0,0.0,0.0,0.0,0.0,0.0,0.0,0.0,0.0,0.0,0.0,0.0,0.0,0.0,0.0,0.0,0.0,0.0,0.0,0.0,0.0,0.0,0.0,0.0,0.0,0.0,0.0,0.0,0.0,0.0,0.0,0.0,0.0,0.0,0.0,0.0,0.0,0.0,0.0,0.0,0.0,0.0,0.0,0.0,0.0,0.0,0.0,0.0,0.0,0.0,0.0,0.0,0.0,0.0,0.0,0.0,0.0,0.0,3.2993,0.0,0.0,0.0,0.0,0.0,0.0,0.0,0.0,0.0,0.0,0.0,0.0,0.0,0.0,0.0,0.0,0.0,0.0,0.0,0.0,0.0,0.0,0.0,0.0,0.0,0.0,0.0,0.0,0.0,0.0,0.0,0.0,0.0,0.0,0.0,0.0,0.0,0.0,0.0,0.0,0.0,0.0,0.0,0.0,0.0,0.0,0.0,0.0,0.0,0.0,0.0,0.0,0.0,0.0,0.0,0.0,0.0,0.0,0.0,0.0,0.0,0.0,0.0,0.0,0.0,0.0,0.0,0.0,0.0,0.0,0.0,0.0,0.0,0.0,0.0,0.0,0.0,0.0,0.0,0.0,0.0,0.0,0.0,0.0,0.0,0.0,0.0,0.0,0.0,0.0,0.0,0.0,0.0,0.0,0.0,0.0,0.0,0.0,0.0,0.0,0.0,0.0,0.0,0.0,0.0,0.0,0.0,0.0,0.0,0.0,3.0272,3.0418,3.0492,3.1308,3.2932,0.0,0.0,0.0,0.0,0.0,0.0,0.0,0.0,0.0,0.0,0.0,0.0,0.0,0.0,0.0,0.0,0.0,0.0,0.0,0.0,0.0,0.0,0.0,0.0,0.0,0.0,0.0,0.0,0.0,0.0,0.0,0.0,0.0,0.0,0.0,0.0,0.0,0.0,0.0,0.0,0.0,0.0,0.0,0.0,0.0,0.0,0.0,0.0,0.0,0.0,0.0,0.0,0.0,0.0,0.0,0.0,0.0,0.0,0.0,0.0,0.0,0.0,0.0,0.0,0.0,0.0,0.0,0.0,0.0,0.0,0.0,0.0,0.0,0.0,0.0,0.0,0.0,0.0,0.0,0.0,0.0,0.0,0.0,0.0,0.0,0.0,0.0,0.0,0.0,0.0,0.0,0.0,0.0,0.0,0.0,0.0,0.0,0.0,0.0,0.0,0.0,0.0,0.0,0.0,0.0,0.0,0.0,0.0,0.0,0.0,0.0,0.0,3.0273,3.1148,3.2932,0.0,0.0,0.0,0.0,0.0,0.0,0.0,0.0,0.0,0.0,0.0,0.0,0.0,0.0,0.0,0.0,0.0,0.0,0.0,0.0,0.0,0.0,0.0,0.0,0.0,0.0,0.0,0.0,0.0,0.0,0.0,0.0,0.0,0.0,0.0,0.0,0.0,0.0,0.0,0.0,0.0,0.0,0.0,0.0,0.0,0.0,0.0,0.0,0.0,0.0,0.0,0.0,0.0,0.0,0.0,0.0,0.0,0.0,0.0,0.0,0.0,0.0,0.0,0.0,0.0,0.0,0.0,0.0,0.0,0.0,0.0,0.0,0.0,0.0,0.0,0.0,0.0,0.0,0.0,0.0,0.0,0.0,0.0,0.0,0.0,0.0,0.0,0.0,0.0,0.0,0.0,0.0,0.0,0.0,0.0,0.0,0.0,0.0,0.0,0.0,0.0,0.0,0.0,0.0,0.0,0.0,0.0,0.0,0.0,0.0,2.9705,2.9831,3.0159,0.0,3.2931,0.0,0.0,0.0,0.0,0.0,0.0,0.0,0.0,0.0,0.0,0.0,0.0,0.0,0.0,0.0,0.0,0.0,0.0,0.0,0.0,0.0,0.0,0.0,0.0,0.0,0.0,0.0,0.0,0.0,0.0,0.0,0.0,0.0,0.0,0.0,0.0,0.0,0.0,0.0,0.0,0.0,0.0,0.0,0.0,0.0,0.0,0.0,0.0,0.0,0.0,0.0,0.0,0.0,0.0,0.0,0.0,0.0,0.0,0.0,0.0,0.0,0.0,0.0,0.0,0.0,0.0,0.0,0.0,0.0,0.0,0.0,0.0,0.0,0.0,0.0,0.0,0.0,0.0,0.0,0.0,0.0,0.0,0.0,0.0,0.0,0.0,0.0,0.0,0.0,0.0,0.0,0.0,0.0,0.0,0.0,0.0,0.0,0.0,0.0,0.0,0.0,0.0,0.0,0.0,0.0,0.0,0.0,0.0,0.0,0.0,2.9548,2.9682,3.0922,3.2017,0.0,0.0,0.0,0.0,0.0,0.0,0.0,0.0,0.0,0.0,0.0,0.0,0.0,0.0,0.0,0.0,0.0,0.0,0.0,0.0,0.0,0.0,0.0,0.0,0.0,0.0,0.0,0.0,0.0,0.0,0.0,0.0,0.0,0.0,0.0,0.0,0.0,0.0,0.0,0.0,0.0,0.0,0.0,0.0,0.0,0.0,0.0,0.0,0.0,0.0,0.0,0.0,0.0,0.0,0.0,0.0,0.0,0.0,0.0,0.0,0.0,0.0,0.0,0.0,0.0,0.0,0.0,0.0,0.0,0.0,0.0,0.0,0.0,0.0,0.0,0.0,0.0,0.0,0.0,0.0,0.0,0.0,0.0,0.0,0.0,0.0,0.0,0.0,0.0,0.0,0.0,0.0,0.0,0.0,0.0,0.0,0.0,0.0,0.0,0.0,0.0,0.0,0.0,0.0,0.0,0.0,0.0,0.0,0.0,0.0,2.9043,2.9362,2.9723,3.1408,3.2491,3.2804,0.0,0.0,0.0,0.0,0.0,0.0,0.0,0.0,0.0,0.0,0.0,0.0,0.0,0.0,0.0,0.0,0.0,0.0,0.0,0.0,0.0,0.0,0.0,0.0,0.0,0.0,0.0,0.0,0.0,0.0,0.0,0.0,0.0,0.0,0.0,0.0,0.0,0.0,0.0,0.0,0.0,0.0,0.0,0.0,0.0,0.0,0.0,0.0,0.0,0.0,0.0,0.0,0.0,0.0,0.0,0.0,0.0,0.0,0.0,0.0,0.0,0.0,0.0,0.0,0.0,0.0,0.0,0.0,0.0,0.0,0.0,0.0,0.0,0.0,0.0,0.0,0.0,0.0,0.0,0.0,0.0,0.0,0.0,0.0,0.0,0.0,0.0,0.0,0.0,0.0,0.0,0.0,0.0,0.0,0.0,0.0,0.0,0.0,0.0,0.0,0.0,0.0,0.0,0.0,0.0,0.0,0.0,0.0,2.8336,2.8675,2.9149,2.9804,3.1233,3.228,0.0,0.0,0.0,0.0,0.0,0.0,0.0,0.0,0.0,0.0,0.0,0.0,0.0,0.0,0.0,0.0,0.0,0.0,0.0,0.0,0.0,0.0,0.0,0.0,0.0,0.0,0.0,0.0,0.0,0.0,0.0,0.0,0.0,0.0,0.0,0.0,0.0,0.0,0.0,0.0,0.0,0.0,0.0,0.0,0.0,0.0,0.0,0.0,0.0,0.0,0.0,0.0,0.0,0.0,0.0,0.0,0.0,0.0,0.0,0.0,0.0,0.0,0.0,0.0,0.0,0.0,0.0,0.0,0.0,0.0,0.0,0.0,0.0,0.0,0.0,0.0,0.0,0.0,0.0,0.0,0.0,0.0,0.0,0.0,0.0,0.0,0.0,0.0,0.0,0.0,0.0,0.0,0.0,0.0,0.0,0.0,0.0,0.0,0.0,0.0,0.0,0.0,0.0,0.0,0.0,0.0,0.0,0.0,0.0,2.8311,2.8758,2.9517,3.0603,3.1532,3.238,0.0,0.0,0.0,0.0,0.0,0.0,0.0,0.0,0.0,0.0,0.0,0.0,0.0,0.0,0.0,0.0,0.0,0.0,0.0,0.0,0.0,0.0,0.0,0.0,0.0,0.0,0.0,0.0,0.0,0.0,0.0,0.0,0.0,0.0,0.0,0.0,0.0,0.0,0.0,0.0,0.0,0.0,0.0,0.0,0.0,0.0,0.0,0.0,0.0,0.0,0.0,0.0,0.0,0.0,0.0,0.0,0.0,0.0,0.0,0.0,0.0,0.0,0.0,0.0,0.0,0.0,0.0,0.0,0.0,0.0,0.0,0.0,0.0,0.0,0.0,0.0,0.0,0.0,0.0,0.0,0.0,0.0,0.0,0.0,0.0,0.0,0.0,0.0,0.0,0.0,0.0,0.0,0.0,0.0,0.0,0.0,0.0,0.0,0.0,0.0,0.0,0.0,0.0,0.0,0.0,0.0,0.0,0.0,0.0,2.8774,0.0,3.0129,3.1268,3.1994,3.2743,0.0,0.0,0.0,0.0,0.0,0.0,0.0,0.0,0.0,0.0,0.0,0.0,0.0,0.0,0.0,0.0,0.0,0.0,0.0,0.0,0.0,0.0,0.0,0.0,0.0,0.0,0.0,0.0,0.0,0.0,0.0,0.0,0.0,0.0,0.0,0.0,0.0,0.0,0.0,0.0,0.0,0.0,0.0,0.0,0.0,0.0,0.0,0.0,0.0,0.0,0.0,0.0,0.0,0.0,0.0,0.0,0.0,0.0,0.0,0.0,0.0,0.0,0.0,0.0,0.0,0.0,0.0,0.0,0.0,0.0,0.0,0.0,0.0,0.0,0.0,0.0,0.0,0.0,0.0,0.0,0.0,0.0,0.0,0.0,0.0,0.0,0.0,0.0,0.0,0.0,0.0,0.0,0.0,0.0,0.0,0.0,0.0,0.0,0.0,0.0,0.0,0.0,0.0,0.0,0.0,0.0,0.0,0.0,2.8691,2.9786,3.0344,3.0962,3.1693,3.2673,3.3291,0.0,0.0,0.0,0.0,0.0,0.0,0.0,0.0,0.0,0.0,0.0,0.0,0.0,0.0,0.0,0.0,0.0,0.0,0.0,0.0,0.0,0.0,0.0,0.0,0.0,0.0,0.0,0.0,0.0,0.0,0.0,0.0,0.0,0.0,0.0,0.0,0.0,0.0,0.0,0.0,0.0,0.0,0.0,0.0,0.0,0.0,0.0,0.0,0.0,0.0,0.0,0.0,0.0,0.0,0.0,0.0,0.0,0.0,0.0,0.0,0.0,0.0,0.0,0.0,0.0,0.0,0.0,0.0,0.0,0.0,0.0,0.0,0.0,0.0,0.0,0.0,0.0,0.0,0.0,0.0,0.0,0.0,0.0,0.0,0.0,0.0,0.0,0.0,0.0,0.0,0.0,0.0,0.0,0.0,0.0,0.0,0.0,0.0,0.0,0.0,0.0,0.0,0.0,0.0,0.0,0.0,0.0,0.0,0.0,3.0967,3.1277,3.1844,3.2696,3.305,3.3477,0.0,0.0,0.0,0.0,0.0,0.0,0.0,0.0,0.0,0.0,0.0,0.0,0.0,0.0,0.0,0.0,0.0,0.0,0.0,0.0,0.0,0.0,0.0,0.0,0.0,0.0,0.0,0.0,0.0,0.0,0.0,0.0,0.0,0.0,0.0,0.0,0.0,0.0,0.0,0.0,0.0,0.0,0.0,0.0,0.0,0.0,0.0,0.0,0.0,0.0,0.0,0.0,0.0,0.0,0.0,0.0,0.0,0.0,0.0,0.0,0.0,0.0,0.0,0.0,0.0,0.0,0.0,0.0,0.0,0.0,0.0,0.0,0.0,0.0,0.0,0.0,0.0,0.0,0.0,0.0,0.0,0.0,0.0,0.0,0.0,0.0,0.0,0.0,0.0,0.0,0.0,0.0,0.0,0.0,0.0,0.0,0.0,0.0,0.0,0.0,0.0,0.0,0.0,0.0,0.0,0.0,0.0,0.0,0.0,3.2445,3.2388,3.2741,3.3632,3.3719,3.4024,3.457,0.0,0.0,0.0,0.0,0.0,0.0,0.0,0.0,0.0,0.0,0.0,0.0,0.0,0.0,0.0,0.0,0.0,0.0,0.0,0.0,0.0,0.0,0.0,0.0,0.0,0.0,0.0,0.0,0.0,0.0,0.0,0.0,0.0,0.0,0.0,0.0,0.0,0.0,0.0,0.0,0.0,0.0,0.0,0.0,0.0,0.0,0.0,0.0,0.0,0.0,0.0,0.0,0.0,0.0,0.0,0.0,0.0,0.0,0.0,0.0,0.0,0.0,0.0,0.0,0.0,0.0,0.0,0.0,0.0,0.0,0.0,0.0,0.0,0.0,0.0,0.0,0.0,0.0,0.0,0.0,0.0,0.0,0.0,0.0,0.0,0.0,0.0,0.0,0.0,0.0,0.0,0.0,0.0,0.0,0.0,0.0,0.0,0.0,0.0,0.0,0.0,0.0,0.0,0.0,0.0,0.0,0.0,0.0,3.4145,3.3663,3.371,3.4385,3.4612,3.4811,0.0,0.0,0.0,0.0,0.0,0.0,0.0,0.0,0.0,0.0,0.0,0.0,0.0,0.0,0.0,0.0,0.0,0.0,0.0,0.0,0.0,0.0,0.0,0.0,0.0,0.0,0.0,0.0,0.0,0.0,0.0,0.0,0.0,0.0,0.0,0.0,0.0,0.0,0.0,0.0,0.0,0.0,0.0,0.0,0.0,0.0,0.0,0.0,0.0,0.0,0.0,0.0,0.0,0.0,0.0,0.0,0.0,0.0,0.0,0.0,0.0,0.0,0.0,0.0,0.0,0.0,0.0,0.0,0.0,0.0,0.0,0.0,0.0,0.0,0.0,0.0,0.0,0.0,0.0,0.0,0.0,0.0,0.0,0.0,0.0,0.0,0.0,0.0,0.0,0.0,0.0,0.0,0.0,0.0,0.0,0.0,0.0,0.0,0.0,0.0,0.0,0.0,0.0,0.0,0.0,0.0,0.0,0.0,0.0,3.4819,3.5401,3.5361,3.4674,3.5096,3.5213,0.0,0.0,0.0,0.0,0.0,0.0,0.0,0.0,0.0,0.0,0.0,0.0,0.0,0.0,0.0,0.0,0.0,0.0,0.0,0.0,0.0,0.0,0.0,0.0,0.0,0.0,0.0,0.0,0.0,0.0,0.0,0.0,0.0,0.0,0.0,0.0,0.0,0.0,0.0,0.0,0.0,0.0,0.0,0.0,0.0,0.0,0.0,0.0,0.0,0.0,0.0,0.0,0.0,0.0,0.0,0.0,0.0,0.0,0.0,0.0,0.0,0.0,0.0,0.0,0.0,0.0,0.0,0.0,0.0,0.0,0.0,0.0,0.0,0.0,0.0,0.0,0.0,0.0,0.0,0.0,0.0,0.0,0.0,0.0,0.0,0.0,0.0,0.0,0.0,0.0,0.0,0.0,0.0,0.0,0.0,0.0,0.0,0.0,0.0,0.0,0.0,0.0,0.0,0.0,0.0,0.0,0.0,0.0,3.5056,3.5729,3.6575,3.6614,3.5764,3.5815,3.5765,0.0,0.0,0.0,0.0,0.0,0.0,0.0,0.0,0.0,0.0,0.0,0.0,0.0,0.0,0.0,0.0,0.0,0.0,0.0,0.0,0.0,0.0,0.0,0.0,0.0,0.0,0.0,0.0,0.0,0.0,0.0,0.0,0.0,0.0,0.0,0.0,0.0,0.0,0.0,0.0,0.0,0.0,0.0,0.0,0.0,0.0,0.0,0.0,0.0,0.0,0.0,0.0,0.0,0.0,0.0,0.0,0.0,0.0,0.0,0.0,0.0,0.0,0.0,0.0,0.0,0.0,0.0,0.0,0.0,0.0,0.0,0.0,0.0,0.0,0.0,0.0,0.0,0.0,0.0,0.0,0.0,0.0,0.0,0.0,0.0,0.0,0.0,0.0,0.0,0.0,0.0,0.0,0.0,0.0,0.0,0.0,0.0,0.0,0.0,0.0,0.0,0.0,0.0,0.0,0.0,0.0,0.0,0.0,3.5702,3.6693,3.7385,3.7641,3.7408,3.6745,3.642,0.0,0.0,0.0,0.0,0.0,0.0,0.0,0.0,0.0,0.0,0.0,0.0,0.0,0.0,0.0,0.0,0.0,0.0,0.0,0.0,0.0,0.0,0.0,0.0,0.0,0.0,0.0,0.0,0.0,0.0,0.0,0.0,0.0,0.0,0.0,0.0,0.0,0.0,0.0,0.0,0.0,0.0,0.0,0.0,0.0,0.0,0.0,0.0,0.0,0.0,0.0,0.0,0.0,0.0,0.0,0.0,0.0,0.0,0.0,0.0,0.0,0.0,0.0,0.0,0.0,0.0,0.0,0.0,0.0,0.0,0.0,0.0,0.0,0.0,0.0,0.0,0.0,0.0,0.0,0.0,0.0,0.0,0.0,0.0,0.0,0.0,0.0,0.0,0.0,0.0,0.0,0.0,0.0,0.0,0.0,0.0,0.0,0.0,0.0,0.0,0.0,0.0,0.0,0.0,0.0,0.0,0.0,0.0,3.6471,3.7372,3.8308,3.8741,3.8698,3.8047,3.7326,0.0,0.0,0.0,0.0,0.0,0.0,0.0,0.0,0.0,0.0,0.0,0.0,0.0,0.0,0.0,0.0,0.0,0.0,0.0,0.0,0.0,0.0,0.0,0.0,0.0,0.0,0.0,0.0,0.0,0.0,0.0,0.0,0.0,0.0,0.0,0.0,0.0,0.0,0.0,0.0,0.0,0.0,0.0,0.0,0.0,0.0,0.0,0.0,3.3947,0.0,0.0,0.0,0.0,0.0,0.0,0.0,0.0,0.0,0.0,0.0,0.0,0.0,0.0,0.0,0.0,0.0,0.0,0.0,0.0,0.0,0.0,0.0,0.0,0.0,0.0,0.0,0.0,0.0,0.0,0.0,0.0,0.0,0.0,0.0,0.0,0.0,0.0,0.0,0.0,0.0,0.0,0.0,0.0,0.0,0.0,0.0,0.0,0.0,0.0,0.0,0.0,0.0,0.0,0.0,0.0,0.0,0.0,0.0,3.7014,3.8139,3.8781,3.9141,3.9208,3.8597,3.7815,0.0,0.0,0.0,0.0,0.0,0.0,0.0,0.0,0.0,0.0,0.0,0.0,0.0,0.0,0.0,0.0,0.0,0.0,0.0,0.0,0.0,0.0,0.0,0.0,0.0,0.0,0.0,0.0,0.0,0.0,0.0,0.0,0.0,0.0,0.0,0.0,0.0,0.0,0.0,0.0,0.0,0.0,0.0,0.0,0.0,0.0,0.0,0.0,0.0,0.0,0.0,0.0,0.0,0.0,0.0,0.0,0.0,0.0,0.0,0.0,0.0,0.0,0.0,0.0,0.0,0.0,0.0,0.0,0.0,0.0,0.0,0.0,0.0,0.0,0.0,0.0,0.0,0.0,0.0,0.0,0.0,0.0,0.0,0.0,0.0,0.0,0.0,0.0,0.0,0.0,0.0,0.0,0.0,0.0,0.0,0.0,0.0,0.0,0.0,0.0,0.0,0.0,0.0,0.0,0.0,0.0,0.0,3.6595,3.7496,3.8778,3.9035,3.9223,3.9391,3.8751,3.8078,3.7411,0.0,0.0,0.0,0.0,0.0,0.0,0.0,0.0,0.0,0.0,0.0,0.0,0.0,0.0,0.0,0.0,0.0,0.0,0.0,0.0,0.0,0.0,0.0,0.0,0.0,0.0,0.0,0.0,0.0,0.0,0.0,0.0,0.0,0.0,0.0,0.0,0.0,0.0,3.2789,3.3561,0.0,0.0,0.0,0.0,0.0,0.0,0.0,0.0,3.5617,0.0,0.0,0.0,0.0,0.0,0.0,0.0,0.0,0.0,0.0,0.0,0.0,0.0,0.0,0.0,0.0,0.0,0.0,0.0,0.0,0.0,0.0,0.0,0.0,0.0,0.0,0.0,0.0,0.0,0.0,0.0,0.0,0.0,0.0,0.0,0.0,0.0,0.0,0.0,0.0,0.0,0.0,0.0,0.0,0.0,0.0,0.0,0.0,0.0,0.0,0.0,0.0,0.0,0.0,0.0,0.0,3.6502,3.7461,3.8287,3.902,3.9241,3.9379,3.9382,3.8751,3.8086,3.7411,0.0,0.0,0.0,0.0,0.0,0.0,0.0,0.0,0.0,0.0,0.0,0.0,0.0,0.0,0.0,0.0,0.0,0.0,0.0,0.0,0.0,0.0,0.0,0.0,0.0,0.0,0.0,0.0,0.0,0.0,0.0,0.0,0.0,0.0,0.0,0.0,0.0,0.0,0.0,3.526,3.5636,0.0,0.0,0.0,0.0,0.0,0.0,0.0,0.0,3.5889,0.0,0.0,0.0,0.0,0.0,0.0,0.0,0.0,0.0,0.0,0.0,0.0,0.0,0.0,0.0,0.0,0.0,0.0,0.0,0.0,0.0,0.0,0.0,0.0,0.0,0.0,0.0,0.0,0.0,0.0,0.0,0.0,0.0,0.0,0.0,0.0,0.0,0.0,0.0,0.0,0.0,0.0,0.0,0.0,0.0,0.0,0.0,0.0,0.0,0.0,0.0,0.0,0.0,0.0,0.0,3.6711,3.7366,3.8136,3.9069,3.9301,3.9397,3.9382,3.8413,3.7719,0.0,0.0,0.0,0.0,0.0,0.0,0.0,0.0,0.0,0.0,0.0,0.0,0.0,0.0,0.0,0.0,0.0,0.0,0.0,0.0,0.0,0.0,0.0,0.0,0.0,0.0,0.0,0.0,0.0,0.0,0.0,0.0,0.0,0.0,0.0,0.0,0.0,0.0,0.0,0.0,3.5363,3.5737,3.5108,0.0,0.0,0.0,0.0,0.0,0.0,3.6618,3.644,0.0,0.0,0.0,0.0,0.0,0.0,0.0,0.0,0.0,0.0,0.0,0.0,0.0,0.0,0.0,0.0,0.0,0.0,0.0,0.0,0.0,0.0,0.0,0.0,0.0,0.0,0.0,0.0,0.0,0.0,0.0,0.0,0.0,0.0,0.0,0.0,0.0,0.0,0.0,0.0,0.0,0.0,0.0,0.0,0.0,0.0,0.0,0.0,0.0,0.0,0.0,0.0,0.0,0.0,0.0,3.6942,3.7424,3.8136,3.9114,3.9319,3.9397,3.9382,3.8248,3.7554,0.0,0.0,0.0,0.0,0.0,0.0,0.0,0.0,0.0,0.0,0.0,0.0,0.0,0.0,0.0,0.0,0.0,0.0,0.0,0.0,0.0,0.0,0.0,0.0,0.0,0.0,0.0,0.0,0.0,0.0,0.0,0.0,0.0,0.0,0.0,0.0,0.0,0.0,0.0,0.0,0.0,3.5857,3.5771,3.6518,0.0,0.0,0.0,0.0,3.7665,3.7223,0.0,0.0,0.0,0.0,0.0,0.0,0.0,0.0,0.0,0.0,0.0,0.0,0.0,0.0,0.0,0.0,0.0,0.0,0.0,0.0,0.0,0.0,0.0,0.0,0.0,0.0,0.0,0.0,0.0,0.0,0.0,0.0,0.0,0.0,0.0,0.0,0.0,0.0,0.0,0.0,0.0,0.0,0.0,0.0,0.0,0.0,0.0,0.0,0.0,0.0,0.0,0.0,0.0,0.0,0.0,0.0,3.7203,3.8477,3.9224,3.9355,3.9397,3.9397,3.9397,3.8667,3.8012,0.0,0.0,0.0,0.0,0.0,0.0,0.0,0.0,0.0,0.0,0.0,0.0,0.0,0.0,0.0,0.0,0.0,0.0,0.0,0.0,0.0,0.0,0.0,0.0,0.0,0.0,0.0,0.0,0.0,0.0,0.0,0.0,0.0,0.0,0.0,0.0,0.0,0.0,0.0,0.0,0.0,3.703,3.6619,3.7662,3.8256,0.0,0.0,0.0,3.7471,3.6946,0.0,0.0,0.0,0.0,0.0,0.0,0.0,0.0,0.0,0.0,0.0,0.0,0.0,0.0,0.0,0.0,0.0,0.0,0.0,0.0,0.0,0.0,0.0,0.0,0.0,0.0,0.0,0.0,0.0,0.0,0.0,0.0,0.0,0.0,0.0,0.0,0.0,0.0,0.0,0.0,0.0,0.0,0.0,0.0,0.0,0.0,0.0,0.0,0.0,0.0,0.0,0.0,0.0,0.0,0.0,3.6865,3.7323,3.8318,3.9011,3.9391,3.9397,3.9397,3.9397,3.8383,3.7695,0.0,0.0,0.0,0.0,0.0,0.0,0.0,0.0,0.0,0.0,0.0,0.0,0.0,0.0,0.0,0.0,0.0,0.0,0.0,0.0,0.0,0.0,0.0,0.0,0.0,0.0,0.0,0.0,0.0,0.0,0.0,0.0,0.0,0.0,0.0,0.0,0.0,0.0,0.0,0.0,0.0,0.0,3.6737,3.8046,0.0,0.0,0.0,3.8913,3.8592,0.0,0.0,0.0,0.0,0.0,0.0,0.0,0.0,0.0,0.0,0.0,0.0,0.0,0.0,0.0,0.0,0.0,0.0,0.0,0.0,0.0,0.0,0.0,0.0,0.0,0.0,0.0,0.0,0.0,0.0,0.0,0.0,0.0,0.0,0.0,0.0,0.0,0.0,0.0,0.0,0.0,0.0,0.0,0.0,0.0,0.0,0.0,0.0,0.0,0.0,0.0,0.0,0.0,0.0,0.0,0.0,0.0,3.7539,3.8367,3.9016,3.9466,3.9487,3.9454,3.9376,3.8255,0.0,0.0,0.0,0.0,0.0,0.0,0.0,0.0,0.0,0.0,0.0,0.0,0.0,0.0,0.0,0.0,0.0,0.0,0.0,0.0,0.0,0.0,0.0,0.0,0.0,0.0,0.0,3.5571,0.0,0.0,0.0,0.0,0.0,0.0,0.0,0.0,0.0,0.0,0.0,0.0,0.0,0.0,3.7107,3.7323,3.8605,3.9444,0.0,0.0,3.9934,3.9526,3.8912,3.8288,0.0,0.0,0.0,0.0,0.0,0.0,0.0,0.0,0.0,0.0,0.0,0.0,0.0,0.0,0.0,0.0,0.0,0.0,0.0,0.0,0.0,0.0,0.0,0.0,0.0,0.0,0.0,0.0,0.0,0.0,0.0,0.0,0.0,0.0,0.0,0.0,0.0,0.0,0.0,0.0,0.0,0.0,0.0,0.0,0.0,0.0,0.0,0.0,0.0,0.0,0.0,0.0,0.0,0.0,0.0,3.8002,3.9239,3.9811,3.9696,3.9687,3.9583,3.9385,3.8721,3.8033,0.0,0.0,0.0,0.0,0.0,0.0,0.0,0.0,0.0,0.0,0.0,0.0,0.0,0.0,0.0,0.0,0.0,0.0,0.0,0.0,0.0,0.0,0.0,0.0,0.0,0.0,0.0,0.0,0.0,0.0,0.0,0.0,0.0,0.0,0.0,0.0,0.0,0.0,0.0,0.0,0.0,3.821,3.9028,3.9766,4.0242,0.0,0.0,4.0139,3.975,3.9121,3.8602,3.8367,0.0,0.0,0.0,0.0,0.0,0.0,0.0,0.0,0.0,0.0,0.0,0.0,0.0,0.0,0.0,0.0,0.0,0.0,0.0,0.0,0.0,0.0,0.0,0.0,0.0,0.0,0.0,0.0,0.0,0.0,0.0,0.0,0.0,0.0,0.0,0.0,0.0,0.0,0.0,0.0,0.0,0.0,0.0,0.0,0.0,0.0,0.0,0.0,0.0,0.0,0.0,0.0,0.0,3.7999,3.8006,3.9319,3.9975,3.9883,3.9744,3.9679,3.9589,3.8813,3.8281,0.0,0.0,0.0,0.0,0.0,0.0,0.0,0.0,0.0,0.0,0.0,0.0,0.0,0.0,0.0,0.0,0.0,0.0,0.0,0.0,0.0,0.0,0.0,0.0,0.0,0.0,0.0,0.0,3.5892,3.5904,3.6167,0.0,0.0,0.0,0.0,0.0,0.0,0.0,0.0,0.0,0.0,3.8933,3.9254,3.9937,0.0,0.0,4.0578,4.0497,4.1025,4.0207,3.9478,3.9404,3.8435,0.0,0.0,0.0,0.0,0.0,0.0,0.0,0.0,0.0,0.0,0.0,0.0,0.0,0.0,0.0,0.0,0.0,0.0,0.0,0.0,0.0,0.0,0.0,0.0,0.0,0.0,0.0,0.0,0.0,0.0,0.0,0.0,0.0,0.0,0.0,0.0,0.0,0.0,0.0,0.0,0.0,0.0,0.0,0.0,0.0,0.0,0.0,0.0,0.0,0.0,0.0,0.0,3.8158,3.8158,3.9468,4.0113,4.0099,3.9954,3.9815,3.9684,3.909,3.8672,0.0,0.0,0.0,0.0,0.0,0.0,0.0,0.0,0.0,0.0,0.0,0.0,0.0,0.0,0.0,0.0,0.0,0.0,0.0,0.0,0.0,0.0,0.0,0.0,0.0,0.0,0.0,0.0,3.6638,3.6445,3.6051,0.0,0.0,0.0,0.0,0.0,0.0,0.0,0.0,0.0,0.0,3.9515,3.993,4.0477,4.1032,4.161,4.1301,4.1184,4.1693,4.1149,4.0592,4.0344,0.0,0.0,0.0,0.0,0.0,0.0,0.0,0.0,0.0,0.0,0.0,0.0,0.0,0.0,0.0,0.0,0.0,0.0,0.0,0.0,0.0,0.0,0.0,0.0,0.0,0.0,0.0,0.0,0.0,0.0,0.0,0.0,0.0,0.0,0.0,0.0,0.0,0.0,0.0,0.0,0.0,0.0,0.0,0.0,0.0,0.0,0.0,0.0,0.0,0.0,0.0,0.0,0.0,0.0,3.8529,3.9796,4.0427,4.0327,4.0285,4.0141,3.9771,3.969,3.9276,3.8439,0.0,0.0,0.0,0.0,0.0,0.0,0.0,0.0,0.0,0.0,0.0,0.0,0.0,0.0,0.0,0.0,0.0,0.0,0.0,0.0,0.0,0.0,0.0,0.0,0.0,0.0,3.8687,3.8319,3.7408,0.0,0.0,0.0,0.0,0.0,0.0,0.0,0.0,0.0,0.0,3.9468,4.0006,4.1346,4.1546,4.1808,4.2476,4.2537,4.2252,4.1529,4.1854,4.1964,0.0,0.0,0.0,0.0,0.0,0.0,0.0,0.0,0.0,0.0,0.0,0.0,0.0,0.0,0.0,0.0,0.0,0.0,0.0,0.0,0.0,0.0,0.0,0.0,0.0,0.0,0.0,0.0,0.0,0.0,0.0,0.0,0.0,0.0,0.0,0.0,0.0,0.0,0.0,0.0,3.8064,3.8137,0.0,0.0,0.0,0.0,0.0,0.0,0.0,0.0,0.0,0.0,0.0,0.0,3.8707,3.9184,4.0037,4.0711,4.1129,4.1029,4.1103,4.1404,4.1158,4.0407,3.9101,0.0,0.0,0.0,0.0,0.0,0.0,0.0,0.0,0.0,0.0,0.0,0.0,0.0,0.0,0.0,0.0,0.0,0.0,0.0,0.0,0.0,0.0,0.0,0.0,0.0,3.7891,0.0,0.0,0.0,0.0,0.0,0.0,0.0,0.0,0.0,0.0,0.0,3.9355,4.0074,4.0968,4.1746,4.2193,4.227,4.2494,0.0,0.0,0.0,0.0,0.0,0.0,0.0,0.0,0.0,0.0,0.0,0.0,0.0,0.0,3.9302,3.9048,3.8994,3.8994,3.8994,0.0,0.0,0.0,0.0,0.0,0.0,0.0,0.0,0.0,0.0,0.0,0.0,0.0,0.0,0.0,0.0,3.5757,0.0,0.0,0.0,0.0,0.0,0.0,0.0,0.0,3.8638,3.8845,3.8861,3.8845,3.8722,0.0,3.8508,3.7807,0.0,0.0,0.0,0.0,0.0,0.0,0.0,0.0,3.9168,3.9861,4.0529,4.1239,4.1909,4.1823,4.1926,4.2282,4.1904,4.1208,4.0127,3.9439,3.8781,0.0,0.0,0.0,0.0,0.0,0.0,0.0,0.0,0.0,0.0,0.0,0.0,0.0,0.0,0.0,0.0,0.0,0.0,0.0,0.0,0.0,0.0,0.0,3.8746,0.0,0.0,0.0,0.0,0.0,0.0,0.0,0.0,0.0,3.793,3.9414,4.0683,4.1159,4.203,4.2694,4.2934,0.0,0.0,0.0,0.0,0.0,0.0,0.0,4.3365,4.3553,4.3636,4.3648,4.3639,4.3294,4.2987,4.2971,0.0,0.0,4.1491,4.123,4.1291,4.1531,4.1771,4.2008,4.2239,4.2461,4.2753,0.0,0.0,0.0,0.0,0.0,0.0,0.0,0.0,3.7357,3.736,0.0,3.7562,0.0,0.0,0.0,0.0,0.0,0.0,0.0,0.0,3.9507,3.9522,3.9537,3.9537,3.9214,3.8623,3.8653,3.8638,3.8646,3.8623,0.0,0.0,0.0,0.0,0.0,0.0,3.9852,4.0513,4.1254,4.1946,4.2593,4.2623,4.2532,4.2383,4.1968,4.1669,4.1432,4.0765,4.0118,3.9496,3.8796,0.0,0.0,0.0,0.0,0.0,0.0,0.0,0.0,0.0,0.0,0.0,0.0,0.0,0.0,0.0,0.0,0.0,0.0,0.0,0.0,4.0074,0.0,0.0,0.0,0.0,0.0,0.0,0.0,0.0,0.0,0.0,4.0575,4.0621,4.1107,4.2439,0.0,0.0,0.0,0.0,4.3861,4.4483,4.4606,4.44,4.3809,4.4237,4.4462,4.383,0.0,0.0,4.5613,4.5613,4.5566,4.5613,4.6003,4.5788,4.3233,4.2808,4.2962,4.3568,4.4169,4.4812,4.5468,4.5782,4.6286,3.8531,0.0,0.0,0.0,0.0,3.7387,3.7387,3.7387,3.7387,3.7479,3.7622,3.7673,0.0,0.0,0.0,0.0,0.0,0.0,3.9273,3.9537,3.9999,4.023,4.0213,4.0221,4.0368,4.07,4.0715,4.0946,4.1408,4.1439,4.0423,3.8539,0.0,0.0,0.0,0.0,4.0568,4.1269,4.1962,4.2633,4.3297,4.3313,4.3451,4.3723,4.3016,4.2542,4.2333,4.1554,4.1044,4.0825,3.9738,0.0,0.0,0.0,0.0,0.0,0.0,0.0,0.0,0.0,0.0,0.0,0.0,0.0,0.0,0.0,0.0,0.0,0.0,0.0,4.0815,4.1159,4.0915,0.0,0.0,0.0,0.0,0.0,0.0,0.0,0.0,0.0,4.2518,4.2712,4.2866,0.0,0.0,4.4098,4.4292,4.4308,4.4385,4.4575,0.0,0.0,0.0,4.5592,4.5957,4.5767,4.6059,4.6311,4.6311,4.6311,4.6311,4.6321,4.6465,4.6326,4.568,4.5449,4.5511,4.572,4.5905,4.6074,4.6275,4.648,4.6619,3.9457,3.8421,3.8447,3.843,3.8415,3.843,3.8415,3.8424,3.8415,3.8506,3.8618,3.8689,3.8807,3.892,3.9096,0.0,0.0,0.0,4.0061,4.0337,4.0753,4.1076,4.1322,4.1322,4.1562,4.1977,4.2001,4.2208,4.2593,4.2593,4.1777,4.0177,0.0,0.0,4.0737,4.1137,4.1685,4.2389,4.2796,4.3328,4.3984,4.399,4.4096,4.4264,4.3779,4.3396,4.3107,4.2334,4.1878,4.1787,4.0771,3.9954,0.0,0.0,0.0,0.0,0.0,0.0,0.0,0.0,0.0,0.0,0.0,3.6863,3.8035,0.0,0.0,0.0,4.0046,4.0979,4.1931,4.2001,0.0,0.0,0.0,0.0,0.0,0.0,0.0,4.0845,4.1408,4.2195,4.3445,4.4061,4.4292,4.4046,4.4585,4.4991,4.4981,0.0,4.5407,4.5382,4.5736,4.5998,4.5998,4.6336,4.6665,4.6973,4.7004,4.7127,4.7357,4.7388,4.7378,4.7388,4.7388,4.7388,4.7394,4.7388,4.7286,4.706,4.6988,4.708,4.7332,4.7394,4.7378,4.0207,4.0046,4.0101,4.0083,4.0002,4.0002,4.0002,4.0002,4.0002,4.0004,4.0046,4.0215,4.0342,4.0406,4.0582,0.0,0.0,4.0384,4.103,4.1678,4.1678,4.2017,4.2584,4.2602,4.2633,4.2679,4.2679,4.27,4.2786,4.2771,4.2771,4.2771,4.2747,4.2709,4.2608,4.2654,4.2971,4.3584,4.3645,4.3984,4.4575,4.4591,4.4505,4.4329,4.431,4.4118,4.3763,4.3151,4.2708,4.2514,4.1885,4.0962,3.9766,0.0,0.0,0.0,0.0,0.0,0.0,0.0,0.0,0.0,0.0,0.0,0.0,0.0,0.0,0.0,4.1891,0.0,4.2679,4.2679,0.0,0.0,0.0,4.1408,4.0744,4.1276,4.1724,4.1832,0.0,0.0,0.0,0.0,4.5443,4.4837,4.5289,4.5674,4.569,4.6167,4.6603,4.6526,4.6629,4.6675,4.668,4.6788,4.7065,4.7578,4.7671,4.7886,4.8394,4.8532,4.8568,4.8507,4.8568,4.8609,4.8671,4.864,4.8517,4.8009,4.7763,4.7881,4.8486,4.864,4.8655,4.042,4.0438,4.0984,4.0757,4.0002,4.0002,4.0002,4.0002,4.0002,4.0084,4.0233,4.0285,4.0673,4.1309,4.1867,4.2008,4.1861,4.203,4.2193,4.2362,4.2371,4.2439,4.2593,4.2593,4.2863,4.3328,4.3384,4.363,4.4104,4.4129,4.4129,4.4138,4.4129,4.3602,4.267,4.3103,4.3445,4.3608,4.4107,4.4437,4.4575,4.4591,4.4597,4.4515,4.4377,4.4253,4.4156,4.3855,4.3658,4.3604,4.2983,4.2459,4.2132,4.1173,0.0,0.0,0.0,0.0,0.0,0.0,0.0,0.0,0.0,3.9911,4.074,0.0,4.21,0.0,4.2873,4.3384,4.3359,4.3368,0.0,0.0,4.2672,4.2309,4.2107,4.2245,4.2765,4.3775,4.4175,4.4751,4.5741,4.6167,4.6321,4.6151,4.6269,4.6382,4.6372,4.6475,4.6603,4.6665,4.705,4.7357,4.7388,4.7809,4.8132,4.8332,4.8337,4.8425,4.8563,4.8583,4.8583,4.8583,4.8583,4.8809,4.9328,4.9446,4.9589,4.9789,4.9127,4.8578,4.9266,4.9446,4.9584,4.1445,4.1467,4.1861,4.1716,4.1167,4.1152,4.1152,4.1143,4.1158,4.1205,4.1312,4.1336,4.158,4.2054,4.2432,4.2593,4.2593,4.2593,4.278,4.3042,4.3042,4.3196,4.3488,4.3479,4.3682,4.4046,4.4046,4.4231,4.4591,4.4591,4.4591,4.4591,4.4591,4.4221,4.3534,4.3867,4.4036,4.4036,4.4391,4.4591,4.4591,4.4591,4.4591,4.4591,4.4502,4.4396,4.431,4.4195,4.4094,4.3992,4.3643,4.3308,4.301,4.2312,4.1583,0.0,0.0,0.0,0.0,0.0,0.0,0.0,0.0,0.0,0.0,0.0,4.3165,0.0,4.3836,0.0,4.4036,4.4314,4.4492,4.4492,4.4418,4.4387,4.4378,4.4387,4.4664,4.5397,4.5499,4.5767,4.6511,4.6865,4.704,4.705,4.7296,4.7388,4.7127,4.727,4.7496,4.7517,4.7794,4.8055,4.804,4.8363,4.8583,4.8583,4.8583,4.8583,4.8599,4.8881,4.9097,4.9112,4.9317,4.964,5.0062,5.0128,5.0292,5.0477,5.0097,4.9758,5.0062,5.0154,5.0277,4.2593,4.2608,4.2685,4.2731,4.274,4.2808,4.2762,4.2593,4.2593,4.2593,4.2593,4.2685,4.2716,4.274,4.2808,4.2839,4.2854,4.2854,4.318,4.3707,4.3722,4.403,4.4575,4.4591,4.4591,4.4591,4.4591,4.4591,4.4591,4.4591,4.4591,4.4591,4.4591,4.4637,4.4729,4.4723,4.4683,4.4591,4.4591,4.4591,4.4591,4.4591,4.4591,4.4591,4.4591,4.453,4.4349,4.4329,4.4262,4.4094,4.4145,4.3892,4.3248,4.3202,4.2904,0.0,4.1578,0.0,0.0,0.0,0.0,0.0,0.0,0.0,0.0,4.343,4.4129,4.4806,4.4852,4.4852,4.4862,4.5391,4.5736,4.5751,4.6244,4.6603,4.6588,4.6603,4.6619,4.6726,4.6752,4.6742,4.6921,4.7378,4.7727,4.7763,4.8148,4.8286,4.7901,4.8178,4.8486,4.8583,4.8583,4.8517,4.8522,4.8563,4.864,4.8717,4.8794,4.8789,4.8932,4.942,4.9831,4.9887,5.0246,5.0651,5.079,5.082,5.0867,5.1021,5.099,5.0928,5.0851,5.082,5.0862,4.2593,4.2648,4.319,4.3424,4.3461,4.3981,4.3596,4.2593,4.2593,4.2593,4.2648,4.3159,4.3405,4.3461,4.3965,4.4221,4.4221,4.4237,4.4283,4.4421,4.4406,4.4468,4.4591,4.4591,4.4591,4.4591,4.4591,4.4591,4.4591,4.4591,4.4591,4.4591,4.4591,4.4883,0.0,0.0,0.0,0.0,4.4591,4.4591,4.4591,4.4591,4.4591,4.4591,4.4591,0.0,4.4534,4.4549,4.454,4.4507,4.5014,0.0,0.0,0.0,0.0,0.0,0.0,0.0,0.0,0.0,0.0,0.0,4.3889,4.3713,4.3467,4.4514,4.5505,4.6151,4.6219,4.6228,4.6219,4.6321,4.6403,4.6419,4.6552,4.6603,4.6603,4.6619,4.6788,4.7357,4.7419,4.7624,4.8086,4.8348,4.8383,4.8378,4.8507,4.8563,4.8414,4.8501,4.8583,4.8583,4.8609,4.8599,4.8583,4.863,4.8943,4.9281,4.9492,4.9692,5.0128,5.0359,5.0508,5.0508,5.062,5.0913,5.1405,5.1498,5.1656,5.2194,5.2287,5.2148,5.1636,5.1513,5.1656,4.3587,0.0,4.3944,4.4083,0.0,4.4462,4.4221,4.3596,4.3581,4.3587,4.3611,4.3935,4.4092,4.4098,4.4462,4.4591,4.4591,4.4591,4.4591,4.4591,4.4591,4.4591,4.4591,4.4591,4.4785,4.5074,4.5089,4.5268,4.5592,4.5607,4.5597,4.5607,4.5582,4.5751,4.6065,4.608,4.5921,4.5592,4.5582,4.5582,4.5592,4.5582,4.5582,4.5607,0.0,0.0,0.0,0.0,0.0,0.0,0.0,0.0,0.0,0.0,0.0,4.5089,4.4756,4.4572,4.4572,4.4578,4.4849,4.552,4.5592,4.5428,4.5114,4.5705,4.6219,4.6567,4.6603,4.6603,4.6603,4.6896,4.7086,4.7111,4.7388,4.7588,4.7588,4.7604,4.7717,4.7994,4.8086,4.824,4.8548,4.8583,4.8583,4.8583,4.8583,4.8599,4.8583,4.8583,4.8583,4.8599,4.8943,4.9158,4.9189,4.9451,4.9702,5.0112,5.02,5.0328,5.0647,5.0974,5.119,5.1221,5.1451,5.1821,5.2082,5.2194,5.2302,5.2595,5.2702,5.261,5.2267,5.2206,5.2271,4.496,4.496,4.4954,4.496,4.496,4.496,4.496,4.4945,0.0,0.0,0.0,4.4591,4.4591,4.4591,4.4591,4.4677,4.476,4.4776,4.4837,4.496,4.496,4.4945,4.4945,4.496,4.5237,4.5776,4.5767,4.6049,4.6588,4.6603,4.6603,4.6603,4.6603,4.6659,4.6773,4.6896,4.6967,4.6942,4.6736,4.6603,4.6603,4.6603,4.6603,4.6603,4.6603,4.6603,4.6603,4.6603,4.6603,4.6603,4.6721,4.6711,4.6613,4.6696,4.6726,4.6603,4.6603,4.6603,4.6603,4.6603,4.665,4.6773,4.688,4.6896,4.6788,4.6773,4.6834,4.6957,4.6942,4.6947,4.6957,4.7424,4.7763,4.7778,4.8271,4.8568,4.8568,4.8583,4.8522,4.8583,4.8563,4.8583,4.8594,4.8583,4.866,4.8763,4.8855,4.886,4.8932,4.8932,4.8917,4.9117,4.9558,4.9866,4.9954,5.0251,5.0713,5.0847,5.0877,5.0913,5.1097,5.1498,5.1836,5.1871,5.2364,5.261,5.2687,5.2656,5.2748,5.2856,5.2887,5.2933,5.3014,5.3072,5.3056,4.6321,4.6321,4.6321,4.6311,4.6321,4.6321,4.6311,4.6228,4.5099,4.4591,4.4591,4.4591,4.4591,4.4591,4.4591,4.4899,4.5443,4.5468,4.5767,0.0,4.6326,4.6321,4.6321,4.6321,4.6357,4.6449,4.6444,4.6521,4.6588,4.6619,4.6603,4.6619,4.6603,4.6896,4.7465,4.8024,4.8317,4.8301,4.7173,4.6603,4.6603,4.6603,4.6603,4.6603,4.6619,4.6603,4.6603,4.6619,4.6603,4.6619,4.7157,4.7204,4.6675,4.7147,4.7204,4.665,4.6603,4.6603,4.6603,4.6603,4.686,4.7424,4.7994,4.8071,4.7517,4.744,4.7711,4.824,4.8255,4.8317,4.8332,4.8353,4.8409,4.844,4.8548,4.8583,4.8583,4.8583,4.8599,4.8645,4.8583,4.864,4.8706,4.8676,4.8948,4.9389,4.9538,4.9728,5.0112,4.9908,4.9831,5.0251,5.0493,5.0559,5.0585,5.0616,5.1005,5.1482,5.1548,5.1713,5.2164,5.2364,5.2487,5.2533,5.2656,5.2748,5.2748,5.2702,5.301,5.3429,5.3568,5.3706,5.4141,5.4306,5.4183,4.6603,4.6603,4.6603,4.6603,4.6603,4.6603,4.6603,4.6557,4.5967,4.5699,4.569,4.5674,4.5674,4.5684,4.569,4.5844,4.6136,4.6151,4.6305,4.6588,4.6603,4.6603,4.6603,4.6603,4.6798,4.7117,4.7157,4.7342,4.7655,4.7686,4.7696,4.7696,4.7686,4.7824,4.8132,4.8455,4.8583,4.8583,4.7994,4.7671,4.7686,4.7686,4.7671,4.7686,4.7686,4.7696,4.7686,4.7686,4.7686,4.7686,4.7978,4.8019,4.7727,4.7978,4.8009,4.7701,4.7671,4.7686,4.7686,4.7686,4.7824,4.8117,4.8425,4.8476,4.8178,4.8132,4.8281,4.8563,4.8583,4.8583,4.8583,4.8583,4.8583,4.8583,4.8583,4.8583,4.8583,4.8583,4.8737,4.9112,4.9189,4.9328,4.9686,4.9732,4.982,5.0185,5.0246,5.0523,5.1128,5.1001,5.0754,5.0754,5.0979,5.121,5.1251,5.1559,5.1898,5.221,5.2241,5.2348,5.2671,5.2718,5.2718,5.2733,5.2968,5.3225,5.3256,5.3553,5.3891,5.4079,5.4233,5.4402,5.4649,5.4968,5.4995,4.706,4.705,4.7065,4.705,4.706,4.705,4.705,4.705,4.7065,4.704,4.7019,4.6767,4.6603,4.6603,4.6603,4.6675,4.6803,4.6819,4.6921,4.7034,4.705,4.705,4.706,4.705,4.7327,4.7778,4.7835,4.8086,4.8548,4.8583,4.8583,4.8583,4.8583,4.8583,4.8583,4.8583,4.8583,4.8583,4.8583,4.8583,4.8583,4.8583,4.8583,4.8583,4.8583,4.8583,4.8583,4.8583,4.8583,4.8583,4.8583,4.8583,4.8583,4.8583,4.8583,4.8583,4.8583,4.8583,4.8583,4.8583,4.8583,4.8583,4.8583,4.8583,4.8599,4.8763,4.8763,4.864,4.8583,4.8583,4.8583,4.8583,4.8655,4.8794,4.884,4.8963,4.9066,4.9071,4.9281,4.9831,4.9923,5.0139,5.0543,5.0697,5.0728,5.0867,5.1062,5.139,5.1821,5.1929,5.1682,5.1447,5.1605,5.1887,5.1959,5.2313,5.261,5.2702,5.2687,5.2748,5.2872,5.2948,5.3056,5.3199,5.3599,5.3891,5.3983,5.4291,5.466,5.4829,5.4918,5.4999,5.5272,5.5638,5.5804,4.8394,4.8409,4.8337,4.8414,4.8363,4.8378,4.8348,4.8353,4.8394,4.8425,4.8224,4.7142,4.665,4.6603,4.665,4.6973,4.7496,4.7511,4.7819,4.8332,4.8409,4.8399,4.8348,4.8378,4.843,4.8476,4.8471,4.8476,4.8583,4.8583,4.8583,4.8583,4.8583,4.8583,4.8583,4.8583,4.8583,4.8583,4.8583,4.8583,4.8583,4.8583,4.8583,4.8583,4.8583,4.8583,4.8583,4.8583,4.8583,4.8583,4.8583,4.8583,4.8594,4.8594,4.8609,4.8604,4.8594,4.8583,4.8594,4.8583,4.8635,4.8583,4.8671,4.8671,4.8701,4.9235,4.9312,4.884,4.863,4.8691,4.8583,4.8671,4.8978,4.9523,4.9584,4.9841,5.0282,5.0523,5.0528,5.0585,5.0605,5.0636,5.082,5.0867,5.1021,5.1559,5.1994,5.2318,5.2456,5.2502,5.2502,5.2456,5.2579,5.2579,5.2579,5.2625,5.2748,5.2733,5.2718,5.2983,5.3383,5.3629,5.3737,5.4049,5.4476,5.4599,5.4614,5.4706,5.4995,5.5484,5.5665,5.5788,5.637,5.657,5.6524,4.8583,4.8583,4.8583,4.8583,4.8583,4.8583,4.8583,4.8583,4.8583,4.8583,4.8537,4.8009,4.7788,4.7778,4.7778,4.7948,4.8178,4.8194,4.8322,4.8594,4.8583,4.8583,4.8583,4.8583,4.8583,4.8583,4.8583,4.8583,4.8583,4.8583,4.8583,4.8583,4.8583,4.8583,4.8583,4.8583,4.8583,4.8583,4.8583,4.8583,4.8583,4.8583,4.8583,4.8583,4.8583,4.8583,4.8583,4.8583,4.8583,4.8583,4.8583,4.8671,4.8836,4.8836,4.8893,4.9,4.9011,4.9021,4.9011,4.9378,4.9553,4.9434,4.9789,4.9979,4.9861,5.0123,5.0143,4.9912,4.9835,4.9851,4.982,4.9851,4.9985,5.0231,5.0292,5.0416,5.0636,5.0713,5.082,5.1205,5.1282,5.1451,5.179,5.1871,5.1994,5.2271,5.2579,5.2718,5.2718,5.2702,5.2702,5.2748,5.301,5.3087,5.2841,5.2702,5.2872,5.3179,5.3291,5.3522,5.4076,5.4291,5.4414,5.4695,5.5045,5.5272,5.5287,5.5699,5.6065,5.6308,5.6339,5.6447,5.6751,5.6798,5.6785,4.8583,4.8583,4.8583,4.8583,4.8583,4.8583,4.8583,4.8583,4.8583,4.8583,4.8583,4.8583,4.8583,4.8583,4.8583,4.8583,4.8583,4.8583,4.8583,4.8583,4.8583,4.8583,4.8583,4.8583,4.8583,4.8583,4.8583,4.8583,4.8583,4.8583,4.8583,4.8583,4.8583,4.8583,4.8583,4.8583,4.8583,4.8583,4.8583,4.8583,4.8583,4.8583,4.8583,4.8583,4.8583,4.8583,4.8583,4.8583,4.8583,4.8583,4.8661,4.879,4.897,4.9031,4.9262,4.9673,4.9926,5.0025,5.0051,5.0439,5.0616,5.0523,5.091,5.1021,5.0859,5.0944,5.1024,5.0959,5.1139,5.1159,5.0713,5.0697,5.0759,5.0928,5.0974,5.1021,5.1236,5.1251,5.1467,5.1882,5.1964,5.2133,5.2579,5.2641,5.2625,5.2656,5.2845,5.2979,5.3025,5.3164,5.3291,5.3272,5.3691,5.3645,5.3148,5.326,5.3476,5.3726,5.3972,5.4199,5.4799,5.4949,5.5195,5.5549,5.5819,5.5957,5.6016,5.6477,5.6724,5.677,5.6782,5.6751,5.6798,5.6785,5.6785,4.8583,4.8583,4.8583,4.8583,4.8583,4.8583,4.8583,4.8583,4.8583,4.8583,4.8583,4.8583,4.8583,4.8583,4.8583,4.8583,4.8583,4.8583,4.8583,4.8583,4.8583,4.8583,4.8583,4.8583,4.8583,4.8583,4.8583,4.8583,4.8583,4.8583,4.8583,4.8583,4.8583,4.8583,4.8583,4.8583,4.8583,4.8583,4.8583,4.8583,4.8583,4.8583,4.8583,4.8583,4.8583,4.8583,4.8583,4.8583,4.8599,4.8599,4.8867,4.9022,4.9063,4.9272,4.9822,5.0616,5.1398,5.1848,5.1796,5.171,5.1659,5.1623,5.1596,5.1332,5.1227,5.1618,5.1829,5.1678,5.2133,5.2006,5.1062,5.0959,5.1124,5.159,5.1667,5.1917,5.2471,5.2395,5.2595,5.261,5.2625,5.2748,5.2779,5.2702,5.2845,5.2953,5.3291,5.366,5.3733,5.4156,5.4387,5.446,5.4506,5.4429,5.3876,5.3926,5.4356,5.4618,5.4706,5.4887,5.5315,5.5727,5.6065,5.6327,5.6462,5.6585,5.6705,5.6767,5.6782,5.6785,5.6785,5.6785,5.6785,5.6785,5.6785,4.8583,4.8583,4.8583,4.8583,4.8583,4.8583,4.8583,4.8583,4.8583,4.8583,4.8583,4.8583,4.8583,4.8583,4.8583,4.8583,4.8583,4.8583,4.8583,4.8583,4.8583,4.8583,4.8583,4.8583,4.8583,4.8583,4.8583,4.8583,4.8583,4.8583,4.8583,4.8583,4.8583,4.8583,4.8583,4.8583,4.8583,4.8583,4.8583,4.8583,4.8583,4.8583,4.8583,4.8583,4.8583,4.8583,4.8583,4.8583,4.8809,4.9281,4.9527,4.9988,5.0699,5.1324,5.1807,5.2159,5.2485,5.2627,5.2671,5.2855,5.2836,5.2597,5.2928,5.2833,5.25,5.2555,5.26,5.2461,5.2533,5.241,5.2164,5.1979,5.2071,5.2283,5.2348,5.2456,5.2625,5.2702,5.2702,5.2764,5.3056,5.3487,5.3799,5.3968,5.3983,5.3987,5.4187,5.431,5.4356,5.4572,5.4783,5.4799,5.5057,5.5257,5.5068,5.4722,5.4787,5.5152,5.541,5.5715,5.6108,5.6277,5.6554,5.6554,5.6755,5.6798,5.6782,5.6782,5.6785,5.6785,5.6785,5.6785,5.6785,5.6785,5.6785,4.8583,4.8583,4.8583,4.8583,4.8583,4.8583,4.8583,4.8583,4.8583,4.8583,4.8583,4.8583,4.8583,4.8583,4.8583,4.8583,4.8583,4.8583,4.8583,4.8583,4.8583,4.8583,4.8583,4.8583,4.8583,4.8583,4.8583,4.8583,4.8583,4.8583,4.8583,4.8583,4.8583,4.8583,4.8583,4.8583,4.8583,4.8583,4.8583,4.8583,4.8625,4.884,4.8958,4.8989,4.9174,4.9163,4.8978,4.9148,4.9524,5.005,5.0297,5.0913,5.1975,5.2921,5.3486,5.3546,5.3858,5.3965,5.3923,5.4125,5.4065,5.3639,5.3899,5.3915,5.3314,5.3401,5.3332,5.3131,5.3272,5.3364,5.3337,5.3337,5.326,5.3133,5.3199,5.3333,5.3349,5.3379,5.3395,5.346,5.3768,5.4214,5.4587,5.466,5.4633,5.4691,5.486,5.5014,5.5026,5.5257,5.538,5.541,5.5804,5.6031,5.5969,5.5745,5.5638,5.5915,5.5961,5.6339,5.6524,5.6708,5.6785,5.6785,5.6785,5.6785,5.6785,5.6785,5.6785,5.6785,5.6785,5.6785,5.6785,5.6785,5.6785,4.8583,4.8583,4.8583,4.8583,4.8583,4.8583,4.8583,4.8583,4.8583,4.8583,4.8583,4.8583,4.8583,4.8583,4.8583,4.8583,4.8583,4.8583,4.8583,4.8583,4.8583,4.8583,4.8583,4.8583,4.8583,4.8583,4.8583,4.8583,4.8583,4.8583,4.8583,4.8583,4.8583,4.8583,4.8583,4.8583,4.8609,4.8686,4.8717,4.8691,4.8717,4.9358,4.9682,4.9769,5.0292,5.0354,4.98,5.0292,5.0666,5.0953,5.1192,5.1737,5.2796,5.3867,5.4533,5.4796,5.5519,5.5862,5.5695,5.5452,5.5206,5.4818,5.4597,5.4362,5.3873,5.4077,5.4198,5.3886,5.4183,5.4568,5.4553,5.4583,5.4368,5.3891,5.4153,5.446,5.4541,5.4618,5.4664,5.4618,5.4691,5.4722,5.4741,5.4937,5.5014,5.5103,5.5364,5.5715,5.5773,5.6154,5.6628,5.6662,5.6554,5.6508,5.6647,5.6755,5.6724,5.6724,5.6631,5.6708,5.6693,5.6785,5.6785,5.6785,5.6785,5.6785,5.6785,5.6785,5.6785,5.6785,5.6785,5.6785,5.6785,5.6785,5.6785,4.8583,4.8583,4.8583,4.8583,4.8583,4.8583,4.8583,4.8583,4.8583,4.8583,4.8583,4.8583,4.8583,4.8583,4.8583,4.8583,4.8583,4.8583,4.8583,4.8583,4.8583,4.8583,4.8583,4.8583,4.8583,4.8583,4.8583,4.8583,4.8583,4.8583,4.8583,4.8583,4.8583,4.8583,4.8614,4.8599,4.8809,4.9307,4.9343,4.9558,4.9989,5.0262,5.0396,5.0462,5.1021,5.1267,5.1108,5.0847,5.1016,5.1672,5.2068,5.296,5.4367,5.5317,5.5811,5.589,5.611,5.6208,5.6088,5.6232,5.6086,5.5708,5.5826,5.5669,5.4997,5.5,5.4913,5.4491,5.4587,5.4691,5.4768,5.5149,5.5087,5.4449,5.4583,5.4783,5.4814,5.4768,5.4922,5.5303,5.538,5.5592,5.5976,5.6096,5.6019,5.6034,5.6262,5.6401,5.6477,5.6597,5.6782,5.6785,5.6785,5.6785,5.6785,5.6785,5.6785,5.6785,5.6785,5.6785,5.6785,5.6785,5.6785,5.6785,5.6785,5.6785,5.6785,5.6785,5.6785,5.6785,5.6785,5.6785,5.6785,5.6785,5.6785,4.9345,4.9119,4.9036,4.884,4.8599,4.8583,4.8583,4.8583,4.8583,4.8583,4.8583,4.8583,4.8583,4.8583,4.8583,4.8583,4.8583,4.8583,4.8583,4.8583,4.8583,4.8583,4.8583,4.8583,4.8583,4.8583,4.8583,4.8583,4.8583,4.8583,4.8583,4.8599,4.8871,4.902,4.904,4.9281,4.9661,5.0015,5.0077,5.0277,5.0662,5.0944,5.1067,5.1185,5.1728,5.2041,5.2041,5.1739,5.1873,5.253,5.319,5.4234,5.5432,5.6037,5.654,5.6866,5.6922,5.6896,5.6896,5.71,5.6919,5.6451,5.6458,5.6263,5.5685,5.5609,5.5511,5.5181,5.5364,5.5457,5.5576,5.5834,5.5881,5.5561,5.5503,5.5472,5.5484,5.5484,5.5638,5.6034,5.6123,5.6354,5.6647,5.6785,5.6785,5.6785,5.6785,5.6785,5.6785,5.677,5.6785,5.6785,5.6785,5.6785,5.6785,5.6785,5.6785,5.6785,5.6785,5.6785,5.6785,5.6785,5.6785,5.6785,5.6785,5.6785,5.6785,5.6785,5.6785,5.6785,5.6785,5.6785,5.6785,5.6785,5.6785,5.0623,5.007,4.985,4.9395,4.8779,4.8727,4.8676,4.8583,4.8583,4.8583,4.8583,4.8583,4.8583,4.8583,4.8583,4.8583,4.8583,4.8583,4.8583,4.8583,4.8583,4.8583,4.8583,4.8583,4.8583,4.8583,4.8583,4.8655,4.8778,4.8778,4.8676,4.8948,4.9481,4.9764,4.9831,5.0374,5.059,5.0723,5.0759,5.079,5.0959,5.1451,5.1744,5.1764,5.2287,5.261,5.2613,5.2807,5.313,5.3548,5.4401,5.5224,5.5772,5.6228,5.6941,5.7744,5.7846,5.7878,5.8064,5.795,5.7601,5.6962,5.6624,5.6028,5.5872,5.6047,5.6072,5.5839,5.6262,5.6659,5.6647,5.669,5.6674,5.6751,5.6539,5.657,5.6739,5.669,5.6616,5.6662,5.677,5.6798,5.6798,5.6798,5.6785,5.6785,5.6785,5.6785,5.6785,5.6785,5.6785,5.6785,5.6785,5.6785,5.6785,5.6785,5.6785,5.6785,5.6785,5.6785,5.6785,5.6785,5.6785,5.6785,5.6785,5.6785,5.6785,5.6785,5.6785,5.6785,5.6785,5.6785,5.6785,5.6785,5.6785,5.1182,5.099,5.0752,5.0254,4.9661,4.9484,4.9097,4.864,4.8625,4.8696,4.8599,4.8583,4.8625,4.8583,4.8583,4.8583,4.864,4.8625,4.8583,4.8583,4.8583,4.8583,4.8583,4.8599,4.863,4.866,4.8748,4.8871,4.9384,4.9415,4.9646,5.0143,5.0266,5.042,5.0508,5.0651,5.0974,5.1359,5.1436,5.1682,5.2087,5.2271,5.2425,5.2456,5.261,5.2718,5.2758,5.3239,5.3726,5.4162,5.5008,5.595,5.6726,5.7192,5.778,5.8439,5.8478,5.8325,5.8287,5.8352,5.806,5.7493,5.7431,5.7375,5.6738,5.676,5.6717,5.6584,5.6721,5.6785,5.6785,5.6785,5.6785,5.6785,5.6785,5.6785,5.6785,5.6785,5.6785,5.6785,5.6785,5.6785,5.6785,5.6785,5.6785,5.6785,5.6785,5.6785,5.6785,5.6785,5.6785,5.6785,5.6785,5.6785,5.6785,5.6785,5.6785,5.6785,5.6785,5.6785,5.6785,5.6785,5.6785,5.6785,5.6785,5.6785,5.6785,5.6785,5.6785,5.6785,5.6785,5.6785,5.6785,5.6785,5.6785,5.2471,5.2072,5.1835,5.1281,5.061,5.0468,5.0105,4.9681,4.9587,4.937,4.9148,4.905,4.8897,4.8614,4.8583,4.8804,4.9035,4.9066,4.9225,4.9497,4.9528,4.9374,4.9174,4.9066,4.9194,4.9471,4.9466,4.9728,5.0062,5.0108,5.0354,5.0662,5.099,5.1113,5.1159,5.1451,5.1713,5.2052,5.2118,5.2333,5.2671,5.2702,5.2702,5.2702,5.2729,5.2835,5.3389,5.4089,5.4675,5.5181,5.5838,5.6658,5.7653,5.8091,5.8601,5.9277,5.9144,5.8996,5.8959,5.8945,5.8543,5.7954,5.7934,5.7606,5.716,5.7028,5.6887,5.6791,5.6798,5.6785,5.6785,5.6785,5.6785,5.6785,5.6785,5.6785,5.6785,5.6785,5.6785,5.6785,5.6785,5.6785,5.6785,5.6785,5.6785,5.6785,5.6785,5.6785,5.6785,5.6785,5.6785,5.6785,5.6785,5.6785,5.6785,5.6785,5.6785,5.6785,5.6785,5.6785,5.6785,5.6785,5.6785,5.6785,5.6785,5.6785,5.6785,5.6785,5.6785,5.6785,5.6785,5.6785,5.6785,5.6785,5.6785,5.4036,5.3297,5.3012,5.2402,5.168,5.1538,5.1302,5.1065,5.0919,5.0539,5.0025,4.9895,4.9613,4.8856,4.9154,4.9267,4.981,4.98,5.0112,5.0374,5.0482,5.0308,5.0046,4.9846,5.0035,5.042,5.0651,5.0697,5.0759,5.08,5.0893,5.1174,5.1594,5.1775,5.1882,5.2333,5.2641,5.261,5.2595,5.2595,5.2687,5.2702,5.2702,5.2729,5.2981,5.3388,5.4231,5.5091,5.582,5.639,5.6759,5.7534,5.8529,5.8894,5.9329,5.983,5.9762,5.9678,5.9746,5.9297,5.8836,5.8187,5.7676,5.735,5.7076,5.6915,5.6822,5.6798,5.6785,5.6785,5.6785,5.6785,5.6785,5.6785,5.6785,5.6785,5.6785,5.6785,5.6785,5.6785,5.6785,5.6785,5.6785,5.6785,5.6785,5.6785,5.6785,5.6785,5.6785,5.6785,5.6785,5.6785,5.6785,5.6785,5.6785,5.6785,5.6785,5.6785,5.6785,5.6785,5.6785,5.6785,5.6785,5.6785,5.6785,5.6785,5.6785,5.6785,5.6785,5.6785,5.6785,5.6785,5.6785,5.6785,5.6785,5.498,5.4645,5.4394,5.3771,5.2985,5.2576,5.2114,5.1581,5.1418,5.1302,5.1052,5.1025,5.078,5.0435,5.0347,5.052,5.0499,5.0534,5.06,5.0636,5.0697,5.0974,5.1031,5.08,5.0605,5.0774,5.0728,5.099,5.1344,5.1513,5.1748,5.221,5.2225,5.2483,5.2502,5.2564,5.2702,5.2702,5.2702,5.2702,5.2702,5.2702,5.2718,5.2817,5.3376,5.3948,5.4536,5.5625,5.6757,5.7571,5.7935,5.8416,5.9243,5.9645,5.9963,6.0207,6.0104,5.9859,5.9625,5.8963,5.8315,5.7976,5.7503,5.7076,5.6891,5.6846,5.6785,5.6785,5.6785,5.6785,5.6785,5.6785,5.6785,5.6785,5.6785,5.6785,5.6785,5.6785,5.6785,5.6785,5.6785,5.6785,5.6785,5.6785,5.6785,5.6785,5.6785,5.6785,5.6785,5.6785,5.6785,5.6785,5.6785,5.6785,5.6785,5.6785,5.6785,5.6785,5.6785,5.6785,5.6785,5.6785,5.6785,5.6785,5.6785,5.6785,5.6785,5.6785,5.6785,5.6785,5.6785,5.6785,5.6785,5.6785,5.6785,5.5598,5.5385,5.5213,5.4788,5.4216,5.3908,5.3492,5.3013,5.2855,5.2486,5.2071,5.1993,5.1704,5.1206,5.1074,5.1054,5.1353,5.1557,5.1652,5.1671,5.1671,5.1852,5.2036,5.1867,5.1636,5.1636,5.1667,5.1882,5.2087,5.2164,5.2344,5.2671,5.2702,5.2656,5.2702,5.2702,5.2702,5.2702,5.2702,5.2702,5.2702,5.2702,5.2918,5.3178,5.3814,5.4435,5.5419,5.6414,5.7576,5.8483,5.896,5.9336,5.9891,6.0205,6.0361,6.0284,6.0071,5.9613,5.9125,5.8578,5.8014,5.7562,5.7243,5.7031,5.6842,5.6785,5.6785,5.6785,5.6785,5.6785,5.6785,5.6785,5.6785,5.6785,5.6785,5.6785,5.6785,5.6785,5.6785,5.6785,5.6785,5.6785,5.6785,5.6785,5.6785,5.6785,5.6785,5.6785,5.6785,5.6785,5.6785,5.6785,5.6785,5.6785,5.6785,5.6785,5.6785,5.6785,5.6785,5.6785,5.6785,5.6785,5.6785,5.6785,5.6785,5.6785,5.6785,5.6785,5.6785,5.6785,5.6785,5.6785,5.6785,5.6785,5.6785,5.6063,5.5797,5.5797,5.5592,5.5278,5.5174,5.4909,5.4601,5.4565,5.3925,5.3218,5.3075,5.2734,5.1971,5.1713,5.1864,5.2168,5.246,5.2583,5.2572,5.2494,5.2529,5.2579,5.2533,5.2502,5.2702,5.2564,5.261,5.2625,5.2702,5.261,5.2702,5.2702,5.2702,5.2702,5.2702,5.2702,5.2702,5.2702,5.2702,5.2702,5.2718,5.3025,5.3579,5.4355,5.5115,5.6211,5.7163,5.8142,5.9193,5.9755,6.006,6.0227,6.0425,6.0415,5.9984,5.9689,5.9208,5.8658,5.8188,5.77,5.712,5.7052,5.6971,5.6846,5.6785,5.6785,5.6785,5.6785,5.6785,5.6785,5.6785,5.6785,5.6785,5.6785,5.6785,5.6785,5.6785,5.6785,5.6785,5.6785,5.6785,5.6785,5.6785,5.6785,5.6785,5.6785,5.6785,5.6785,5.6785,5.6785,5.6785,5.6785,5.6785,5.6785,5.6785,5.6785,5.6785,5.6785,5.6785,5.6785,5.6785,5.6785,5.6785,5.6785,5.6785,5.6785,5.6785,5.6785,5.6785,5.6785,5.6785,5.6785,5.6785,5.6785,5.6615,5.6287,5.6287,5.6123,5.5927,5.5703,5.5552,5.5464,5.5271,5.5043,5.4677,5.4656,5.421,5.3713,5.3596,5.3449,5.3137,5.3086,5.3026,5.2982,5.2848,5.2736,5.2747,5.2713,5.2702,5.2702,5.2702,5.2702,5.2702,5.2702,5.2702,5.2702,5.2702,5.2702,5.2702,5.2702,5.2702,5.2702,5.2702,5.2702,5.2702,5.2825,5.3133,5.3864,5.4873,5.5837,5.6539,5.7519,5.8387,5.9001,5.9518,5.9623,5.964,5.9892,5.9908,5.964,5.9152,5.8662,5.8246,5.7676,5.731,5.7088,5.6975,5.6882,5.681,5.6785,5.6785,5.6785,5.6785,5.6785,5.6785,5.6785,5.6785,5.6785,5.6785,5.6785,5.6785,5.6785,5.6785,5.6785,5.6785,5.6785,5.6785,5.6785,5.6785,5.6785,5.6785,5.6785,5.6785,5.6785,5.6785,5.6785,5.6785,5.6785,5.6785,5.6785,5.6785,5.6785,5.6785,5.6785,5.6785,5.6785,5.6785,5.6785,5.6785,5.6785,5.6785,5.6785,5.6785,5.6785,5.6785,5.6785,5.6785,5.6785,5.6785,5.7044,5.6863,5.6747,5.66,5.6395,5.6179,5.5994,5.59,5.581,5.5639,5.546,5.5379,5.5128,5.4691,5.4449,5.4098,5.3655,5.3349,5.325,5.321,5.3011,5.2904,5.287,5.2796,5.2713,5.2702,5.2702,5.2702,5.2702,5.2702,5.2702,5.2702,5.2702,5.2702,5.2702,5.2702,5.2702,5.2702,5.2702,5.2718,5.2779,5.2995,5.3568,5.4368,5.5286,5.6197,5.7035,5.7581,5.8257,5.8735,5.9146,5.9208,5.9219,5.9192,5.9232,5.9074,5.8651,5.82,5.7875,5.7361,5.7088,5.6963,5.6858,5.6798,5.6785,5.6785,5.6785,5.6785,5.6785,5.6785,5.6785,5.6785,5.6785,5.6785,5.6785,5.6785,5.6785,5.6785,5.6785,5.6785,5.6785,5.6785,5.6785,5.6785,5.6785,5.6785,5.6785,5.6785,5.6785,5.6785,5.6785,5.6785,5.6785,5.6785,5.6785,5.6785,5.6785,5.6785,5.6785,5.6785,5.6785,5.6785,5.6785,5.6785,5.6785,5.6785,5.6785,5.6785,5.6785,5.6785,5.6785,5.6785,5.6785,5.6785,5.6785,5.7336,5.7273,5.7113,5.6968,5.6805,5.6658,5.6486,5.6346,5.6323,5.6152,5.5917,5.5838,5.5596,5.5225,5.4868,5.447,5.3969,5.3759,5.3618,5.3524,5.3327,5.321,5.3104,5.2953,5.2814,5.2814,5.2713,5.2702,5.2702,5.2702,5.2702,5.2702,5.2702,5.2702,5.2702,5.2702,5.2702,5.2702,5.2702,5.2733,5.3025,5.3553,5.4229,5.4891,5.5561,5.643,5.7237,5.7613,5.8042,5.8445,5.8769,5.8932,5.8882,5.8708,5.856,5.8434,5.8215,5.784,5.7503,5.7199,5.6963,5.6846,5.681,5.6785,5.6785,5.6785,5.6785,5.6785,5.6785,5.6785,5.6785,5.6785,5.6785,5.6785,5.6785,5.6785,5.6785,5.6785,5.6785,5.6785,5.6785,5.6785,5.6785,5.6785,5.6785,5.6785,5.6785,5.6785,5.6785,5.6785,5.6785,5.6785,5.6785,5.6785,5.6785,5.6785,5.6785,5.6785,5.6785,5.6785,5.6785,5.6785,5.6785,5.6785,5.6785,5.6785,5.6785,5.6785,5.6785,5.6785,5.6785,5.6785,5.6785,5.6785,5.6785,5.7458,5.7291,5.7263,5.7252,5.7214,5.7176,5.7167,5.7101,5.693,5.6776,5.6499,5.6369,5.6063,5.5626,5.5241,5.5014,5.479,5.4454,5.4178,5.4033,5.3753,5.3535,5.3371,5.316,5.306,5.3004,5.2814,5.2713,5.2725,5.2725,5.2702,5.2702,5.2702,5.2702,5.2702,5.2702,5.2702,5.2702,5.2702,5.2979,5.3537,5.4168,5.4829,5.5515,5.6182,5.6745,5.7168,5.7433,5.7762,5.8215,5.8491,5.8617,5.8628,5.8628,5.8342,5.803,5.7715,5.7456,5.7223,5.6999,5.687,5.6798,5.6785,5.6785,5.6785,5.6785,5.6785,5.6785,5.6785,5.6785,5.6785,5.6785,5.6785,5.6785,5.6785,5.6785,5.6785,5.6785,5.6785,5.6785,5.6785,5.6785,5.6785,5.6785,5.6785,5.6785,5.6785,5.6785,5.6785,5.6785,5.6785,5.6785,5.6785,5.6785,5.6785,5.6785,5.6785,5.6785,5.6785,5.6785,5.6785,5.6785,5.6785,5.6785,5.6785,5.6785,5.6785,5.6785,5.6785,5.6785,5.6785,5.6785,5.6785,5.6785,5.6785,5.77,5.7634,5.7523,5.7476,5.7458,5.7364,5.7308,5.7289,5.7214,5.7053,5.6882,5.6793,5.6505,5.6073,5.5643,5.544,5.5348,5.4998,5.4765,5.4534,5.4215,5.3904,5.3731,5.3448,5.3277,5.3233,5.3071,5.2964,5.2908,5.2781,5.2702,5.2702,5.2702,5.2702,5.2702,5.2702,5.2702,5.2702,5.2748,5.3045,5.3676,5.4368,5.5041,5.5696,5.6416,5.6838,5.7079,5.7195,5.7527,5.7926,5.8158,5.8277,5.8381,5.8397,5.8208,5.7715,5.7562,5.7373,5.7135,5.6903,5.6822,5.6785,5.6785,5.6785,5.6785,5.6785,5.6785,5.6785,5.6785,5.6785,5.6785,5.6785,5.6785,5.6785,5.6785,5.6785,5.6785,5.6785,5.6785,5.6785,5.6785,5.6785,5.6785,5.6785,5.6785,5.6785,5.6785,5.6785,5.6785,5.6785,5.6785,5.6785,5.6785,5.6785,5.6785,5.6785,5.6785,5.6785,5.6785,5.6785,5.6785,5.6785,5.6785,5.6785,5.6785,5.6785,5.6785,5.6785,5.6785,5.6785,5.6785,5.6785,5.6785,5.6785,5.6785,5.79,5.7872,5.7726,5.7688,5.7662,5.7504,5.7467,5.7458,5.7402,5.7289,5.7148,5.7034,5.6805,5.6512,5.6113,5.5894,5.5854,5.5507,5.5323,5.5077,5.4754,5.4444,5.4242,5.3932,5.364,5.3579,5.3387,5.3248,5.3126,5.3015,5.2866,5.2713,5.2702,5.2702,5.2702,5.2702,5.2702,5.2702,5.2918,5.3353,5.3983,5.466,5.533,5.5942,5.6471,5.6879,5.7007,5.71,5.7373,5.7696,5.7906,5.8085,5.8286,5.8305,5.8058,5.7656,5.7492,5.7341,5.7091,5.6879,5.681,5.6785,5.6785,5.6785,5.6785,5.6785,5.6785,5.6785,5.6785,5.6785,5.6785,5.6785,5.6785,5.6785,5.6785,5.6785,5.6785,5.6785,5.6785,5.6785,5.6785,5.6785,5.6785,5.6785,5.6785,5.6785,5.6785,5.6785,5.6785,5.6785,5.6785,5.6785,5.6785,5.6785,5.6785,5.6785,5.6785,5.6785,5.6785,5.6785,5.6785,5.6785,5.6785,5.6785,5.6785,5.6785,5.6785,5.6785,5.6785,5.6785,5.6785,5.6785,5.6785,5.6785,5.6785,5.79,5.79,5.7881,5.788,5.7871,5.7863,5.7845,5.7781,5.766,5.756,5.7458,5.7186,5.6996,5.6844,5.6571,5.6356,5.6336,5.6136,5.589,5.5643,5.542,5.5133,5.4874,5.4544,5.4232,5.4055,5.385,5.3618,5.341,5.336,5.3078,5.277,5.2803,5.2736,5.2702,5.2702,5.2795,5.2918,5.3245,5.3906,5.458,5.5241,5.5896,5.6477,5.6724,5.681,5.6834,5.6983,5.7195,5.7531,5.7684,5.7895,5.8085,5.8143,5.7883,5.7551,5.7421,5.7234,5.6951,5.683,5.681,5.6785,5.6785,5.6785,5.6785,5.6785,5.6785,5.6785,5.6785,5.6785,5.6785,5.6785,5.6785,5.6785,5.6785,5.6785,5.6785,5.6785,5.6785,5.6785,5.6785,5.6785,5.6785,5.6785,5.6785,5.6785,5.6785,5.6785,5.6785,5.6785,5.6785,5.6785,5.6785,5.6785,5.6785,5.6785,5.6785,5.6785,5.6785,5.6785,5.6785,5.6785,5.6785,5.6785,5.6785,5.6785,5.6785,5.6785,5.6785,5.6785,5.6785,5.6785,5.6785,5.6785,5.6785,5.79,5.79,5.79,5.79,5.79,5.79,5.79,5.7891,5.7834,5.7698,5.7597,5.7318,5.7186,5.7101,5.693,5.6783,5.6725,5.6415,5.6257,5.6033,5.5777,5.5556,5.5332,5.5174,5.4921,5.4691,5.4428,5.4216,5.4039,5.3802,5.3557,5.3294,5.3093,5.2848,5.277,5.2744,5.2918,5.3291,5.3629,5.4195,5.5191,5.553,5.6062,5.6721,5.6785,5.6785,5.681,5.6867,5.7059,5.7234,5.7389,5.7602,5.7801,5.7852,5.766,5.7338,5.729,5.7103,5.6894,5.6785,5.6785,5.6785,5.6785,5.6785,5.6785,5.6785,5.6785,5.6785,5.6785,5.6785,5.6785,5.6785,5.6785,5.6785,5.6785,5.6785,5.6785,5.6785,5.6785,5.6785,5.6785,5.6785,5.6785,5.6785,5.6785,5.6785,5.6785,5.6785,5.6785,5.6785,5.6785,5.6785,5.6785,5.6785,5.6785,5.6785,5.6785,5.6785,5.6785,5.6785,5.6785,5.6785,5.6785,5.6785,5.6785,5.6785,5.6785,5.6785,5.6785,5.6785,5.6785,5.6785,5.6785,5.6785,5.6785,5.79,5.79,5.79,5.79,5.79,5.79,5.79,5.79,5.7891,5.7827,5.7671,5.7469,5.7392,5.7336,5.7186,5.7065,5.7006,5.6831,5.6661,5.6457,5.6241,5.5987,5.5864,5.5693,5.5476,5.5277,5.5106,5.4883,5.4597,5.4253,5.4007,5.3785,5.3551,5.327,5.287,5.2767,5.3052,5.3553,5.4014,5.4503,5.5561,5.5973,5.6185,5.6767,5.6798,5.6785,5.6785,5.6834,5.6939,5.7067,5.7183,5.7278,5.7409,5.7456,5.7338,5.7191,5.7088,5.6992,5.6855,5.6785,5.6785,5.6785,5.6785,5.6785,5.6785,5.6785,5.6785,5.6785,5.6785,5.6785,5.6785,5.6785,5.6785,5.6785,5.6785,5.6785,5.6785,5.6785,5.6785,5.6785,5.6785,5.6785,5.6785,5.6785,5.6785,5.6785,5.6785,5.6785,5.6785,5.6785,5.6785,5.6785,5.6785,5.6785,5.6785,5.6785,5.6785,5.6785,5.6785,5.6785,5.6785,5.6785,5.6785,5.6785,5.6785,5.6785,5.6785,5.6785,5.6785,5.6785,5.6785,5.6785,5.6785,5.6785,5.6785,5.79,5.79,5.79,5.79,5.79,5.79,5.79,5.79,5.7891,5.7881,5.7836,5.7671,5.7588,5.7551,5.7392,5.7308,5.728,5.7224,5.711,5.6884,5.6728,5.6544,5.6359,5.6179,5.5974,5.5737,5.5616,5.545,5.5124,5.4983,5.467,5.4269,5.4028,5.3643,5.3104,5.283,5.3083,5.3706,5.4353,5.5087,5.5788,5.637,5.6659,5.6751,5.6785,5.6785,5.6785,5.6785,5.6891,5.7007,5.704,5.7159,5.7338,5.7401,5.7278,5.7088,5.7076,5.6983,5.6822,5.6798,5.6785,5.6785,5.6785,5.6785,5.6785,5.6785,5.6785,5.6785,5.6785,5.6785,5.6785,5.6785,5.6785,5.6785,5.6785,5.6785,5.6785,5.6785,5.6785,5.6785,5.6785,5.6785,5.6785,5.6785,5.6785,5.6785,5.6785,5.6785,5.6785,5.6785,5.6785,5.6785,5.6785,5.6785,5.6785,5.6785,5.6785,5.6785,5.6785,5.6785,5.6785,5.6785,5.6785,5.6785,5.6785,5.6785,5.6785,5.6785,5.6785,5.6785,5.6785,5.6785,5.6785,5.6785,5.6785,5.79,5.79,5.79,5.79,5.79,5.79,5.79,5.79,5.79,5.79,5.7891,5.7808,5.7799,5.7752,5.7623,5.7504,5.7486,5.7336,5.7233,5.7188,5.711,5.6977,5.6805,5.6661,5.6486,5.6241,5.6132,5.6023,5.5776,5.5608,5.5338,5.4967,5.4375,5.3736,5.3359,5.3249,5.3718,5.4368,5.5041,5.5711,5.6339,5.6647,5.6785,5.6785,5.6785,5.6785,5.6785,5.6785,5.6846,5.6915,5.6927,5.6987,5.7071,5.7083,5.7023,5.6915,5.6903,5.6879,5.681,5.6785,5.6785,5.6785,5.6785,5.6785,5.6785,5.6785,5.6785,5.6785,5.6785,5.6785,5.6785,5.6785,5.6785,5.6785,5.6785,5.6785,5.6785,5.6785,5.6785,5.6785,5.6785,5.6785,5.6785,5.6785,5.6785,5.6785,5.6785,5.6785,5.6785,5.6785,5.6785,5.6785,5.6785,5.6785,5.6785,5.6785,5.6785,5.6785,5.6785,5.6785,5.6785,5.6785,5.6785,5.6785,5.6785,5.6785,5.6785,5.6785,5.6785,5.6785,5.6785,5.6785,5.6785,5.6785,5.6785,5.79,5.79,5.79,5.79,5.79,5.79,5.79,5.79,5.79,5.79,5.79,5.79,5.7891,5.7854,5.7798,5.7715,5.7689,5.7588,5.7439,5.743,5.7411,5.7261,5.7148,5.7101,5.693,5.6719,5.6593,5.6476,5.6277,5.607,5.5713,5.5253,5.4767,5.4308,5.3926,5.3939,5.4241,5.4872,5.5542,5.5985,5.6508,5.6785,5.6785,5.6785,5.6785,5.6785,5.6785,5.6785,5.6785,5.6785,5.6785,5.6785,5.6785,5.6785,5.6785,5.6785,5.6798,5.6798,5.6798,5.6785,5.6785,5.6785,5.6785,5.6785,5.6785,5.6785,5.6785,5.6785,5.6785,5.6785,5.6785,5.6785,5.6785,5.6785,5.6785,5.6785,5.6785,5.6785,5.6785,5.6785,5.6785,5.6785,5.6785,5.6785,5.6785,5.6785,5.6785,5.6785,5.6785,5.6785,5.6785,5.6785,5.6785,5.6785,5.6785,5.6785,5.6785,5.6785,5.6785,5.6785,5.6785,5.6785,5.6785,5.6785,5.6785,5.6785,5.6785,5.6785,5.6785,5.6785,5.6785,5.6785,5.6785,5.6785,5.6785,5.79,5.79,5.79,5.79,5.79,5.79,5.79,5.79,5.79,5.79,5.79,5.79,5.79,5.79,5.7898,5.7889,5.7863,5.7845,5.7744,5.7652,5.7615,5.7476,5.7348,5.7291,5.7224,5.7186,5.7063,5.6834,5.668,5.6379,5.5974,5.5642,5.532,5.5056,5.4835,5.477,5.495,5.5424,5.585,5.6262,5.6705,5.6785,5.6785,5.6785,5.6785,5.6785,5.6785,5.6785,5.6785,5.6785,5.6785,5.6785,5.6785,5.6785,5.6785,5.6785,5.6785,5.6785,5.6785,5.6785,5.6785,5.6785,5.6785,5.6785,5.6785,5.6785,5.6785,5.6785,5.6785,5.6785,5.6785,5.6785,5.6785,5.6785,5.6785,5.6785,5.6785,5.6785,5.6785,5.6785,5.6785,5.6785,5.6785,5.6785,5.6785,5.6785,5.6785,5.6785,5.6785,5.6785,5.6785,5.6785,5.6785,5.6785,5.6785,5.6785,5.6785,5.6785,5.6785,5.6785,5.6785,5.6785,5.6785,5.6785,5.6785,5.6785,5.6785,5.6785,5.6785,5.6785,5.6785,5.6785,5.6785,5.6785,5.6785,5.79,5.79,5.79,5.79,5.79,5.79,5.79,5.79,5.79,5.79,5.79,5.79,5.79,5.79,5.79,5.79,5.79,5.7891,5.7863,5.7818,5.7781,5.7671,5.7578,5.7504,5.7422,5.7329,5.7233,5.7101,5.6863,5.6609,5.6546,5.6372,5.607,5.6007,5.599,5.5939,5.5849,5.586,5.6197,5.6505,5.6721,5.6785,5.6785,5.6785,5.6785,5.6785,5.6785,5.6785,5.6785,5.6785,5.6785,5.6785,5.6785,5.6785,5.6785,5.6785,5.6785,5.6785,5.6785,5.6785,5.6785,5.6785,5.6785,5.6785,5.6785,5.6785,5.6785,5.6785,5.6785,5.6785,5.6785,5.6785,5.6785,5.6785,5.6785,5.6785,5.6785,5.6785,5.6785,5.6785,5.6785,5.6785,5.6785,5.6785,5.6785,5.6785,5.6785,5.6785,5.6785,5.6785,5.6785,5.6785,5.6785,5.6785,5.6785,5.6785,5.6785,5.6785,5.6785,5.6785,5.6785,5.6785,5.6785,5.6785,5.6785,5.6785,5.6785,5.6785,5.6785,5.6785,5.6785,5.6785,5.6785,5.6785,5.6785,5.79,5.79,5.79,5.79,5.79,5.79,5.79,5.79,5.79,5.79,5.79,5.79,5.79,5.79,5.79,5.79,5.79,5.79,5.7881,5.7881,5.79,5.7818,5.7744,5.7708,5.7662,5.7541,5.743,5.7318,5.7118,5.6993,5.6944,5.6888,5.6788,5.6937,5.6904,5.6773,5.6559,5.646,5.652,5.6739,5.6785,5.6785,5.6785,5.6785,5.6785,5.6785,5.6785,5.6785,5.6785,5.6785,5.6785,5.6785,5.6785,5.6785,5.6785,5.6785,5.6785,5.6785,5.6785,5.6785,5.6785,5.6785,5.6785,5.6785,5.6785,5.6785,5.6785,5.6785,5.6785,5.6785,5.6785,5.6785,5.6785,5.6785,5.6785,5.6785,5.6785,5.6785,5.6785,5.6785,5.6785,5.6785,5.6785,5.6785,5.6785,5.6785,5.6785,5.6785,5.6785,5.6785,5.6785,5.6785,5.6785,5.6785,5.6785,5.6785,5.6785,5.6785,5.6785,5.6785,5.6785,5.6785,5.6785,5.6785,5.6785,5.6785,5.6785,5.6785,5.6785,5.6785,5.6785,5.6785,5.6785,5.6785,5.6785,5.79,5.79,5.79,5.79,5.79,5.79,5.79,5.79,5.79,5.79,5.79,5.79,5.79,5.79,5.79,5.79,5.79,5.79,5.79,5.79,5.79,5.7872,5.7872,5.7881,5.7808,5.779,5.7695,5.7502,5.7446,5.7352,5.7303,5.7274,5.7758,5.7845,5.7441,5.7343,5.7068,5.6712,5.669,5.6785,5.6785,5.6785,5.6785,5.6785,5.6785,5.6785,5.6785,5.6785,5.6785,5.6785,5.6785,5.6785,5.6785,5.6785,5.6785,5.6785,5.6785,5.6785,5.6785,5.6785,5.6785,5.6785,5.6785,5.6785,5.6785,5.6785,5.6785,5.6785,5.6785,5.6785,5.6785,5.6785,5.6785,5.6785,5.6785,5.6785,5.6785,5.6785,5.6785,5.6785,5.6785,5.6785,5.6785,5.6785,5.6785,5.6785,5.6785,5.6785,5.6785,5.6785,5.6785,5.6785,5.6785,5.6785,5.6785,5.6785,5.6785,5.6785,5.6785,5.6785,5.6785,5.6785,5.6785,5.6785,5.6785,5.6785,5.6785,5.6785,5.6785,5.6785,5.6785,5.6785,5.6785,5.6785,5.6785,5.79,5.79,5.79,5.79,5.79,5.79,5.79,5.79,5.79,5.79,5.79,5.79,5.79,5.79,5.79,5.79,5.79,5.79,5.79,5.79,5.79,5.79,5.79,5.79,5.7891,5.7836,5.7738,5.7743,5.7894,5.7813,5.7983,5.8568,5.8632,5.8139,5.7841,5.7688,5.7282,5.6834,5.6785,5.6785,5.6785,5.6785,5.6785,5.6785,5.6785,5.6785,5.6785,5.6785,5.6785,5.6785,5.6785,5.6785,5.6785,5.6785,5.6785,5.6785,5.6785,5.6785,5.6785,5.6785,5.6785,5.6785,5.6785,5.6785,5.6785,5.6785,5.6785,5.6785,5.6785,5.6785,5.6785,5.6785,5.6785,5.6785,5.6785,5.6785,5.6785,5.6785,5.6785,5.6785,5.6785,5.6785,5.6785,5.6785,5.6785,5.6785,5.6785,5.6785,5.6785,5.6785,5.6785,5.6785,5.6785,5.6785,5.6785,5.6785,5.6785,5.6785,5.6785,5.6785,5.6785,5.6785,5.6785,5.6785,5.6785,5.6785,5.6785,5.6785,5.6785,5.6785,5.6785,5.6785,5.6785,5.6785,5.6785,5.79,5.79,5.79,5.79,5.79,5.79,5.79,5.79,5.79,5.79,5.79,5.79,5.79,5.79,5.79,5.79,5.79,5.79,5.79,5.79,5.79,5.79,5.79,5.7915,5.7808,5.7778,5.7902,5.8033,5.8414,5.8623,5.8899,5.9112,5.8701,5.8424,5.8146,5.7668,5.7258,5.6834,5.6798,5.6785,5.6785,5.6785,5.6785,5.6785,5.6785,5.6785,5.6785,5.6785,5.6785,5.6785,5.6785,5.6785,5.6785,5.6785,5.6785,5.6785,5.6785,5.6785,5.6785,5.6785,5.6785,5.6785,5.6785,5.6785,5.6785,5.6785,5.6785,5.6785,5.6785,5.6785,5.6785,5.6785,5.6785,5.6785,5.6785,5.6785,5.6785,5.6785,5.6785,5.6785,5.6785,5.6785,5.6785,5.6785,5.6785,5.6785,5.6785,5.6785,5.6785,5.6785,5.6785,5.6785,5.6785,5.6785,5.6785,5.6785,5.6785,5.6785,5.6785,5.6785,5.6785,5.6785,5.6785,5.6785,5.6785,5.6785,5.6785,5.6785,5.6785,5.6785,5.6785,5.6785,5.6785,5.6785,5.6785,5.79,5.79,5.79,5.79,5.79,5.79,5.79,5.79,5.79,5.79,5.79,5.79,5.79,5.79,5.79,5.79,5.79,5.79,5.79,5.79,5.79,5.79,5.7949,5.7997,5.8034,5.8122,5.8248,5.8662,5.9129,5.9144,5.9032,5.9025,5.8902,5.8746,5.8053,5.7562,5.7199,5.6891,5.6785,5.6785,5.6785,5.6785,5.6785,5.6785,5.6785,5.6785,5.6785,5.6785,5.6785,5.6785,5.6785,5.6785,5.6785,5.6785,5.6785,5.6785,5.6785,5.6785,5.6785,5.6785,5.6785,5.6785,5.6785,5.6785,5.6785,5.6785,5.6785,5.6785,5.6785,5.6785,5.6785,5.6785,5.6785,5.6785,5.6785,5.6785,5.6785,5.6785,5.6785,5.6785,5.6785,5.6785,5.6785,5.6785,5.6785,5.6785,5.6785,5.6785,5.6785,5.6785,5.6785,5.6785,5.6785,5.6785,5.6785,5.6785,5.6785,5.6785,5.6785,5.6785,5.6785,5.6785,5.6785,5.6785,5.6785,5.6785,5.6785,5.6785,5.6785,5.6785,5.6785,5.6785,5.6785,5.6785,5.6785,5.79,5.79,5.79,5.79,5.79,5.79,5.79,5.79,5.79,5.79,5.79,5.79,5.79,5.79,5.79,5.79,5.79,5.79,5.79,5.79,5.8009,5.7967,5.8054,5.8367,5.8669,5.8807,5.8916,5.9176,5.9498,5.9312,5.923,5.9392,5.8575,5.8257,5.7941,5.7484,5.7091,5.6855,5.6785,5.6785,5.6785,5.6785,5.6785,5.6785,5.6785,5.6785,5.6785,5.6785,5.6785,5.6785,5.6785,5.6785,5.6785,5.6785,5.6785,5.6785,5.6785,5.6785,5.6785,5.6785,5.6785,5.6785,5.6785,5.6785,5.6785,5.6785,5.6785,5.6785,5.6785,5.6785,5.6785,5.6785,5.6785,5.6785,5.6785,5.6785,5.6785,5.6785,5.6785,5.6785,5.6785,5.6785,5.6785,5.6785,5.6785,5.6785,5.6785,5.6785,5.6785,5.6785,5.6785,5.6785,5.6785,5.6785,5.6785,5.6785,5.6785,5.6785,5.6785,5.6785,5.6785,5.6785,5.6785,5.6785,5.6785,5.6785,5.6785,5.6785,5.6785,5.6785,5.6785,5.6785,5.6785,5.6785,5.6785]}]]